<?xml version='1.0' encoding='UTF-8'?><gpx version="1.1" creator="JPX - https://github.com/jenetics/jpx" xmlns="http://www.topografix.com/GPX/1/1"><trk><trkseg><trkpt lat="45.2206983" lon="8.5077725"><ele>112.00000000000001</ele><time>2026-03-29T13:27:19.671Z</time></trkpt><trkpt lat="45.220722" lon="8.5076699"><ele>112.0</ele><time>2026-03-29T13:27:36.642Z</time></trkpt><trkpt lat="45.2207157" lon="8.5075684"><ele>112.0</ele><time>2026-03-29T13:27:39.607Z</time></trkpt><trkpt lat="45.2206688" lon="8.507469"><ele>112.0</ele><time>2026-03-29T13:27:55.654Z</time></trkpt><trkpt lat="45.2205925" lon="8.5073993"><ele>112.00000000000001</ele><time>2026-03-29T13:28:33.655Z</time></trkpt><trkpt lat="45.2205057" lon="8.5073996"><ele>112.0</ele><time>2026-03-29T13:28:35.657Z</time></trkpt><trkpt lat="45.2204046" lon="8.5073945"><ele>111.6</ele><time>2026-03-29T13:28:37.657Z</time></trkpt><trkpt lat="45.2202985" lon="8.5073892"><ele>111.19999999999999</ele><time>2026-03-29T13:28:39.654Z</time></trkpt><trkpt lat="45.2201784" lon="8.507407"><ele>110.8</ele><time>2026-03-29T13:28:41.661Z</time></trkpt><trkpt lat="45.2200714" lon="8.5073871"><ele>110.4</ele><time>2026-03-29T13:28:43.664Z</time></trkpt><trkpt lat="45.2199968" lon="8.5073972"><ele>110.0</ele><time>2026-03-29T13:28:45.659Z</time></trkpt><trkpt lat="45.2199744" lon="8.5072998"><ele>109.99999999999999</ele><time>2026-03-29T13:28:47.661Z</time></trkpt><trkpt lat="45.2199794" lon="8.5071174"><ele>110.0</ele><time>2026-03-29T13:28:49.651Z</time></trkpt><trkpt lat="45.2199894" lon="8.507026"><ele>110.0</ele><time>2026-03-29T13:28:50.654Z</time></trkpt><trkpt lat="45.2199945" lon="8.5069355"><ele>110.0</ele><time>2026-03-29T13:28:51.659Z</time></trkpt><trkpt lat="45.2199996" lon="8.5067725"><ele>109.99999999999999</ele><time>2026-03-29T13:28:53.661Z</time></trkpt><trkpt lat="45.2200047" lon="8.5066704"><ele>110.0</ele><time>2026-03-29T13:28:54.66Z</time></trkpt><trkpt lat="45.2200242" lon="8.5065186"><ele>110.16666666666666</ele><time>2026-03-29T13:28:56.661Z</time></trkpt><trkpt lat="45.2200265" lon="8.5064289"><ele>110.33333333333333</ele><time>2026-03-29T13:28:58.658Z</time></trkpt><trkpt lat="45.2199914" lon="8.5063463"><ele>110.5</ele><time>2026-03-29T13:29:11.652Z</time></trkpt><trkpt lat="45.2199082" lon="8.5062941"><ele>110.66666666666666</ele><time>2026-03-29T13:29:14.652Z</time></trkpt><trkpt lat="45.2197982" lon="8.5062933"><ele>110.83333333333333</ele><time>2026-03-29T13:29:16.658Z</time></trkpt><trkpt lat="45.2197331" lon="8.5062973"><ele>111.0</ele><time>2026-03-29T13:29:17.653Z</time></trkpt><trkpt lat="45.2196168" lon="8.5063128"><ele>111.0</ele><time>2026-03-29T13:29:19.659Z</time></trkpt><trkpt lat="45.2195537" lon="8.5063152"><ele>111.0</ele><time>2026-03-29T13:29:20.661Z</time></trkpt><trkpt lat="45.2194289" lon="8.5063191"><ele>111.0</ele><time>2026-03-29T13:29:22.655Z</time></trkpt><trkpt lat="45.2193" lon="8.5063248"><ele>111.0</ele><time>2026-03-29T13:29:24.659Z</time></trkpt><trkpt lat="45.2192334" lon="8.5063233"><ele>111.0</ele><time>2026-03-29T13:29:25.661Z</time></trkpt><trkpt lat="45.2191576" lon="8.506324"><ele>111.0</ele><time>2026-03-29T13:29:26.667Z</time></trkpt><trkpt lat="45.2190837" lon="8.5063215"><ele>111.0</ele><time>2026-03-29T13:29:27.665Z</time></trkpt><trkpt lat="45.2190109" lon="8.5063167"><ele>111.0</ele><time>2026-03-29T13:29:28.663Z</time></trkpt><trkpt lat="45.2189324" lon="8.5063164"><ele>111.0</ele><time>2026-03-29T13:29:29.657Z</time></trkpt><trkpt lat="45.2188533" lon="8.5063177"><ele>111.0</ele><time>2026-03-29T13:29:30.662Z</time></trkpt><trkpt lat="45.2187837" lon="8.5063153"><ele>111.0</ele><time>2026-03-29T13:29:31.66Z</time></trkpt><trkpt lat="45.218684" lon="8.5063121"><ele>111.0</ele><time>2026-03-29T13:29:33.657Z</time></trkpt><trkpt lat="45.218601" lon="8.5063092"><ele>111.0</ele><time>2026-03-29T13:29:35.661Z</time></trkpt><trkpt lat="45.218483" lon="8.5063205"><ele>111.0</ele><time>2026-03-29T13:29:37.657Z</time></trkpt><trkpt lat="45.2184157" lon="8.5063191"><ele>111.0</ele><time>2026-03-29T13:29:38.657Z</time></trkpt><trkpt lat="45.2183467" lon="8.5063165"><ele>111.0</ele><time>2026-03-29T13:29:39.654Z</time></trkpt><trkpt lat="45.218279" lon="8.5063116"><ele>111.0</ele><time>2026-03-29T13:29:40.656Z</time></trkpt><trkpt lat="45.2182107" lon="8.5063071"><ele>111.0</ele><time>2026-03-29T13:29:41.656Z</time></trkpt><trkpt lat="45.2181331" lon="8.5063024"><ele>111.0</ele><time>2026-03-29T13:29:42.656Z</time></trkpt><trkpt lat="45.2180535" lon="8.5062982"><ele>111.0</ele><time>2026-03-29T13:29:43.665Z</time></trkpt><trkpt lat="45.2179768" lon="8.5062918"><ele>111.0</ele><time>2026-03-29T13:29:44.663Z</time></trkpt><trkpt lat="45.2178975" lon="8.5062851"><ele>111.0</ele><time>2026-03-29T13:29:45.654Z</time></trkpt><trkpt lat="45.2178114" lon="8.5062778"><ele>111.0</ele><time>2026-03-29T13:29:46.657Z</time></trkpt><trkpt lat="45.2177247" lon="8.5062759"><ele>111.0</ele><time>2026-03-29T13:29:47.659Z</time></trkpt><trkpt lat="45.2176417" lon="8.5062706"><ele>111.0</ele><time>2026-03-29T13:29:48.66Z</time></trkpt><trkpt lat="45.2175562" lon="8.5062649"><ele>111.0</ele><time>2026-03-29T13:29:49.657Z</time></trkpt><trkpt lat="45.2174693" lon="8.5062622"><ele>111.0</ele><time>2026-03-29T13:29:50.654Z</time></trkpt><trkpt lat="45.2173856" lon="8.5062574"><ele>111.0</ele><time>2026-03-29T13:29:51.661Z</time></trkpt><trkpt lat="45.2173029" lon="8.506253"><ele>111.0</ele><time>2026-03-29T13:29:52.66Z</time></trkpt><trkpt lat="45.2172227" lon="8.5062478"><ele>111.16666666666667</ele><time>2026-03-29T13:29:53.662Z</time></trkpt><trkpt lat="45.2171397" lon="8.5062418"><ele>111.33333333333334</ele><time>2026-03-29T13:29:54.672Z</time></trkpt><trkpt lat="45.2170578" lon="8.5062384"><ele>111.5</ele><time>2026-03-29T13:29:55.66Z</time></trkpt><trkpt lat="45.2169751" lon="8.5062338"><ele>111.66666666666667</ele><time>2026-03-29T13:29:56.663Z</time></trkpt><trkpt lat="45.2168946" lon="8.5062363"><ele>111.83333333333334</ele><time>2026-03-29T13:29:57.658Z</time></trkpt><trkpt lat="45.2168128" lon="8.5062363"><ele>112.0</ele><time>2026-03-29T13:29:58.65Z</time></trkpt><trkpt lat="45.2167336" lon="8.5062343"><ele>112.00000000000001</ele><time>2026-03-29T13:29:59.655Z</time></trkpt><trkpt lat="45.2166518" lon="8.5062257"><ele>112.0</ele><time>2026-03-29T13:30:00.661Z</time></trkpt><trkpt lat="45.216571" lon="8.5062203"><ele>112.0</ele><time>2026-03-29T13:30:01.666Z</time></trkpt><trkpt lat="45.216492" lon="8.5062116"><ele>112.0</ele><time>2026-03-29T13:30:02.656Z</time></trkpt><trkpt lat="45.2164143" lon="8.5062003"><ele>112.00000000000001</ele><time>2026-03-29T13:30:03.656Z</time></trkpt><trkpt lat="45.2163412" lon="8.5061812"><ele>112.0</ele><time>2026-03-29T13:30:04.658Z</time></trkpt><trkpt lat="45.216274" lon="8.5061683"><ele>111.83333333333334</ele><time>2026-03-29T13:30:05.661Z</time></trkpt><trkpt lat="45.2161688" lon="8.5061072"><ele>111.66666666666667</ele><time>2026-03-29T13:30:07.665Z</time></trkpt><trkpt lat="45.2160972" lon="8.5060469"><ele>111.5</ele><time>2026-03-29T13:30:09.658Z</time></trkpt><trkpt lat="45.2160361" lon="8.506002"><ele>111.33333333333334</ele><time>2026-03-29T13:30:41.664Z</time></trkpt><trkpt lat="45.2159519" lon="8.5059717"><ele>111.16666666666667</ele><time>2026-03-29T13:30:44.659Z</time></trkpt><trkpt lat="45.2158735" lon="8.5059372"><ele>111.0</ele><time>2026-03-29T13:30:46.671Z</time></trkpt><trkpt lat="45.2157802" lon="8.5058932"><ele>111.0</ele><time>2026-03-29T13:30:48.664Z</time></trkpt><trkpt lat="45.2156748" lon="8.5058419"><ele>111.0</ele><time>2026-03-29T13:30:50.666Z</time></trkpt><trkpt lat="45.2155497" lon="8.5057922"><ele>111.0</ele><time>2026-03-29T13:30:52.665Z</time></trkpt><trkpt lat="45.2154801" lon="8.5057735"><ele>111.0</ele><time>2026-03-29T13:30:53.671Z</time></trkpt><trkpt lat="45.2154048" lon="8.5057522"><ele>111.0</ele><time>2026-03-29T13:30:54.663Z</time></trkpt><trkpt lat="45.2153338" lon="8.5057234"><ele>111.16666666666667</ele><time>2026-03-29T13:30:55.656Z</time></trkpt><trkpt lat="45.2152606" lon="8.505683"><ele>111.33333333333334</ele><time>2026-03-29T13:30:56.667Z</time></trkpt><trkpt lat="45.2151872" lon="8.5056327"><ele>111.5</ele><time>2026-03-29T13:30:57.662Z</time></trkpt><trkpt lat="45.2151077" lon="8.5055734"><ele>111.66666666666667</ele><time>2026-03-29T13:30:58.667Z</time></trkpt><trkpt lat="45.2150259" lon="8.5055111"><ele>111.83333333333334</ele><time>2026-03-29T13:30:59.66Z</time></trkpt><trkpt lat="45.2149448" lon="8.5054512"><ele>112.0</ele><time>2026-03-29T13:31:00.664Z</time></trkpt><trkpt lat="45.2148652" lon="8.5053948"><ele>111.83333333333334</ele><time>2026-03-29T13:31:01.657Z</time></trkpt><trkpt lat="45.2147886" lon="8.5053395"><ele>111.66666666666667</ele><time>2026-03-29T13:31:02.663Z</time></trkpt><trkpt lat="45.2147122" lon="8.5052878"><ele>111.5</ele><time>2026-03-29T13:31:03.657Z</time></trkpt><trkpt lat="45.2146347" lon="8.5052351"><ele>111.33333333333334</ele><time>2026-03-29T13:31:04.659Z</time></trkpt><trkpt lat="45.2145541" lon="8.5051917"><ele>111.16666666666667</ele><time>2026-03-29T13:31:05.662Z</time></trkpt><trkpt lat="45.2144719" lon="8.5051615"><ele>111.0</ele><time>2026-03-29T13:31:06.665Z</time></trkpt><trkpt lat="45.2143847" lon="8.5051468"><ele>111.0</ele><time>2026-03-29T13:31:07.671Z</time></trkpt><trkpt lat="45.2142966" lon="8.5051444"><ele>111.0</ele><time>2026-03-29T13:31:08.665Z</time></trkpt><trkpt lat="45.2142056" lon="8.5051477"><ele>111.0</ele><time>2026-03-29T13:31:09.664Z</time></trkpt><trkpt lat="45.2141144" lon="8.5051597"><ele>111.0</ele><time>2026-03-29T13:31:10.669Z</time></trkpt><trkpt lat="45.2140263" lon="8.5051662"><ele>111.0</ele><time>2026-03-29T13:31:11.665Z</time></trkpt><trkpt lat="45.2139364" lon="8.5051762"><ele>111.0</ele><time>2026-03-29T13:31:12.66Z</time></trkpt><trkpt lat="45.2138441" lon="8.5051818"><ele>110.66666666666667</ele><time>2026-03-29T13:31:13.661Z</time></trkpt><trkpt lat="45.2137526" lon="8.5051835"><ele>110.33333333333334</ele><time>2026-03-29T13:31:14.671Z</time></trkpt><trkpt lat="45.2136634" lon="8.5051844"><ele>110.0</ele><time>2026-03-29T13:31:15.663Z</time></trkpt><trkpt lat="45.2135738" lon="8.5051846"><ele>109.66666666666667</ele><time>2026-03-29T13:31:16.668Z</time></trkpt><trkpt lat="45.2134848" lon="8.5051824"><ele>109.33333333333334</ele><time>2026-03-29T13:31:17.664Z</time></trkpt><trkpt lat="45.2133952" lon="8.5051822"><ele>109.0</ele><time>2026-03-29T13:31:18.667Z</time></trkpt><trkpt lat="45.2133062" lon="8.5051756"><ele>109.00000000000001</ele><time>2026-03-29T13:31:19.664Z</time></trkpt><trkpt lat="45.2132185" lon="8.5051661"><ele>109.0</ele><time>2026-03-29T13:31:20.671Z</time></trkpt><trkpt lat="45.2131325" lon="8.5051511"><ele>109.0</ele><time>2026-03-29T13:31:21.667Z</time></trkpt><trkpt lat="45.2130464" lon="8.5051349"><ele>109.0</ele><time>2026-03-29T13:31:22.661Z</time></trkpt><trkpt lat="45.2129606" lon="8.5051118"><ele>109.00000000000001</ele><time>2026-03-29T13:31:23.659Z</time></trkpt><trkpt lat="45.2128723" lon="8.5050923"><ele>109.0</ele><time>2026-03-29T13:31:24.664Z</time></trkpt><trkpt lat="45.2127846" lon="8.5050815"><ele>109.00000000000001</ele><time>2026-03-29T13:31:25.667Z</time></trkpt><trkpt lat="45.212696" lon="8.5050816"><ele>109.0</ele><time>2026-03-29T13:31:26.674Z</time></trkpt><trkpt lat="45.2126063" lon="8.5050924"><ele>109.0</ele><time>2026-03-29T13:31:27.661Z</time></trkpt><trkpt lat="45.2125165" lon="8.5051156"><ele>109.0</ele><time>2026-03-29T13:31:28.665Z</time></trkpt><trkpt lat="45.2124321" lon="8.5051525"><ele>109.00000000000001</ele><time>2026-03-29T13:31:29.665Z</time></trkpt><trkpt lat="45.2123534" lon="8.5052029"><ele>109.0</ele><time>2026-03-29T13:31:30.672Z</time></trkpt><trkpt lat="45.212278" lon="8.5052664"><ele>108.83333333333334</ele><time>2026-03-29T13:31:31.668Z</time></trkpt><trkpt lat="45.2122067" lon="8.5053421"><ele>108.66666666666667</ele><time>2026-03-29T13:31:32.663Z</time></trkpt><trkpt lat="45.2121377" lon="8.5054233"><ele>108.5</ele><time>2026-03-29T13:31:33.665Z</time></trkpt><trkpt lat="45.2120728" lon="8.5055094"><ele>108.33333333333334</ele><time>2026-03-29T13:31:34.659Z</time></trkpt><trkpt lat="45.2120101" lon="8.5055963"><ele>108.16666666666667</ele><time>2026-03-29T13:31:35.66Z</time></trkpt><trkpt lat="45.2119484" lon="8.5056855"><ele>108.0</ele><time>2026-03-29T13:31:36.66Z</time></trkpt><trkpt lat="45.2118851" lon="8.5057738"><ele>108.0</ele><time>2026-03-29T13:31:37.664Z</time></trkpt><trkpt lat="45.211823" lon="8.5058608"><ele>108.0</ele><time>2026-03-29T13:31:38.659Z</time></trkpt><trkpt lat="45.21176" lon="8.5059472"><ele>108.0</ele><time>2026-03-29T13:31:39.665Z</time></trkpt><trkpt lat="45.2116975" lon="8.5060296"><ele>108.0</ele><time>2026-03-29T13:31:40.667Z</time></trkpt><trkpt lat="45.2116353" lon="8.5061144"><ele>108.0</ele><time>2026-03-29T13:31:41.656Z</time></trkpt><trkpt lat="45.2115739" lon="8.5061988"><ele>108.0</ele><time>2026-03-29T13:31:42.665Z</time></trkpt><trkpt lat="45.211513" lon="8.5062813"><ele>108.16666666666667</ele><time>2026-03-29T13:31:43.657Z</time></trkpt><trkpt lat="45.2114543" lon="8.5063664"><ele>108.33333333333334</ele><time>2026-03-29T13:31:44.662Z</time></trkpt><trkpt lat="45.2113945" lon="8.5064505"><ele>108.5</ele><time>2026-03-29T13:31:45.669Z</time></trkpt><trkpt lat="45.211335" lon="8.5065339"><ele>108.66666666666667</ele><time>2026-03-29T13:31:46.661Z</time></trkpt><trkpt lat="45.211272" lon="8.5066175"><ele>108.83333333333334</ele><time>2026-03-29T13:31:47.672Z</time></trkpt><trkpt lat="45.2112104" lon="8.5067014"><ele>109.0</ele><time>2026-03-29T13:31:48.668Z</time></trkpt><trkpt lat="45.2111487" lon="8.506784"><ele>109.00000000000001</ele><time>2026-03-29T13:31:49.66Z</time></trkpt><trkpt lat="45.2110891" lon="8.5068686"><ele>109.0</ele><time>2026-03-29T13:31:50.672Z</time></trkpt><trkpt lat="45.21103" lon="8.5069543"><ele>109.0</ele><time>2026-03-29T13:31:51.66Z</time></trkpt><trkpt lat="45.210965" lon="8.5070358"><ele>109.0</ele><time>2026-03-29T13:31:52.662Z</time></trkpt><trkpt lat="45.2109035" lon="8.5071192"><ele>109.00000000000001</ele><time>2026-03-29T13:31:53.663Z</time></trkpt><trkpt lat="45.2108416" lon="8.5072018"><ele>109.0</ele><time>2026-03-29T13:31:54.658Z</time></trkpt><trkpt lat="45.2107789" lon="8.5072844"><ele>109.00000000000001</ele><time>2026-03-29T13:31:55.669Z</time></trkpt><trkpt lat="45.2107182" lon="8.5073682"><ele>109.0</ele><time>2026-03-29T13:31:56.662Z</time></trkpt><trkpt lat="45.2106544" lon="8.5074499"><ele>109.0</ele><time>2026-03-29T13:31:57.67Z</time></trkpt><trkpt lat="45.2105928" lon="8.507527"><ele>109.0</ele><time>2026-03-29T13:31:58.667Z</time></trkpt><trkpt lat="45.2105285" lon="8.5076035"><ele>109.00000000000001</ele><time>2026-03-29T13:31:59.669Z</time></trkpt><trkpt lat="45.2104654" lon="8.5076826"><ele>109.0</ele><time>2026-03-29T13:32:00.669Z</time></trkpt><trkpt lat="45.2104084" lon="8.5077618"><ele>109.00000000000001</ele><time>2026-03-29T13:32:01.66Z</time></trkpt><trkpt lat="45.2103503" lon="8.507841"><ele>109.0</ele><time>2026-03-29T13:32:02.674Z</time></trkpt><trkpt lat="45.2102928" lon="8.5079179"><ele>109.0</ele><time>2026-03-29T13:32:03.665Z</time></trkpt><trkpt lat="45.2102283" lon="8.5080013"><ele>109.0</ele><time>2026-03-29T13:32:04.665Z</time></trkpt><trkpt lat="45.210162" lon="8.5080878"><ele>109.00000000000001</ele><time>2026-03-29T13:32:05.664Z</time></trkpt><trkpt lat="45.2100919" lon="8.5081732"><ele>109.0</ele><time>2026-03-29T13:32:06.667Z</time></trkpt><trkpt lat="45.2100193" lon="8.5082608"><ele>109.0</ele><time>2026-03-29T13:32:07.663Z</time></trkpt><trkpt lat="45.2099475" lon="8.5083528"><ele>109.0</ele><time>2026-03-29T13:32:08.672Z</time></trkpt><trkpt lat="45.2098787" lon="8.5084415"><ele>109.0</ele><time>2026-03-29T13:32:09.664Z</time></trkpt><trkpt lat="45.2098077" lon="8.508539"><ele>109.0</ele><time>2026-03-29T13:32:10.682Z</time></trkpt><trkpt lat="45.2097404" lon="8.5086341"><ele>109.0</ele><time>2026-03-29T13:32:11.668Z</time></trkpt><trkpt lat="45.2096778" lon="8.508735"><ele>109.0</ele><time>2026-03-29T13:32:12.666Z</time></trkpt><trkpt lat="45.2096189" lon="8.508837"><ele>109.0</ele><time>2026-03-29T13:32:13.664Z</time></trkpt><trkpt lat="45.2095674" lon="8.5089478"><ele>109.0</ele><time>2026-03-29T13:32:14.663Z</time></trkpt><trkpt lat="45.2095215" lon="8.5090671"><ele>109.0</ele><time>2026-03-29T13:32:15.66Z</time></trkpt><trkpt lat="45.2094815" lon="8.5091906"><ele>109.0</ele><time>2026-03-29T13:32:16.666Z</time></trkpt><trkpt lat="45.2094441" lon="8.5093145"><ele>109.0</ele><time>2026-03-29T13:32:17.667Z</time></trkpt><trkpt lat="45.209405" lon="8.5094423"><ele>109.0</ele><time>2026-03-29T13:32:18.66Z</time></trkpt><trkpt lat="45.209367" lon="8.5095711"><ele>109.0</ele><time>2026-03-29T13:32:19.667Z</time></trkpt><trkpt lat="45.2093302" lon="8.509698"><ele>109.0</ele><time>2026-03-29T13:32:20.674Z</time></trkpt><trkpt lat="45.2092942" lon="8.5098235"><ele>109.0</ele><time>2026-03-29T13:32:21.662Z</time></trkpt><trkpt lat="45.2092584" lon="8.5099457"><ele>108.80000000000001</ele><time>2026-03-29T13:32:22.665Z</time></trkpt><trkpt lat="45.2092191" lon="8.5100626"><ele>108.60000000000001</ele><time>2026-03-29T13:32:23.664Z</time></trkpt><trkpt lat="45.209173" lon="8.5101776"><ele>108.4</ele><time>2026-03-29T13:32:24.669Z</time></trkpt><trkpt lat="45.209122" lon="8.5102888"><ele>108.2</ele><time>2026-03-29T13:32:25.668Z</time></trkpt><trkpt lat="45.2090656" lon="8.5103881"><ele>108.0</ele><time>2026-03-29T13:32:26.661Z</time></trkpt><trkpt lat="45.2090035" lon="8.5104854"><ele>108.4</ele><time>2026-03-29T13:32:27.664Z</time></trkpt><trkpt lat="45.2089373" lon="8.5105786"><ele>108.80000000000001</ele><time>2026-03-29T13:32:28.675Z</time></trkpt><trkpt lat="45.2088705" lon="8.5106746"><ele>109.2</ele><time>2026-03-29T13:32:29.682Z</time></trkpt><trkpt lat="45.2088047" lon="8.5107623"><ele>109.6</ele><time>2026-03-29T13:32:30.667Z</time></trkpt><trkpt lat="45.208741" lon="8.5108543"><ele>110.0</ele><time>2026-03-29T13:32:31.675Z</time></trkpt><trkpt lat="45.2086805" lon="8.5109501"><ele>110.0</ele><time>2026-03-29T13:32:32.664Z</time></trkpt><trkpt lat="45.2086257" lon="8.511053"><ele>110.0</ele><time>2026-03-29T13:32:33.661Z</time></trkpt><trkpt lat="45.2085754" lon="8.5111617"><ele>110.0</ele><time>2026-03-29T13:32:34.664Z</time></trkpt><trkpt lat="45.2085294" lon="8.5112782"><ele>110.0</ele><time>2026-03-29T13:32:35.675Z</time></trkpt><trkpt lat="45.2084906" lon="8.5113984"><ele>110.0</ele><time>2026-03-29T13:32:36.666Z</time></trkpt><trkpt lat="45.2084559" lon="8.5115209"><ele>109.8</ele><time>2026-03-29T13:32:37.666Z</time></trkpt><trkpt lat="45.2084222" lon="8.5116454"><ele>109.6</ele><time>2026-03-29T13:32:38.661Z</time></trkpt><trkpt lat="45.2083888" lon="8.5117733"><ele>109.4</ele><time>2026-03-29T13:32:39.664Z</time></trkpt><trkpt lat="45.2083586" lon="8.5118973"><ele>109.2</ele><time>2026-03-29T13:32:40.662Z</time></trkpt><trkpt lat="45.2083287" lon="8.5120232"><ele>109.0</ele><time>2026-03-29T13:32:41.672Z</time></trkpt><trkpt lat="45.2082996" lon="8.5121444"><ele>109.0</ele><time>2026-03-29T13:32:42.663Z</time></trkpt><trkpt lat="45.2082698" lon="8.5122698"><ele>109.0</ele><time>2026-03-29T13:32:43.662Z</time></trkpt><trkpt lat="45.2082379" lon="8.5123951"><ele>109.0</ele><time>2026-03-29T13:32:44.664Z</time></trkpt><trkpt lat="45.2082074" lon="8.5125208"><ele>109.0</ele><time>2026-03-29T13:32:45.665Z</time></trkpt><trkpt lat="45.2081784" lon="8.5126469"><ele>109.0</ele><time>2026-03-29T13:32:46.67Z</time></trkpt><trkpt lat="45.2081476" lon="8.5127708"><ele>109.0</ele><time>2026-03-29T13:32:47.661Z</time></trkpt><trkpt lat="45.2081177" lon="8.5128966"><ele>109.0</ele><time>2026-03-29T13:32:48.666Z</time></trkpt><trkpt lat="45.2080885" lon="8.5130225"><ele>109.0</ele><time>2026-03-29T13:32:49.666Z</time></trkpt><trkpt lat="45.2080595" lon="8.5131478"><ele>109.0</ele><time>2026-03-29T13:32:50.663Z</time></trkpt><trkpt lat="45.2080261" lon="8.5132706"><ele>109.0</ele><time>2026-03-29T13:32:51.667Z</time></trkpt><trkpt lat="45.2079856" lon="8.5133853"><ele>109.0</ele><time>2026-03-29T13:32:52.668Z</time></trkpt><trkpt lat="45.207931" lon="8.513494"><ele>109.0</ele><time>2026-03-29T13:32:53.663Z</time></trkpt><trkpt lat="45.2078703" lon="8.513595"><ele>109.0</ele><time>2026-03-29T13:32:54.667Z</time></trkpt><trkpt lat="45.2078014" lon="8.5136852"><ele>109.0</ele><time>2026-03-29T13:32:55.665Z</time></trkpt><trkpt lat="45.2077281" lon="8.5137674"><ele>109.0</ele><time>2026-03-29T13:32:56.665Z</time></trkpt><trkpt lat="45.2076495" lon="8.513842"><ele>108.80000000000001</ele><time>2026-03-29T13:32:57.665Z</time></trkpt><trkpt lat="45.2075672" lon="8.513911"><ele>108.60000000000001</ele><time>2026-03-29T13:32:58.663Z</time></trkpt><trkpt lat="45.2074812" lon="8.5139703"><ele>108.4</ele><time>2026-03-29T13:32:59.672Z</time></trkpt><trkpt lat="45.2073939" lon="8.5140185"><ele>108.2</ele><time>2026-03-29T13:33:00.661Z</time></trkpt><trkpt lat="45.2073047" lon="8.5140645"><ele>108.0</ele><time>2026-03-29T13:33:01.664Z</time></trkpt><trkpt lat="45.2072165" lon="8.5141106"><ele>107.80000000000001</ele><time>2026-03-29T13:33:02.67Z</time></trkpt><trkpt lat="45.2071276" lon="8.5141595"><ele>107.60000000000001</ele><time>2026-03-29T13:33:03.67Z</time></trkpt><trkpt lat="45.2070396" lon="8.5142088"><ele>107.39999999999999</ele><time>2026-03-29T13:33:04.669Z</time></trkpt><trkpt lat="45.2069507" lon="8.5142606"><ele>107.19999999999999</ele><time>2026-03-29T13:33:05.667Z</time></trkpt><trkpt lat="45.2068609" lon="8.5143113"><ele>107.0</ele><time>2026-03-29T13:33:06.673Z</time></trkpt><trkpt lat="45.2067697" lon="8.5143661"><ele>107.0</ele><time>2026-03-29T13:33:07.667Z</time></trkpt><trkpt lat="45.2066759" lon="8.514418"><ele>106.99999999999999</ele><time>2026-03-29T13:33:08.67Z</time></trkpt><trkpt lat="45.2065828" lon="8.5144692"><ele>106.99999999999999</ele><time>2026-03-29T13:33:09.671Z</time></trkpt><trkpt lat="45.2064912" lon="8.5145202"><ele>107.0</ele><time>2026-03-29T13:33:10.664Z</time></trkpt><trkpt lat="45.2063992" lon="8.5145732"><ele>107.0</ele><time>2026-03-29T13:33:11.665Z</time></trkpt><trkpt lat="45.2063091" lon="8.5146246"><ele>106.8</ele><time>2026-03-29T13:33:12.665Z</time></trkpt><trkpt lat="45.2062245" lon="8.5146746"><ele>106.6</ele><time>2026-03-29T13:33:13.665Z</time></trkpt><trkpt lat="45.206139" lon="8.5147266"><ele>106.39999999999999</ele><time>2026-03-29T13:33:14.666Z</time></trkpt><trkpt lat="45.2060511" lon="8.5147812"><ele>106.19999999999999</ele><time>2026-03-29T13:33:15.672Z</time></trkpt><trkpt lat="45.2059666" lon="8.5148335"><ele>106.0</ele><time>2026-03-29T13:33:16.666Z</time></trkpt><trkpt lat="45.2058822" lon="8.5148874"><ele>106.0</ele><time>2026-03-29T13:33:17.67Z</time></trkpt><trkpt lat="45.2057953" lon="8.5149394"><ele>106.0</ele><time>2026-03-29T13:33:18.662Z</time></trkpt><trkpt lat="45.205708" lon="8.514993"><ele>106.0</ele><time>2026-03-29T13:33:19.664Z</time></trkpt><trkpt lat="45.205625" lon="8.515045"><ele>106.0</ele><time>2026-03-29T13:33:20.665Z</time></trkpt><trkpt lat="45.205543" lon="8.5150949"><ele>106.0</ele><time>2026-03-29T13:33:21.669Z</time></trkpt><trkpt lat="45.2054607" lon="8.5151483"><ele>106.19999999999999</ele><time>2026-03-29T13:33:22.664Z</time></trkpt><trkpt lat="45.2053747" lon="8.5152013"><ele>106.39999999999999</ele><time>2026-03-29T13:33:23.673Z</time></trkpt><trkpt lat="45.205289" lon="8.5152527"><ele>106.6</ele><time>2026-03-29T13:33:24.669Z</time></trkpt><trkpt lat="45.2052033" lon="8.5153033"><ele>106.8</ele><time>2026-03-29T13:33:25.661Z</time></trkpt><trkpt lat="45.2051158" lon="8.5153556"><ele>107.0</ele><time>2026-03-29T13:33:26.678Z</time></trkpt><trkpt lat="45.2050278" lon="8.5154058"><ele>106.8</ele><time>2026-03-29T13:33:27.667Z</time></trkpt><trkpt lat="45.2049394" lon="8.5154495"><ele>106.6</ele><time>2026-03-29T13:33:28.666Z</time></trkpt><trkpt lat="45.2048456" lon="8.5154841"><ele>106.39999999999999</ele><time>2026-03-29T13:33:29.671Z</time></trkpt><trkpt lat="45.204751" lon="8.5155065"><ele>106.19999999999999</ele><time>2026-03-29T13:33:30.669Z</time></trkpt><trkpt lat="45.2046552" lon="8.5155173"><ele>106.0</ele><time>2026-03-29T13:33:31.674Z</time></trkpt><trkpt lat="45.2045567" lon="8.5155214"><ele>106.0</ele><time>2026-03-29T13:33:32.664Z</time></trkpt><trkpt lat="45.2044564" lon="8.5155181"><ele>106.0</ele><time>2026-03-29T13:33:33.661Z</time></trkpt><trkpt lat="45.2043578" lon="8.5155155"><ele>106.0</ele><time>2026-03-29T13:33:34.67Z</time></trkpt><trkpt lat="45.2042597" lon="8.5155113"><ele>106.0</ele><time>2026-03-29T13:33:35.667Z</time></trkpt><trkpt lat="45.2041603" lon="8.5155097"><ele>106.0</ele><time>2026-03-29T13:33:36.673Z</time></trkpt><trkpt lat="45.204063" lon="8.5155133"><ele>106.19999999999999</ele><time>2026-03-29T13:33:37.666Z</time></trkpt><trkpt lat="45.2039637" lon="8.515514"><ele>106.39999999999999</ele><time>2026-03-29T13:33:38.663Z</time></trkpt><trkpt lat="45.203863" lon="8.5155123"><ele>106.6</ele><time>2026-03-29T13:33:39.667Z</time></trkpt><trkpt lat="45.2037633" lon="8.5155094"><ele>106.8</ele><time>2026-03-29T13:33:40.671Z</time></trkpt><trkpt lat="45.2036613" lon="8.5155069"><ele>107.0</ele><time>2026-03-29T13:33:41.674Z</time></trkpt><trkpt lat="45.2035619" lon="8.515504"><ele>107.0</ele><time>2026-03-29T13:33:42.668Z</time></trkpt><trkpt lat="45.203464" lon="8.5154985"><ele>106.99999999999999</ele><time>2026-03-29T13:33:43.672Z</time></trkpt><trkpt lat="45.2033665" lon="8.5154967"><ele>106.99999999999999</ele><time>2026-03-29T13:33:44.67Z</time></trkpt><trkpt lat="45.2032701" lon="8.5154958"><ele>107.0</ele><time>2026-03-29T13:33:45.669Z</time></trkpt><trkpt lat="45.2031757" lon="8.5154944"><ele>107.0</ele><time>2026-03-29T13:33:46.665Z</time></trkpt><trkpt lat="45.2030799" lon="8.5154917"><ele>107.0</ele><time>2026-03-29T13:33:47.666Z</time></trkpt><trkpt lat="45.2029803" lon="8.5154862"><ele>106.99999999999999</ele><time>2026-03-29T13:33:48.672Z</time></trkpt><trkpt lat="45.2028854" lon="8.5154798"><ele>106.99999999999999</ele><time>2026-03-29T13:33:49.663Z</time></trkpt><trkpt lat="45.2027891" lon="8.5154739"><ele>107.0</ele><time>2026-03-29T13:33:50.671Z</time></trkpt><trkpt lat="45.2026903" lon="8.5154725"><ele>107.0</ele><time>2026-03-29T13:33:51.671Z</time></trkpt><trkpt lat="45.2025959" lon="8.5154683"><ele>107.0</ele><time>2026-03-29T13:33:52.666Z</time></trkpt><trkpt lat="45.2024974" lon="8.5154634"><ele>106.99999999999999</ele><time>2026-03-29T13:33:53.673Z</time></trkpt><trkpt lat="45.2024007" lon="8.5154582"><ele>106.99999999999999</ele><time>2026-03-29T13:33:54.67Z</time></trkpt><trkpt lat="45.2023065" lon="8.5154551"><ele>107.0</ele><time>2026-03-29T13:33:55.664Z</time></trkpt><trkpt lat="45.2022119" lon="8.5154509"><ele>107.0</ele><time>2026-03-29T13:33:56.664Z</time></trkpt><trkpt lat="45.2021141" lon="8.5154477"><ele>107.0</ele><time>2026-03-29T13:33:57.669Z</time></trkpt><trkpt lat="45.2020162" lon="8.515444"><ele>106.99999999999999</ele><time>2026-03-29T13:33:58.67Z</time></trkpt><trkpt lat="45.2019194" lon="8.5154386"><ele>106.99999999999999</ele><time>2026-03-29T13:33:59.664Z</time></trkpt><trkpt lat="45.2018224" lon="8.5154346"><ele>107.0</ele><time>2026-03-29T13:34:00.667Z</time></trkpt><trkpt lat="45.2017281" lon="8.5154338"><ele>107.0</ele><time>2026-03-29T13:34:01.665Z</time></trkpt><trkpt lat="45.2016311" lon="8.5154369"><ele>107.0</ele><time>2026-03-29T13:34:02.671Z</time></trkpt><trkpt lat="45.2015351" lon="8.5154363"><ele>106.99999999999999</ele><time>2026-03-29T13:34:03.666Z</time></trkpt><trkpt lat="45.2014382" lon="8.5154336"><ele>106.99999999999999</ele><time>2026-03-29T13:34:04.674Z</time></trkpt><trkpt lat="45.2013434" lon="8.5154296"><ele>107.0</ele><time>2026-03-29T13:34:05.665Z</time></trkpt><trkpt lat="45.2012469" lon="8.5154272"><ele>107.0</ele><time>2026-03-29T13:34:06.666Z</time></trkpt><trkpt lat="45.2011503" lon="8.5154282"><ele>106.8</ele><time>2026-03-29T13:34:07.67Z</time></trkpt><trkpt lat="45.2010548" lon="8.5154282"><ele>106.6</ele><time>2026-03-29T13:34:08.668Z</time></trkpt><trkpt lat="45.2009582" lon="8.5154276"><ele>106.39999999999999</ele><time>2026-03-29T13:34:09.671Z</time></trkpt><trkpt lat="45.2008629" lon="8.5154226"><ele>106.19999999999999</ele><time>2026-03-29T13:34:10.667Z</time></trkpt><trkpt lat="45.2007653" lon="8.5154194"><ele>106.0</ele><time>2026-03-29T13:34:11.674Z</time></trkpt><trkpt lat="45.2006699" lon="8.5154173"><ele>105.8</ele><time>2026-03-29T13:34:12.663Z</time></trkpt><trkpt lat="45.200572" lon="8.5154132"><ele>105.6</ele><time>2026-03-29T13:34:13.663Z</time></trkpt><trkpt lat="45.2004765" lon="8.5154113"><ele>105.4</ele><time>2026-03-29T13:34:14.667Z</time></trkpt><trkpt lat="45.200379" lon="8.5154094"><ele>105.2</ele><time>2026-03-29T13:34:15.667Z</time></trkpt><trkpt lat="45.2002817" lon="8.515408"><ele>105.0</ele><time>2026-03-29T13:34:16.663Z</time></trkpt><trkpt lat="45.2001837" lon="8.5154057"><ele>105.0</ele><time>2026-03-29T13:34:17.671Z</time></trkpt><trkpt lat="45.200087" lon="8.515403"><ele>105.0</ele><time>2026-03-29T13:34:18.68Z</time></trkpt><trkpt lat="45.1999928" lon="8.5154016"><ele>105.0</ele><time>2026-03-29T13:34:19.665Z</time></trkpt><trkpt lat="45.1998959" lon="8.5154013"><ele>105.0</ele><time>2026-03-29T13:34:20.673Z</time></trkpt><trkpt lat="45.1997994" lon="8.5153987"><ele>105.0</ele><time>2026-03-29T13:34:21.665Z</time></trkpt><trkpt lat="45.1997029" lon="8.5153951"><ele>105.0</ele><time>2026-03-29T13:34:22.665Z</time></trkpt><trkpt lat="45.1996033" lon="8.5153937"><ele>105.0</ele><time>2026-03-29T13:34:23.666Z</time></trkpt><trkpt lat="45.199504" lon="8.5153938"><ele>105.0</ele><time>2026-03-29T13:34:24.667Z</time></trkpt><trkpt lat="45.1994025" lon="8.515399"><ele>105.0</ele><time>2026-03-29T13:34:25.674Z</time></trkpt><trkpt lat="45.1993057" lon="8.5154011"><ele>105.0</ele><time>2026-03-29T13:34:26.665Z</time></trkpt><trkpt lat="45.1992048" lon="8.5154046"><ele>105.0</ele><time>2026-03-29T13:34:27.671Z</time></trkpt><trkpt lat="45.1991058" lon="8.51541"><ele>105.0</ele><time>2026-03-29T13:34:28.665Z</time></trkpt><trkpt lat="45.1990079" lon="8.515417"><ele>105.0</ele><time>2026-03-29T13:34:29.674Z</time></trkpt><trkpt lat="45.1989104" lon="8.5154258"><ele>105.0</ele><time>2026-03-29T13:34:30.673Z</time></trkpt><trkpt lat="45.1988121" lon="8.5154352"><ele>105.0</ele><time>2026-03-29T13:34:31.67Z</time></trkpt><trkpt lat="45.1987148" lon="8.5154431"><ele>105.4</ele><time>2026-03-29T13:34:32.665Z</time></trkpt><trkpt lat="45.198617" lon="8.5154548"><ele>105.8</ele><time>2026-03-29T13:34:33.669Z</time></trkpt><trkpt lat="45.1985215" lon="8.5154658"><ele>106.19999999999999</ele><time>2026-03-29T13:34:34.666Z</time></trkpt><trkpt lat="45.1984242" lon="8.515481"><ele>106.6</ele><time>2026-03-29T13:34:35.668Z</time></trkpt><trkpt lat="45.198326" lon="8.5154996"><ele>107.0</ele><time>2026-03-29T13:34:36.673Z</time></trkpt><trkpt lat="45.1982312" lon="8.5155177"><ele>106.8</ele><time>2026-03-29T13:34:37.669Z</time></trkpt><trkpt lat="45.1981342" lon="8.5155381"><ele>106.6</ele><time>2026-03-29T13:34:38.665Z</time></trkpt><trkpt lat="45.1980374" lon="8.5155615"><ele>106.39999999999999</ele><time>2026-03-29T13:34:39.683Z</time></trkpt><trkpt lat="45.1979423" lon="8.5155895"><ele>106.19999999999999</ele><time>2026-03-29T13:34:40.665Z</time></trkpt><trkpt lat="45.1978438" lon="8.5156219"><ele>106.0</ele><time>2026-03-29T13:34:41.679Z</time></trkpt><trkpt lat="45.1977494" lon="8.515657"><ele>106.0</ele><time>2026-03-29T13:34:42.676Z</time></trkpt><trkpt lat="45.1976559" lon="8.5156961"><ele>106.0</ele><time>2026-03-29T13:34:43.668Z</time></trkpt><trkpt lat="45.1975677" lon="8.5157476"><ele>106.0</ele><time>2026-03-29T13:34:44.672Z</time></trkpt><trkpt lat="45.1974876" lon="8.5158065"><ele>106.0</ele><time>2026-03-29T13:34:45.675Z</time></trkpt><trkpt lat="45.1974117" lon="8.5158772"><ele>106.0</ele><time>2026-03-29T13:34:46.671Z</time></trkpt><trkpt lat="45.1973391" lon="8.5159634"><ele>105.8</ele><time>2026-03-29T13:34:47.671Z</time></trkpt><trkpt lat="45.1972717" lon="8.5160561"><ele>105.6</ele><time>2026-03-29T13:34:48.669Z</time></trkpt><trkpt lat="45.1972022" lon="8.5161564"><ele>105.4</ele><time>2026-03-29T13:34:49.656Z</time></trkpt><trkpt lat="45.1971391" lon="8.5162533"><ele>105.2</ele><time>2026-03-29T13:34:50.675Z</time></trkpt><trkpt lat="45.1970793" lon="8.5163497"><ele>105.0</ele><time>2026-03-29T13:34:51.669Z</time></trkpt><trkpt lat="45.1970186" lon="8.5164471"><ele>105.0</ele><time>2026-03-29T13:34:52.665Z</time></trkpt><trkpt lat="45.1969588" lon="8.5165451"><ele>105.0</ele><time>2026-03-29T13:34:53.669Z</time></trkpt><trkpt lat="45.1968991" lon="8.5166448"><ele>105.0</ele><time>2026-03-29T13:34:54.678Z</time></trkpt><trkpt lat="45.1968382" lon="8.5167405"><ele>105.0</ele><time>2026-03-29T13:34:55.679Z</time></trkpt><trkpt lat="45.1967767" lon="8.5168373"><ele>105.0</ele><time>2026-03-29T13:34:56.668Z</time></trkpt><trkpt lat="45.1967147" lon="8.5169358"><ele>105.0</ele><time>2026-03-29T13:34:57.667Z</time></trkpt><trkpt lat="45.1966523" lon="8.5170275"><ele>105.0</ele><time>2026-03-29T13:34:58.669Z</time></trkpt><trkpt lat="45.1965893" lon="8.5171183"><ele>105.0</ele><time>2026-03-29T13:34:59.673Z</time></trkpt><trkpt lat="45.1965238" lon="8.5172114"><ele>105.0</ele><time>2026-03-29T13:35:00.67Z</time></trkpt><trkpt lat="45.1964585" lon="8.5173058"><ele>105.0</ele><time>2026-03-29T13:35:01.669Z</time></trkpt><trkpt lat="45.1963929" lon="8.5173982"><ele>105.4</ele><time>2026-03-29T13:35:02.674Z</time></trkpt><trkpt lat="45.1963234" lon="8.5174876"><ele>105.8</ele><time>2026-03-29T13:35:03.677Z</time></trkpt><trkpt lat="45.1962509" lon="8.5175715"><ele>106.19999999999999</ele><time>2026-03-29T13:35:04.67Z</time></trkpt><trkpt lat="45.196176" lon="8.5176475"><ele>106.6</ele><time>2026-03-29T13:35:05.663Z</time></trkpt><trkpt lat="45.1960984" lon="8.5177123"><ele>107.0</ele><time>2026-03-29T13:35:06.667Z</time></trkpt><trkpt lat="45.1960252" lon="8.5177687"><ele>106.99999999999999</ele><time>2026-03-29T13:35:07.671Z</time></trkpt><trkpt lat="45.1959519" lon="8.5178206"><ele>107.0</ele><time>2026-03-29T13:35:08.67Z</time></trkpt><trkpt lat="45.1958766" lon="8.5178668"><ele>107.0</ele><time>2026-03-29T13:35:09.665Z</time></trkpt><trkpt lat="45.1958015" lon="8.5179087"><ele>107.0</ele><time>2026-03-29T13:35:10.669Z</time></trkpt><trkpt lat="45.1957265" lon="8.5179455"><ele>106.99999999999999</ele><time>2026-03-29T13:35:11.668Z</time></trkpt><trkpt lat="45.1956505" lon="8.517979"><ele>107.0</ele><time>2026-03-29T13:35:12.666Z</time></trkpt><trkpt lat="45.1955698" lon="8.5180169"><ele>107.16666666666666</ele><time>2026-03-29T13:35:13.664Z</time></trkpt><trkpt lat="45.1954891" lon="8.5180545"><ele>107.33333333333333</ele><time>2026-03-29T13:35:14.667Z</time></trkpt><trkpt lat="45.1954069" lon="8.5180825"><ele>107.5</ele><time>2026-03-29T13:35:15.671Z</time></trkpt><trkpt lat="45.195321" lon="8.518108"><ele>107.66666666666666</ele><time>2026-03-29T13:35:16.697Z</time></trkpt><trkpt lat="45.1952391" lon="8.5181328"><ele>107.83333333333333</ele><time>2026-03-29T13:35:17.672Z</time></trkpt><trkpt lat="45.1951501" lon="8.5181573"><ele>108.0</ele><time>2026-03-29T13:35:18.665Z</time></trkpt><trkpt lat="45.1950674" lon="8.5181705"><ele>108.0</ele><time>2026-03-29T13:35:19.672Z</time></trkpt><trkpt lat="45.1949902" lon="8.518175"><ele>108.0</ele><time>2026-03-29T13:35:20.668Z</time></trkpt><trkpt lat="45.1949141" lon="8.518187"><ele>108.0</ele><time>2026-03-29T13:35:21.673Z</time></trkpt><trkpt lat="45.1948334" lon="8.518202"><ele>108.0</ele><time>2026-03-29T13:35:22.662Z</time></trkpt><trkpt lat="45.1947479" lon="8.5182193"><ele>108.0</ele><time>2026-03-29T13:35:23.666Z</time></trkpt><trkpt lat="45.1946649" lon="8.5182331"><ele>108.0</ele><time>2026-03-29T13:35:24.671Z</time></trkpt><trkpt lat="45.1945813" lon="8.5182483"><ele>108.16666666666667</ele><time>2026-03-29T13:35:25.669Z</time></trkpt><trkpt lat="45.194495" lon="8.5182594"><ele>108.33333333333334</ele><time>2026-03-29T13:35:26.674Z</time></trkpt><trkpt lat="45.1944153" lon="8.5182658"><ele>108.5</ele><time>2026-03-29T13:35:27.665Z</time></trkpt><trkpt lat="45.1943396" lon="8.5182693"><ele>108.66666666666667</ele><time>2026-03-29T13:35:28.668Z</time></trkpt><trkpt lat="45.1942677" lon="8.5182637"><ele>108.83333333333334</ele><time>2026-03-29T13:35:29.666Z</time></trkpt><trkpt lat="45.1942003" lon="8.5182482"><ele>109.0</ele><time>2026-03-29T13:35:30.666Z</time></trkpt><trkpt lat="45.1941322" lon="8.5182329"><ele>109.00000000000001</ele><time>2026-03-29T13:35:31.673Z</time></trkpt><trkpt lat="45.1940641" lon="8.5182159"><ele>109.0</ele><time>2026-03-29T13:35:32.671Z</time></trkpt><trkpt lat="45.1939905" lon="8.5181957"><ele>109.0</ele><time>2026-03-29T13:35:33.669Z</time></trkpt><trkpt lat="45.1939104" lon="8.518174"><ele>109.0</ele><time>2026-03-29T13:35:34.671Z</time></trkpt><trkpt lat="45.1938346" lon="8.5181411"><ele>109.00000000000001</ele><time>2026-03-29T13:35:35.674Z</time></trkpt><trkpt lat="45.1937579" lon="8.5181065"><ele>109.0</ele><time>2026-03-29T13:35:36.663Z</time></trkpt><trkpt lat="45.1936841" lon="8.5180744"><ele>108.85714285714286</ele><time>2026-03-29T13:35:37.67Z</time></trkpt><trkpt lat="45.1936087" lon="8.5180656"><ele>108.71428571428572</ele><time>2026-03-29T13:35:38.666Z</time></trkpt><trkpt lat="45.1935401" lon="8.5180643"><ele>108.57142857142857</ele><time>2026-03-29T13:35:39.66Z</time></trkpt><trkpt lat="45.193469" lon="8.51806"><ele>108.42857142857143</ele><time>2026-03-29T13:35:40.663Z</time></trkpt><trkpt lat="45.1933997" lon="8.518063"><ele>108.28571428571428</ele><time>2026-03-29T13:35:41.668Z</time></trkpt><trkpt lat="45.1933295" lon="8.5180683"><ele>108.14285714285714</ele><time>2026-03-29T13:35:42.674Z</time></trkpt><trkpt lat="45.1932602" lon="8.5180739"><ele>108.0</ele><time>2026-03-29T13:35:43.668Z</time></trkpt><trkpt lat="45.1931331" lon="8.5180583"><ele>107.71428571428571</ele><time>2026-03-29T13:35:45.667Z</time></trkpt><trkpt lat="45.1930655" lon="8.5180452"><ele>107.42857142857142</ele><time>2026-03-29T13:35:46.67Z</time></trkpt><trkpt lat="45.193" lon="8.5180279"><ele>107.14285714285714</ele><time>2026-03-29T13:35:47.673Z</time></trkpt><trkpt lat="45.1929292" lon="8.5180108"><ele>106.85714285714286</ele><time>2026-03-29T13:35:48.666Z</time></trkpt><trkpt lat="45.1928539" lon="8.5180052"><ele>106.57142857142857</ele><time>2026-03-29T13:35:49.669Z</time></trkpt><trkpt lat="45.1927777" lon="8.5179984"><ele>106.28571428571429</ele><time>2026-03-29T13:35:50.674Z</time></trkpt><trkpt lat="45.1927092" lon="8.5179838"><ele>106.0</ele><time>2026-03-29T13:35:51.667Z</time></trkpt><trkpt lat="45.1926351" lon="8.5179722"><ele>106.00000000000001</ele><time>2026-03-29T13:35:52.666Z</time></trkpt><trkpt lat="45.1925568" lon="8.5179578"><ele>106.0</ele><time>2026-03-29T13:35:53.673Z</time></trkpt><trkpt lat="45.1924728" lon="8.5179457"><ele>106.0</ele><time>2026-03-29T13:35:54.667Z</time></trkpt><trkpt lat="45.1923896" lon="8.5179335"><ele>106.0</ele><time>2026-03-29T13:35:55.67Z</time></trkpt><trkpt lat="45.1923168" lon="8.5179147"><ele>106.00000000000001</ele><time>2026-03-29T13:35:56.671Z</time></trkpt><trkpt lat="45.1922487" lon="8.5179075"><ele>106.0</ele><time>2026-03-29T13:35:57.661Z</time></trkpt><trkpt lat="45.1921803" lon="8.5178948"><ele>105.85714285714286</ele><time>2026-03-29T13:35:58.677Z</time></trkpt><trkpt lat="45.1921156" lon="8.5178848"><ele>105.71428571428571</ele><time>2026-03-29T13:35:59.671Z</time></trkpt><trkpt lat="45.1920464" lon="8.51787"><ele>105.57142857142857</ele><time>2026-03-29T13:36:00.666Z</time></trkpt><trkpt lat="45.1919723" lon="8.5178532"><ele>105.42857142857143</ele><time>2026-03-29T13:36:01.666Z</time></trkpt><trkpt lat="45.1918935" lon="8.5178377"><ele>105.28571428571428</ele><time>2026-03-29T13:36:02.673Z</time></trkpt><trkpt lat="45.1918151" lon="8.5178161"><ele>105.14285714285714</ele><time>2026-03-29T13:36:03.669Z</time></trkpt><trkpt lat="45.1917388" lon="8.5178038"><ele>105.0</ele><time>2026-03-29T13:36:04.675Z</time></trkpt><trkpt lat="45.1916713" lon="8.5177925"><ele>105.0</ele><time>2026-03-29T13:36:05.672Z</time></trkpt><trkpt lat="45.1915649" lon="8.5177771"><ele>105.0</ele><time>2026-03-29T13:36:07.676Z</time></trkpt><trkpt lat="45.1914987" lon="8.5177727"><ele>105.0</ele><time>2026-03-29T13:36:09.669Z</time></trkpt><trkpt lat="45.1914765" lon="8.5178759"><ele>105.0</ele><time>2026-03-29T13:36:12.665Z</time></trkpt><trkpt lat="45.1914904" lon="8.5180433"><ele>105.0</ele><time>2026-03-29T13:36:14.665Z</time></trkpt><trkpt lat="45.191502" lon="8.5182057"><ele>105.16666666666667</ele><time>2026-03-29T13:36:16.671Z</time></trkpt><trkpt lat="45.1915117" lon="8.5183093"><ele>105.33333333333334</ele><time>2026-03-29T13:36:18.677Z</time></trkpt><trkpt lat="45.1915252" lon="8.5184342"><ele>105.5</ele><time>2026-03-29T13:36:20.673Z</time></trkpt><trkpt lat="45.1915406" lon="8.5185993"><ele>105.66666666666667</ele><time>2026-03-29T13:36:22.669Z</time></trkpt><trkpt lat="45.1915468" lon="8.5186893"><ele>105.83333333333334</ele><time>2026-03-29T13:36:23.667Z</time></trkpt><trkpt lat="45.1915559" lon="8.5187829"><ele>106.0</ele><time>2026-03-29T13:36:24.663Z</time></trkpt><trkpt lat="45.1915671" lon="8.5188798"><ele>106.14285714285715</ele><time>2026-03-29T13:36:25.668Z</time></trkpt><trkpt lat="45.1915817" lon="8.5189786"><ele>106.28571428571428</ele><time>2026-03-29T13:36:26.663Z</time></trkpt><trkpt lat="45.1915915" lon="8.5190791"><ele>106.42857142857143</ele><time>2026-03-29T13:36:27.674Z</time></trkpt><trkpt lat="45.1915964" lon="8.5191803"><ele>106.57142857142858</ele><time>2026-03-29T13:36:28.666Z</time></trkpt><trkpt lat="45.1916028" lon="8.5192739"><ele>106.71428571428572</ele><time>2026-03-29T13:36:29.671Z</time></trkpt><trkpt lat="45.191613" lon="8.5193684"><ele>106.85714285714286</ele><time>2026-03-29T13:36:30.67Z</time></trkpt><trkpt lat="45.1916184" lon="8.5194597"><ele>107.0</ele><time>2026-03-29T13:36:31.669Z</time></trkpt><trkpt lat="45.1916199" lon="8.5195492"><ele>107.0</ele><time>2026-03-29T13:36:32.671Z</time></trkpt><trkpt lat="45.1916271" lon="8.5196393"><ele>106.99999999999999</ele><time>2026-03-29T13:36:33.679Z</time></trkpt><trkpt lat="45.1916473" lon="8.5198119"><ele>106.99999999999999</ele><time>2026-03-29T13:36:35.674Z</time></trkpt><trkpt lat="45.1916712" lon="8.51998"><ele>107.0</ele><time>2026-03-29T13:36:37.67Z</time></trkpt><trkpt lat="45.1916697" lon="8.5201158"><ele>107.0</ele><time>2026-03-29T13:36:39.677Z</time></trkpt><trkpt lat="45.1916038" lon="8.5201405"><ele>106.6</ele><time>2026-03-29T13:36:41.676Z</time></trkpt><trkpt lat="45.1915016" lon="8.5201494"><ele>106.19999999999999</ele><time>2026-03-29T13:36:43.668Z</time></trkpt><trkpt lat="45.1914297" lon="8.520151"><ele>105.8</ele><time>2026-03-29T13:36:44.681Z</time></trkpt><trkpt lat="45.1913023" lon="8.5201641"><ele>105.4</ele><time>2026-03-29T13:36:46.683Z</time></trkpt><trkpt lat="45.1912264" lon="8.5201802"><ele>105.0</ele><time>2026-03-29T13:36:47.675Z</time></trkpt><trkpt lat="45.1911495" lon="8.5202048"><ele>105.0</ele><time>2026-03-29T13:36:48.673Z</time></trkpt><trkpt lat="45.1910725" lon="8.5202254"><ele>105.0</ele><time>2026-03-29T13:36:49.672Z</time></trkpt><trkpt lat="45.1909951" lon="8.520251"><ele>105.0</ele><time>2026-03-29T13:36:50.69Z</time></trkpt><trkpt lat="45.1909149" lon="8.5202774"><ele>105.0</ele><time>2026-03-29T13:36:51.674Z</time></trkpt><trkpt lat="45.1908367" lon="8.5203056"><ele>105.0</ele><time>2026-03-29T13:36:52.67Z</time></trkpt><trkpt lat="45.1907647" lon="8.5203386"><ele>105.0</ele><time>2026-03-29T13:36:53.669Z</time></trkpt><trkpt lat="45.1906966" lon="8.5203683"><ele>104.83333333333333</ele><time>2026-03-29T13:36:54.67Z</time></trkpt><trkpt lat="45.1906215" lon="8.5203932"><ele>104.66666666666666</ele><time>2026-03-29T13:36:55.674Z</time></trkpt><trkpt lat="45.190554" lon="8.5204252"><ele>104.5</ele><time>2026-03-29T13:36:56.682Z</time></trkpt><trkpt lat="45.1904881" lon="8.5204655"><ele>104.33333333333333</ele><time>2026-03-29T13:36:57.671Z</time></trkpt><trkpt lat="45.1904245" lon="8.5205161"><ele>104.16666666666666</ele><time>2026-03-29T13:36:58.67Z</time></trkpt><trkpt lat="45.1903599" lon="8.5205788"><ele>104.0</ele><time>2026-03-29T13:36:59.672Z</time></trkpt><trkpt lat="45.190303" lon="8.5206574"><ele>103.99999999999999</ele><time>2026-03-29T13:37:00.678Z</time></trkpt><trkpt lat="45.1902526" lon="8.5207495"><ele>104.0</ele><time>2026-03-29T13:37:01.674Z</time></trkpt><trkpt lat="45.1902079" lon="8.5208538"><ele>104.0</ele><time>2026-03-29T13:37:02.674Z</time></trkpt><trkpt lat="45.1901693" lon="8.5209684"><ele>104.0</ele><time>2026-03-29T13:37:03.667Z</time></trkpt><trkpt lat="45.1901278" lon="8.5210834"><ele>103.99999999999999</ele><time>2026-03-29T13:37:04.666Z</time></trkpt><trkpt lat="45.1900811" lon="8.5211843"><ele>104.0</ele><time>2026-03-29T13:37:05.677Z</time></trkpt><trkpt lat="45.1900195" lon="8.521277"><ele>104.16666666666666</ele><time>2026-03-29T13:37:06.677Z</time></trkpt><trkpt lat="45.1899437" lon="8.5213497"><ele>104.33333333333333</ele><time>2026-03-29T13:37:07.674Z</time></trkpt><trkpt lat="45.1898613" lon="8.5213993"><ele>104.5</ele><time>2026-03-29T13:37:08.674Z</time></trkpt><trkpt lat="45.1897758" lon="8.5214313"><ele>104.66666666666666</ele><time>2026-03-29T13:37:09.669Z</time></trkpt><trkpt lat="45.189701" lon="8.5214509"><ele>104.83333333333333</ele><time>2026-03-29T13:37:10.676Z</time></trkpt><trkpt lat="45.18962" lon="8.5214681"><ele>105.0</ele><time>2026-03-29T13:37:11.672Z</time></trkpt><trkpt lat="45.1895384" lon="8.5214878"><ele>104.66666666666667</ele><time>2026-03-29T13:37:12.671Z</time></trkpt><trkpt lat="45.1894566" lon="8.5215152"><ele>104.33333333333334</ele><time>2026-03-29T13:37:13.678Z</time></trkpt><trkpt lat="45.1893731" lon="8.521541"><ele>104.0</ele><time>2026-03-29T13:37:14.673Z</time></trkpt><trkpt lat="45.189284" lon="8.5215664"><ele>103.66666666666667</ele><time>2026-03-29T13:37:15.671Z</time></trkpt><trkpt lat="45.1891964" lon="8.5215924"><ele>103.33333333333334</ele><time>2026-03-29T13:37:16.673Z</time></trkpt><trkpt lat="45.1891077" lon="8.521616"><ele>103.0</ele><time>2026-03-29T13:37:17.672Z</time></trkpt><trkpt lat="45.1890161" lon="8.5216374"><ele>103.2</ele><time>2026-03-29T13:37:18.672Z</time></trkpt><trkpt lat="45.188924" lon="8.5216639"><ele>103.4</ele><time>2026-03-29T13:37:19.669Z</time></trkpt><trkpt lat="45.1888311" lon="8.5216919"><ele>103.60000000000001</ele><time>2026-03-29T13:37:20.669Z</time></trkpt><trkpt lat="45.1887389" lon="8.5217177"><ele>103.80000000000001</ele><time>2026-03-29T13:37:21.674Z</time></trkpt><trkpt lat="45.1886481" lon="8.5217409"><ele>104.0</ele><time>2026-03-29T13:37:22.671Z</time></trkpt><trkpt lat="45.1885561" lon="8.5217651"><ele>104.0</ele><time>2026-03-29T13:37:23.669Z</time></trkpt><trkpt lat="45.1884621" lon="8.5217866"><ele>104.0</ele><time>2026-03-29T13:37:24.68Z</time></trkpt><trkpt lat="45.1883697" lon="8.5218078"><ele>104.0</ele><time>2026-03-29T13:37:25.677Z</time></trkpt><trkpt lat="45.1882767" lon="8.5218253"><ele>104.0</ele><time>2026-03-29T13:37:26.679Z</time></trkpt><trkpt lat="45.1881828" lon="8.5218468"><ele>104.0</ele><time>2026-03-29T13:37:27.668Z</time></trkpt><trkpt lat="45.1880865" lon="8.521866"><ele>104.0</ele><time>2026-03-29T13:37:28.68Z</time></trkpt><trkpt lat="45.1879907" lon="8.5218894"><ele>104.0</ele><time>2026-03-29T13:37:29.677Z</time></trkpt><trkpt lat="45.1878943" lon="8.5219053"><ele>104.0</ele><time>2026-03-29T13:37:30.671Z</time></trkpt><trkpt lat="45.1877949" lon="8.5219244"><ele>104.0</ele><time>2026-03-29T13:37:31.676Z</time></trkpt><trkpt lat="45.1877003" lon="8.5219444"><ele>104.0</ele><time>2026-03-29T13:37:32.676Z</time></trkpt><trkpt lat="45.1876034" lon="8.5219634"><ele>104.0</ele><time>2026-03-29T13:37:33.679Z</time></trkpt><trkpt lat="45.1875065" lon="8.5219845"><ele>104.0</ele><time>2026-03-29T13:37:34.674Z</time></trkpt><trkpt lat="45.1874103" lon="8.5220064"><ele>104.0</ele><time>2026-03-29T13:37:35.668Z</time></trkpt><trkpt lat="45.1873075" lon="8.5220251"><ele>104.0</ele><time>2026-03-29T13:37:36.684Z</time></trkpt><trkpt lat="45.1872062" lon="8.5220445"><ele>104.0</ele><time>2026-03-29T13:37:37.673Z</time></trkpt><trkpt lat="45.1871032" lon="8.5220607"><ele>103.80000000000001</ele><time>2026-03-29T13:37:38.683Z</time></trkpt><trkpt lat="45.1870027" lon="8.5220821"><ele>103.60000000000001</ele><time>2026-03-29T13:37:39.677Z</time></trkpt><trkpt lat="45.1869009" lon="8.5221035"><ele>103.4</ele><time>2026-03-29T13:37:40.676Z</time></trkpt><trkpt lat="45.1867997" lon="8.5221292"><ele>103.2</ele><time>2026-03-29T13:37:41.677Z</time></trkpt><trkpt lat="45.1866998" lon="8.5221548"><ele>103.0</ele><time>2026-03-29T13:37:42.674Z</time></trkpt><trkpt lat="45.1865959" lon="8.5221851"><ele>103.0</ele><time>2026-03-29T13:37:43.696Z</time></trkpt><trkpt lat="45.1864973" lon="8.5222121"><ele>103.0</ele><time>2026-03-29T13:37:44.668Z</time></trkpt><trkpt lat="45.1863986" lon="8.5222406"><ele>103.0</ele><time>2026-03-29T13:37:45.673Z</time></trkpt><trkpt lat="45.1863055" lon="8.5222596"><ele>103.0</ele><time>2026-03-29T13:37:46.676Z</time></trkpt><trkpt lat="45.1862182" lon="8.5222731"><ele>103.0</ele><time>2026-03-29T13:37:47.673Z</time></trkpt><trkpt lat="45.1861325" lon="8.5222727"><ele>103.0</ele><time>2026-03-29T13:37:48.7Z</time></trkpt><trkpt lat="45.186054" lon="8.5222476"><ele>103.0</ele><time>2026-03-29T13:37:49.67Z</time></trkpt><trkpt lat="45.185973" lon="8.5221979"><ele>103.0</ele><time>2026-03-29T13:37:50.671Z</time></trkpt><trkpt lat="45.1858977" lon="8.5221203"><ele>103.0</ele><time>2026-03-29T13:37:51.677Z</time></trkpt><trkpt lat="45.1858299" lon="8.52202"><ele>103.0</ele><time>2026-03-29T13:37:52.674Z</time></trkpt><trkpt lat="45.1857779" lon="8.5218988"><ele>103.0</ele><time>2026-03-29T13:37:53.68Z</time></trkpt><trkpt lat="45.1857397" lon="8.5217638"><ele>103.0</ele><time>2026-03-29T13:37:54.681Z</time></trkpt><trkpt lat="45.185709" lon="8.5216287"><ele>103.0</ele><time>2026-03-29T13:37:55.668Z</time></trkpt><trkpt lat="45.1856855" lon="8.5214893"><ele>103.0</ele><time>2026-03-29T13:37:56.677Z</time></trkpt><trkpt lat="45.1856645" lon="8.5213521"><ele>103.0</ele><time>2026-03-29T13:37:57.677Z</time></trkpt><trkpt lat="45.1856495" lon="8.5212157"><ele>103.0</ele><time>2026-03-29T13:37:58.673Z</time></trkpt><trkpt lat="45.1856365" lon="8.5210754"><ele>103.0</ele><time>2026-03-29T13:37:59.674Z</time></trkpt><trkpt lat="45.1856263" lon="8.5209308"><ele>103.0</ele><time>2026-03-29T13:38:00.673Z</time></trkpt><trkpt lat="45.1856201" lon="8.5207868"><ele>103.0</ele><time>2026-03-29T13:38:01.673Z</time></trkpt><trkpt lat="45.1856165" lon="8.5206433"><ele>103.0</ele><time>2026-03-29T13:38:02.675Z</time></trkpt><trkpt lat="45.1856164" lon="8.5205016"><ele>103.0</ele><time>2026-03-29T13:38:03.676Z</time></trkpt><trkpt lat="45.1856125" lon="8.5203604"><ele>103.0</ele><time>2026-03-29T13:38:04.691Z</time></trkpt><trkpt lat="45.1856108" lon="8.5202223"><ele>103.0</ele><time>2026-03-29T13:38:05.672Z</time></trkpt><trkpt lat="45.1856045" lon="8.5200852"><ele>103.0</ele><time>2026-03-29T13:38:06.671Z</time></trkpt><trkpt lat="45.1855941" lon="8.5199448"><ele>103.0</ele><time>2026-03-29T13:38:07.678Z</time></trkpt><trkpt lat="45.1855845" lon="8.5198033"><ele>103.0</ele><time>2026-03-29T13:38:08.678Z</time></trkpt><trkpt lat="45.1855716" lon="8.51966"><ele>103.0</ele><time>2026-03-29T13:38:09.689Z</time></trkpt><trkpt lat="45.1855579" lon="8.51952"><ele>103.0</ele><time>2026-03-29T13:38:10.678Z</time></trkpt><trkpt lat="45.1855425" lon="8.5193753"><ele>103.0</ele><time>2026-03-29T13:38:11.701Z</time></trkpt><trkpt lat="45.1855269" lon="8.5192355"><ele>103.0</ele><time>2026-03-29T13:38:12.673Z</time></trkpt><trkpt lat="45.1855101" lon="8.5190895"><ele>103.2</ele><time>2026-03-29T13:38:13.67Z</time></trkpt><trkpt lat="45.1854939" lon="8.5189427"><ele>103.4</ele><time>2026-03-29T13:38:14.676Z</time></trkpt><trkpt lat="45.1854765" lon="8.5187991"><ele>103.60000000000001</ele><time>2026-03-29T13:38:15.674Z</time></trkpt><trkpt lat="45.1854637" lon="8.5186543"><ele>103.80000000000001</ele><time>2026-03-29T13:38:16.68Z</time></trkpt><trkpt lat="45.1854505" lon="8.5185082"><ele>104.0</ele><time>2026-03-29T13:38:17.671Z</time></trkpt><trkpt lat="45.1854389" lon="8.5183608"><ele>104.2</ele><time>2026-03-29T13:38:18.682Z</time></trkpt><trkpt lat="45.185425" lon="8.5182165"><ele>104.4</ele><time>2026-03-29T13:38:19.673Z</time></trkpt><trkpt lat="45.1854066" lon="8.5180705"><ele>104.6</ele><time>2026-03-29T13:38:20.676Z</time></trkpt><trkpt lat="45.1853875" lon="8.517928"><ele>104.8</ele><time>2026-03-29T13:38:21.678Z</time></trkpt><trkpt lat="45.185363" lon="8.5177871"><ele>105.0</ele><time>2026-03-29T13:38:22.677Z</time></trkpt><trkpt lat="45.1853315" lon="8.5176497"><ele>104.6</ele><time>2026-03-29T13:38:23.675Z</time></trkpt><trkpt lat="45.1852881" lon="8.5175293"><ele>104.2</ele><time>2026-03-29T13:38:24.674Z</time></trkpt><trkpt lat="45.1852317" lon="8.5174244"><ele>103.80000000000001</ele><time>2026-03-29T13:38:25.684Z</time></trkpt><trkpt lat="45.1851623" lon="8.5173435"><ele>103.4</ele><time>2026-03-29T13:38:26.669Z</time></trkpt><trkpt lat="45.185077" lon="8.5172828"><ele>103.0</ele><time>2026-03-29T13:38:27.679Z</time></trkpt><trkpt lat="45.184987" lon="8.5172452"><ele>103.0</ele><time>2026-03-29T13:38:28.676Z</time></trkpt><trkpt lat="45.1848902" lon="8.5172352"><ele>103.0</ele><time>2026-03-29T13:38:29.676Z</time></trkpt><trkpt lat="45.1847924" lon="8.5172463"><ele>103.0</ele><time>2026-03-29T13:38:30.679Z</time></trkpt><trkpt lat="45.1846941" lon="8.5172669"><ele>103.0</ele><time>2026-03-29T13:38:31.67Z</time></trkpt><trkpt lat="45.1845971" lon="8.5172961"><ele>103.0</ele><time>2026-03-29T13:38:32.672Z</time></trkpt><trkpt lat="45.1844996" lon="8.5173278"><ele>103.0</ele><time>2026-03-29T13:38:33.676Z</time></trkpt><trkpt lat="45.1844055" lon="8.5173619"><ele>103.0</ele><time>2026-03-29T13:38:34.672Z</time></trkpt><trkpt lat="45.1843047" lon="8.5173999"><ele>103.0</ele><time>2026-03-29T13:38:35.679Z</time></trkpt><trkpt lat="45.1842054" lon="8.5174366"><ele>103.0</ele><time>2026-03-29T13:38:36.676Z</time></trkpt><trkpt lat="45.184109" lon="8.5174728"><ele>103.0</ele><time>2026-03-29T13:38:37.678Z</time></trkpt><trkpt lat="45.1840086" lon="8.5175052"><ele>103.4</ele><time>2026-03-29T13:38:38.68Z</time></trkpt><trkpt lat="45.1839106" lon="8.5175364"><ele>103.80000000000001</ele><time>2026-03-29T13:38:39.676Z</time></trkpt><trkpt lat="45.1838095" lon="8.5175701"><ele>104.2</ele><time>2026-03-29T13:38:40.682Z</time></trkpt><trkpt lat="45.183711" lon="8.5176072"><ele>104.6</ele><time>2026-03-29T13:38:41.672Z</time></trkpt><trkpt lat="45.1836101" lon="8.5176435"><ele>105.0</ele><time>2026-03-29T13:38:42.679Z</time></trkpt><trkpt lat="45.1835085" lon="8.5176801"><ele>105.0</ele><time>2026-03-29T13:38:43.676Z</time></trkpt><trkpt lat="45.1834085" lon="8.517717"><ele>105.0</ele><time>2026-03-29T13:38:44.674Z</time></trkpt><trkpt lat="45.183308" lon="8.5177559"><ele>105.0</ele><time>2026-03-29T13:38:45.674Z</time></trkpt><trkpt lat="45.1832071" lon="8.5177929"><ele>105.0</ele><time>2026-03-29T13:38:46.677Z</time></trkpt><trkpt lat="45.1831082" lon="8.5178302"><ele>105.0</ele><time>2026-03-29T13:38:47.674Z</time></trkpt><trkpt lat="45.1830075" lon="8.5178671"><ele>104.8</ele><time>2026-03-29T13:38:48.669Z</time></trkpt><trkpt lat="45.1829072" lon="8.5179071"><ele>104.6</ele><time>2026-03-29T13:38:49.673Z</time></trkpt><trkpt lat="45.1828067" lon="8.5179461"><ele>104.4</ele><time>2026-03-29T13:38:50.675Z</time></trkpt><trkpt lat="45.1827056" lon="8.5179814"><ele>104.2</ele><time>2026-03-29T13:38:51.678Z</time></trkpt><trkpt lat="45.1826034" lon="8.5180147"><ele>104.0</ele><time>2026-03-29T13:38:52.682Z</time></trkpt><trkpt lat="45.1825044" lon="8.5180473"><ele>104.0</ele><time>2026-03-29T13:38:53.675Z</time></trkpt><trkpt lat="45.1824041" lon="8.5180823"><ele>104.0</ele><time>2026-03-29T13:38:54.674Z</time></trkpt><trkpt lat="45.1823078" lon="8.5181232"><ele>104.0</ele><time>2026-03-29T13:38:55.672Z</time></trkpt><trkpt lat="45.182213" lon="8.518171"><ele>104.0</ele><time>2026-03-29T13:38:56.674Z</time></trkpt><trkpt lat="45.1821207" lon="8.5182285"><ele>104.0</ele><time>2026-03-29T13:38:57.671Z</time></trkpt><trkpt lat="45.1820295" lon="8.5182954"><ele>103.6</ele><time>2026-03-29T13:38:58.674Z</time></trkpt><trkpt lat="45.1819436" lon="8.5183707"><ele>103.2</ele><time>2026-03-29T13:38:59.679Z</time></trkpt><trkpt lat="45.1818577" lon="8.5184412"><ele>102.8</ele><time>2026-03-29T13:39:00.672Z</time></trkpt><trkpt lat="45.1817731" lon="8.5185174"><ele>102.39999999999999</ele><time>2026-03-29T13:39:01.682Z</time></trkpt><trkpt lat="45.1816909" lon="8.5185931"><ele>102.0</ele><time>2026-03-29T13:39:02.676Z</time></trkpt><trkpt lat="45.1816087" lon="8.5186697"><ele>102.0</ele><time>2026-03-29T13:39:03.678Z</time></trkpt><trkpt lat="45.1815271" lon="8.5187487"><ele>102.0</ele><time>2026-03-29T13:39:04.677Z</time></trkpt><trkpt lat="45.1814426" lon="8.5188263"><ele>102.0</ele><time>2026-03-29T13:39:05.677Z</time></trkpt><trkpt lat="45.1813583" lon="8.5189096"><ele>102.0</ele><time>2026-03-29T13:39:06.676Z</time></trkpt><trkpt lat="45.1812736" lon="8.5189899"><ele>102.0</ele><time>2026-03-29T13:39:07.677Z</time></trkpt><trkpt lat="45.181188" lon="8.5190677"><ele>102.39999999999999</ele><time>2026-03-29T13:39:08.679Z</time></trkpt><trkpt lat="45.1811017" lon="8.519148"><ele>102.8</ele><time>2026-03-29T13:39:09.675Z</time></trkpt><trkpt lat="45.1810174" lon="8.5192252"><ele>103.2</ele><time>2026-03-29T13:39:10.672Z</time></trkpt><trkpt lat="45.1809335" lon="8.519311"><ele>103.6</ele><time>2026-03-29T13:39:11.68Z</time></trkpt><trkpt lat="45.1808492" lon="8.5193955"><ele>104.0</ele><time>2026-03-29T13:39:12.673Z</time></trkpt><trkpt lat="45.1807657" lon="8.5194749"><ele>103.80000000000001</ele><time>2026-03-29T13:39:13.678Z</time></trkpt><trkpt lat="45.1806821" lon="8.5195544"><ele>103.60000000000001</ele><time>2026-03-29T13:39:14.688Z</time></trkpt><trkpt lat="45.180601" lon="8.5196337"><ele>103.4</ele><time>2026-03-29T13:39:15.677Z</time></trkpt><trkpt lat="45.1805236" lon="8.5197096"><ele>103.2</ele><time>2026-03-29T13:39:16.684Z</time></trkpt><trkpt lat="45.1804445" lon="8.5197799"><ele>103.0</ele><time>2026-03-29T13:39:17.676Z</time></trkpt><trkpt lat="45.1803624" lon="8.5198392"><ele>103.0</ele><time>2026-03-29T13:39:18.676Z</time></trkpt><trkpt lat="45.1802786" lon="8.5198922"><ele>103.0</ele><time>2026-03-29T13:39:19.672Z</time></trkpt><trkpt lat="45.1801883" lon="8.519942"><ele>103.0</ele><time>2026-03-29T13:39:20.681Z</time></trkpt><trkpt lat="45.1800949" lon="8.5199907"><ele>103.0</ele><time>2026-03-29T13:39:21.676Z</time></trkpt><trkpt lat="45.1800036" lon="8.520037"><ele>103.0</ele><time>2026-03-29T13:39:22.674Z</time></trkpt><trkpt lat="45.17991" lon="8.5200823"><ele>102.80000000000001</ele><time>2026-03-29T13:39:23.676Z</time></trkpt><trkpt lat="45.1798177" lon="8.5201263"><ele>102.6</ele><time>2026-03-29T13:39:24.682Z</time></trkpt><trkpt lat="45.1797279" lon="8.5201682"><ele>102.4</ele><time>2026-03-29T13:39:25.676Z</time></trkpt><trkpt lat="45.1796385" lon="8.5202119"><ele>102.19999999999999</ele><time>2026-03-29T13:39:26.675Z</time></trkpt><trkpt lat="45.1795496" lon="8.5202536"><ele>102.0</ele><time>2026-03-29T13:39:27.676Z</time></trkpt><trkpt lat="45.1794592" lon="8.520296"><ele>102.0</ele><time>2026-03-29T13:39:28.669Z</time></trkpt><trkpt lat="45.1793701" lon="8.5203397"><ele>102.0</ele><time>2026-03-29T13:39:29.673Z</time></trkpt><trkpt lat="45.1792812" lon="8.5203862"><ele>102.0</ele><time>2026-03-29T13:39:30.683Z</time></trkpt><trkpt lat="45.1791944" lon="8.5204306"><ele>102.0</ele><time>2026-03-29T13:39:31.667Z</time></trkpt><trkpt lat="45.1791038" lon="8.5204731"><ele>102.0</ele><time>2026-03-29T13:39:32.681Z</time></trkpt><trkpt lat="45.1790164" lon="8.5205129"><ele>102.39999999999999</ele><time>2026-03-29T13:39:33.675Z</time></trkpt><trkpt lat="45.1789311" lon="8.5205569"><ele>102.8</ele><time>2026-03-29T13:39:34.672Z</time></trkpt><trkpt lat="45.1788429" lon="8.5206005"><ele>103.2</ele><time>2026-03-29T13:39:35.676Z</time></trkpt><trkpt lat="45.1787544" lon="8.520649"><ele>103.6</ele><time>2026-03-29T13:39:36.678Z</time></trkpt><trkpt lat="45.1786645" lon="8.5206957"><ele>104.0</ele><time>2026-03-29T13:39:37.68Z</time></trkpt><trkpt lat="45.1785771" lon="8.5207438"><ele>104.0</ele><time>2026-03-29T13:39:38.675Z</time></trkpt><trkpt lat="45.178486" lon="8.5207908"><ele>104.0</ele><time>2026-03-29T13:39:39.681Z</time></trkpt><trkpt lat="45.1783927" lon="8.520835"><ele>104.0</ele><time>2026-03-29T13:39:40.677Z</time></trkpt><trkpt lat="45.1782943" lon="8.5208768"><ele>104.0</ele><time>2026-03-29T13:39:41.674Z</time></trkpt><trkpt lat="45.1781972" lon="8.520921"><ele>104.0</ele><time>2026-03-29T13:39:42.678Z</time></trkpt><trkpt lat="45.1781033" lon="8.5209679"><ele>103.6</ele><time>2026-03-29T13:39:43.672Z</time></trkpt><trkpt lat="45.1780063" lon="8.5210131"><ele>103.2</ele><time>2026-03-29T13:39:44.67Z</time></trkpt><trkpt lat="45.1779086" lon="8.5210603"><ele>102.8</ele><time>2026-03-29T13:39:45.678Z</time></trkpt><trkpt lat="45.1778134" lon="8.5211057"><ele>102.39999999999999</ele><time>2026-03-29T13:39:46.682Z</time></trkpt><trkpt lat="45.1777188" lon="8.5211463"><ele>102.0</ele><time>2026-03-29T13:39:47.678Z</time></trkpt><trkpt lat="45.1776289" lon="8.5211905"><ele>101.8</ele><time>2026-03-29T13:39:48.678Z</time></trkpt><trkpt lat="45.177538" lon="8.5212342"><ele>101.6</ele><time>2026-03-29T13:39:49.68Z</time></trkpt><trkpt lat="45.17745" lon="8.5212758"><ele>101.39999999999999</ele><time>2026-03-29T13:39:50.675Z</time></trkpt><trkpt lat="45.1773639" lon="8.5213036"><ele>101.19999999999999</ele><time>2026-03-29T13:39:51.676Z</time></trkpt><trkpt lat="45.1772783" lon="8.5213163"><ele>101.0</ele><time>2026-03-29T13:39:52.676Z</time></trkpt><trkpt lat="45.1771901" lon="8.521308"><ele>101.4</ele><time>2026-03-29T13:39:53.686Z</time></trkpt><trkpt lat="45.1771019" lon="8.521279"><ele>101.8</ele><time>2026-03-29T13:39:54.673Z</time></trkpt><trkpt lat="45.1770084" lon="8.5212408"><ele>102.2</ele><time>2026-03-29T13:39:55.672Z</time></trkpt><trkpt lat="45.1769124" lon="8.5211943"><ele>102.60000000000001</ele><time>2026-03-29T13:39:56.679Z</time></trkpt><trkpt lat="45.1768165" lon="8.5211494"><ele>103.0</ele><time>2026-03-29T13:39:57.677Z</time></trkpt><trkpt lat="45.1767188" lon="8.5211044"><ele>103.0</ele><time>2026-03-29T13:39:58.675Z</time></trkpt><trkpt lat="45.1766225" lon="8.521056"><ele>103.0</ele><time>2026-03-29T13:39:59.681Z</time></trkpt><trkpt lat="45.1765274" lon="8.5210071"><ele>103.0</ele><time>2026-03-29T13:40:00.679Z</time></trkpt><trkpt lat="45.1764303" lon="8.5209552"><ele>103.0</ele><time>2026-03-29T13:40:01.677Z</time></trkpt><trkpt lat="45.1763305" lon="8.5209061"><ele>103.0</ele><time>2026-03-29T13:40:02.677Z</time></trkpt><trkpt lat="45.1762283" lon="8.5208601"><ele>103.0</ele><time>2026-03-29T13:40:03.676Z</time></trkpt><trkpt lat="45.1761251" lon="8.5208152"><ele>103.0</ele><time>2026-03-29T13:40:04.686Z</time></trkpt><trkpt lat="45.1760251" lon="8.5207718"><ele>103.0</ele><time>2026-03-29T13:40:05.681Z</time></trkpt><trkpt lat="45.1759224" lon="8.5207276"><ele>103.0</ele><time>2026-03-29T13:40:06.679Z</time></trkpt><trkpt lat="45.1758191" lon="8.520689"><ele>103.0</ele><time>2026-03-29T13:40:07.674Z</time></trkpt><trkpt lat="45.1757158" lon="8.5206551"><ele>102.80000000000001</ele><time>2026-03-29T13:40:08.684Z</time></trkpt><trkpt lat="45.1756123" lon="8.5206258"><ele>102.6</ele><time>2026-03-29T13:40:09.68Z</time></trkpt><trkpt lat="45.1755069" lon="8.5206074"><ele>102.4</ele><time>2026-03-29T13:40:10.679Z</time></trkpt><trkpt lat="45.1754018" lon="8.5205955"><ele>102.19999999999999</ele><time>2026-03-29T13:40:11.676Z</time></trkpt><trkpt lat="45.175297" lon="8.520586"><ele>102.0</ele><time>2026-03-29T13:40:12.676Z</time></trkpt><trkpt lat="45.1751904" lon="8.5205718"><ele>102.0</ele><time>2026-03-29T13:40:13.679Z</time></trkpt><trkpt lat="45.1750854" lon="8.5205571"><ele>102.0</ele><time>2026-03-29T13:40:14.691Z</time></trkpt><trkpt lat="45.1749863" lon="8.5205425"><ele>102.0</ele><time>2026-03-29T13:40:15.676Z</time></trkpt><trkpt lat="45.1748908" lon="8.5205296"><ele>102.0</ele><time>2026-03-29T13:40:16.678Z</time></trkpt><trkpt lat="45.1747976" lon="8.5205148"><ele>102.0</ele><time>2026-03-29T13:40:17.681Z</time></trkpt><trkpt lat="45.1747086" lon="8.5205045"><ele>102.16666666666667</ele><time>2026-03-29T13:40:18.677Z</time></trkpt><trkpt lat="45.1746197" lon="8.5205074"><ele>102.33333333333334</ele><time>2026-03-29T13:40:19.681Z</time></trkpt><trkpt lat="45.1745338" lon="8.5205233"><ele>102.5</ele><time>2026-03-29T13:40:20.681Z</time></trkpt><trkpt lat="45.1744508" lon="8.5205582"><ele>102.66666666666667</ele><time>2026-03-29T13:40:21.688Z</time></trkpt><trkpt lat="45.1743725" lon="8.5206064"><ele>102.83333333333334</ele><time>2026-03-29T13:40:22.683Z</time></trkpt><trkpt lat="45.1742988" lon="8.5206677"><ele>103.0</ele><time>2026-03-29T13:40:23.674Z</time></trkpt><trkpt lat="45.1742297" lon="8.5207361"><ele>103.00000000000001</ele><time>2026-03-29T13:40:24.681Z</time></trkpt><trkpt lat="45.1741599" lon="8.5208142"><ele>103.0</ele><time>2026-03-29T13:40:25.68Z</time></trkpt><trkpt lat="45.1740976" lon="8.5209036"><ele>103.0</ele><time>2026-03-29T13:40:26.681Z</time></trkpt><trkpt lat="45.1740413" lon="8.5210018"><ele>103.0</ele><time>2026-03-29T13:40:27.711Z</time></trkpt><trkpt lat="45.1739984" lon="8.5211025"><ele>103.00000000000001</ele><time>2026-03-29T13:40:28.676Z</time></trkpt><trkpt lat="45.1739646" lon="8.521213"><ele>103.0</ele><time>2026-03-29T13:40:29.674Z</time></trkpt><trkpt lat="45.1739415" lon="8.5213324"><ele>103.00000000000001</ele><time>2026-03-29T13:40:30.676Z</time></trkpt><trkpt lat="45.1739267" lon="8.5214508"><ele>103.0</ele><time>2026-03-29T13:40:31.677Z</time></trkpt><trkpt lat="45.1739199" lon="8.5215683"><ele>103.0</ele><time>2026-03-29T13:40:32.679Z</time></trkpt><trkpt lat="45.1739141" lon="8.5216883"><ele>103.0</ele><time>2026-03-29T13:40:33.68Z</time></trkpt><trkpt lat="45.1739059" lon="8.5218068"><ele>103.00000000000001</ele><time>2026-03-29T13:40:34.677Z</time></trkpt><trkpt lat="45.1738878" lon="8.5219273"><ele>103.0</ele><time>2026-03-29T13:40:35.678Z</time></trkpt><trkpt lat="45.1738512" lon="8.522021"><ele>103.16666666666667</ele><time>2026-03-29T13:40:36.686Z</time></trkpt><trkpt lat="45.1737985" lon="8.5221069"><ele>103.33333333333334</ele><time>2026-03-29T13:40:37.679Z</time></trkpt><trkpt lat="45.1737315" lon="8.5221631"><ele>103.5</ele><time>2026-03-29T13:40:38.688Z</time></trkpt><trkpt lat="45.1736599" lon="8.5221941"><ele>103.66666666666666</ele><time>2026-03-29T13:40:39.68Z</time></trkpt><trkpt lat="45.1735824" lon="8.5222133"><ele>103.83333333333333</ele><time>2026-03-29T13:40:40.676Z</time></trkpt><trkpt lat="45.1735099" lon="8.5222187"><ele>104.0</ele><time>2026-03-29T13:40:41.681Z</time></trkpt><trkpt lat="45.1734319" lon="8.5222229"><ele>103.99999999999999</ele><time>2026-03-29T13:40:42.685Z</time></trkpt><trkpt lat="45.1733549" lon="8.5222228"><ele>104.0</ele><time>2026-03-29T13:40:43.693Z</time></trkpt><trkpt lat="45.173275" lon="8.5222289"><ele>104.0</ele><time>2026-03-29T13:40:44.683Z</time></trkpt><trkpt lat="45.1731925" lon="8.5222341"><ele>104.0</ele><time>2026-03-29T13:40:45.678Z</time></trkpt><trkpt lat="45.1731112" lon="8.5222366"><ele>103.99999999999999</ele><time>2026-03-29T13:40:46.678Z</time></trkpt><trkpt lat="45.1730405" lon="8.5222573"><ele>104.0</ele><time>2026-03-29T13:40:47.674Z</time></trkpt><trkpt lat="45.1729582" lon="8.5223403"><ele>104.16666666666666</ele><time>2026-03-29T13:40:49.684Z</time></trkpt><trkpt lat="45.1728955" lon="8.5224914"><ele>104.33333333333333</ele><time>2026-03-29T13:40:51.684Z</time></trkpt><trkpt lat="45.1728619" lon="8.5225788"><ele>104.5</ele><time>2026-03-29T13:40:52.68Z</time></trkpt><trkpt lat="45.1728246" lon="8.5226706"><ele>104.66666666666666</ele><time>2026-03-29T13:40:53.679Z</time></trkpt><trkpt lat="45.1727806" lon="8.5227653"><ele>104.83333333333333</ele><time>2026-03-29T13:40:54.688Z</time></trkpt><trkpt lat="45.1727391" lon="8.5228605"><ele>105.0</ele><time>2026-03-29T13:40:55.677Z</time></trkpt><trkpt lat="45.1726938" lon="8.5229575"><ele>105.0</ele><time>2026-03-29T13:40:56.681Z</time></trkpt><trkpt lat="45.1726464" lon="8.5230623"><ele>105.0</ele><time>2026-03-29T13:40:57.683Z</time></trkpt><trkpt lat="45.1725981" lon="8.5231711"><ele>105.0</ele><time>2026-03-29T13:40:58.69Z</time></trkpt><trkpt lat="45.1725509" lon="8.5232833"><ele>105.0</ele><time>2026-03-29T13:40:59.679Z</time></trkpt><trkpt lat="45.1724992" lon="8.5233999"><ele>105.0</ele><time>2026-03-29T13:41:00.682Z</time></trkpt><trkpt lat="45.1724514" lon="8.5235126"><ele>105.0</ele><time>2026-03-29T13:41:01.679Z</time></trkpt><trkpt lat="45.1724015" lon="8.523625"><ele>105.0</ele><time>2026-03-29T13:41:02.678Z</time></trkpt><trkpt lat="45.1723493" lon="8.5237435"><ele>105.0</ele><time>2026-03-29T13:41:03.694Z</time></trkpt><trkpt lat="45.172299" lon="8.5238568"><ele>105.0</ele><time>2026-03-29T13:41:04.682Z</time></trkpt><trkpt lat="45.1722467" lon="8.5239692"><ele>105.0</ele><time>2026-03-29T13:41:05.687Z</time></trkpt><trkpt lat="45.1721954" lon="8.5240834"><ele>104.6</ele><time>2026-03-29T13:41:06.683Z</time></trkpt><trkpt lat="45.1721479" lon="8.5242027"><ele>104.2</ele><time>2026-03-29T13:41:07.688Z</time></trkpt><trkpt lat="45.1721016" lon="8.5243193"><ele>103.80000000000001</ele><time>2026-03-29T13:41:08.676Z</time></trkpt><trkpt lat="45.1720543" lon="8.5244367"><ele>103.4</ele><time>2026-03-29T13:41:09.679Z</time></trkpt><trkpt lat="45.1720097" lon="8.5245471"><ele>103.0</ele><time>2026-03-29T13:41:10.683Z</time></trkpt><trkpt lat="45.1719661" lon="8.524637"><ele>103.00000000000001</ele><time>2026-03-29T13:41:11.677Z</time></trkpt><trkpt lat="45.1719126" lon="8.5247014"><ele>103.0</ele><time>2026-03-29T13:41:12.687Z</time></trkpt><trkpt lat="45.1718525" lon="8.5247283"><ele>103.0</ele><time>2026-03-29T13:41:13.676Z</time></trkpt><trkpt lat="45.1717833" lon="8.5247151"><ele>103.0</ele><time>2026-03-29T13:41:14.681Z</time></trkpt><trkpt lat="45.1717155" lon="8.5246596"><ele>103.00000000000001</ele><time>2026-03-29T13:41:15.68Z</time></trkpt><trkpt lat="45.1716486" lon="8.5245869"><ele>103.0</ele><time>2026-03-29T13:41:16.677Z</time></trkpt><trkpt lat="45.1715818" lon="8.5245114"><ele>102.80000000000001</ele><time>2026-03-29T13:41:17.682Z</time></trkpt><trkpt lat="45.1715122" lon="8.5244378"><ele>102.6</ele><time>2026-03-29T13:41:18.686Z</time></trkpt><trkpt lat="45.1714365" lon="8.5243626"><ele>102.4</ele><time>2026-03-29T13:41:19.686Z</time></trkpt><trkpt lat="45.1713559" lon="8.5242892"><ele>102.19999999999999</ele><time>2026-03-29T13:41:20.685Z</time></trkpt><trkpt lat="45.1712728" lon="8.5242154"><ele>102.0</ele><time>2026-03-29T13:41:21.674Z</time></trkpt><trkpt lat="45.1711883" lon="8.5241516"><ele>102.0</ele><time>2026-03-29T13:41:22.682Z</time></trkpt><trkpt lat="45.171104" lon="8.52409"><ele>102.0</ele><time>2026-03-29T13:41:23.678Z</time></trkpt><trkpt lat="45.1710208" lon="8.5240396"><ele>102.0</ele><time>2026-03-29T13:41:24.683Z</time></trkpt><trkpt lat="45.1709385" lon="8.523997"><ele>102.0</ele><time>2026-03-29T13:41:25.68Z</time></trkpt><trkpt lat="45.1708567" lon="8.5239593"><ele>102.0</ele><time>2026-03-29T13:41:26.683Z</time></trkpt><trkpt lat="45.1707729" lon="8.5239293"><ele>102.0</ele><time>2026-03-29T13:41:27.683Z</time></trkpt><trkpt lat="45.1706925" lon="8.5239009"><ele>102.33333333333333</ele><time>2026-03-29T13:41:28.684Z</time></trkpt><trkpt lat="45.1706111" lon="8.5238742"><ele>102.66666666666666</ele><time>2026-03-29T13:41:29.679Z</time></trkpt><trkpt lat="45.1705259" lon="8.5238499"><ele>103.0</ele><time>2026-03-29T13:41:30.702Z</time></trkpt><trkpt lat="45.1704443" lon="8.5238313"><ele>103.33333333333333</ele><time>2026-03-29T13:41:31.678Z</time></trkpt><trkpt lat="45.1703585" lon="8.5238177"><ele>103.66666666666666</ele><time>2026-03-29T13:41:32.686Z</time></trkpt><trkpt lat="45.1702699" lon="8.5238105"><ele>104.0</ele><time>2026-03-29T13:41:33.68Z</time></trkpt><trkpt lat="45.1701803" lon="8.5238082"><ele>104.0</ele><time>2026-03-29T13:41:34.687Z</time></trkpt><trkpt lat="45.1700925" lon="8.5238038"><ele>104.0</ele><time>2026-03-29T13:41:35.68Z</time></trkpt><trkpt lat="45.170001" lon="8.5238026"><ele>104.0</ele><time>2026-03-29T13:41:36.682Z</time></trkpt><trkpt lat="45.1699103" lon="8.5238017"><ele>104.0</ele><time>2026-03-29T13:41:37.674Z</time></trkpt><trkpt lat="45.1698202" lon="8.5238035"><ele>104.0</ele><time>2026-03-29T13:41:38.678Z</time></trkpt><trkpt lat="45.169728" lon="8.5238078"><ele>103.80000000000001</ele><time>2026-03-29T13:41:39.681Z</time></trkpt><trkpt lat="45.1696388" lon="8.5238105"><ele>103.60000000000001</ele><time>2026-03-29T13:41:40.677Z</time></trkpt><trkpt lat="45.1695444" lon="8.5238155"><ele>103.4</ele><time>2026-03-29T13:41:41.684Z</time></trkpt><trkpt lat="45.1694521" lon="8.5238174"><ele>103.2</ele><time>2026-03-29T13:41:42.689Z</time></trkpt><trkpt lat="45.1693614" lon="8.5238189"><ele>103.0</ele><time>2026-03-29T13:41:43.68Z</time></trkpt><trkpt lat="45.1692678" lon="8.5238218"><ele>103.00000000000001</ele><time>2026-03-29T13:41:44.69Z</time></trkpt><trkpt lat="45.1691756" lon="8.5238266"><ele>103.0</ele><time>2026-03-29T13:41:45.681Z</time></trkpt><trkpt lat="45.1690862" lon="8.5238288"><ele>103.0</ele><time>2026-03-29T13:41:46.672Z</time></trkpt><trkpt lat="45.1689979" lon="8.5238296"><ele>103.0</ele><time>2026-03-29T13:41:47.69Z</time></trkpt><trkpt lat="45.16891" lon="8.523833"><ele>103.00000000000001</ele><time>2026-03-29T13:41:48.684Z</time></trkpt><trkpt lat="45.1688241" lon="8.5238355"><ele>103.0</ele><time>2026-03-29T13:41:49.687Z</time></trkpt><trkpt lat="45.1687405" lon="8.5238383"><ele>103.16666666666667</ele><time>2026-03-29T13:41:50.68Z</time></trkpt><trkpt lat="45.168659" lon="8.5238465"><ele>103.33333333333334</ele><time>2026-03-29T13:41:51.677Z</time></trkpt><trkpt lat="45.1685779" lon="8.5238605"><ele>103.5</ele><time>2026-03-29T13:41:52.685Z</time></trkpt><trkpt lat="45.1685011" lon="8.5238723"><ele>103.66666666666666</ele><time>2026-03-29T13:41:53.678Z</time></trkpt><trkpt lat="45.168419" lon="8.5238912"><ele>103.83333333333333</ele><time>2026-03-29T13:41:54.69Z</time></trkpt><trkpt lat="45.1683411" lon="8.5239044"><ele>104.0</ele><time>2026-03-29T13:41:55.682Z</time></trkpt><trkpt lat="45.1682614" lon="8.5239167"><ele>104.16666666666666</ele><time>2026-03-29T13:41:56.682Z</time></trkpt><trkpt lat="45.168182" lon="8.5239308"><ele>104.33333333333333</ele><time>2026-03-29T13:41:57.68Z</time></trkpt><trkpt lat="45.1681017" lon="8.523946"><ele>104.5</ele><time>2026-03-29T13:41:58.684Z</time></trkpt><trkpt lat="45.1680204" lon="8.5239606"><ele>104.66666666666666</ele><time>2026-03-29T13:41:59.683Z</time></trkpt><trkpt lat="45.1679377" lon="8.5239719"><ele>104.83333333333333</ele><time>2026-03-29T13:42:00.681Z</time></trkpt><trkpt lat="45.1678512" lon="8.5239832"><ele>105.0</ele><time>2026-03-29T13:42:01.683Z</time></trkpt><trkpt lat="45.1677699" lon="8.5239931"><ele>105.0</ele><time>2026-03-29T13:42:02.68Z</time></trkpt><trkpt lat="45.1676838" lon="8.5240045"><ele>105.0</ele><time>2026-03-29T13:42:03.682Z</time></trkpt><trkpt lat="45.1675936" lon="8.5240138"><ele>105.0</ele><time>2026-03-29T13:42:04.687Z</time></trkpt><trkpt lat="45.1675096" lon="8.5240306"><ele>105.0</ele><time>2026-03-29T13:42:05.68Z</time></trkpt><trkpt lat="45.1674246" lon="8.5240444"><ele>105.0</ele><time>2026-03-29T13:42:06.684Z</time></trkpt><trkpt lat="45.1673379" lon="8.5240588"><ele>105.0</ele><time>2026-03-29T13:42:07.681Z</time></trkpt><trkpt lat="45.1672557" lon="8.5240705"><ele>105.0</ele><time>2026-03-29T13:42:08.68Z</time></trkpt><trkpt lat="45.1671831" lon="8.5240878"><ele>105.0</ele><time>2026-03-29T13:42:09.704Z</time></trkpt><trkpt lat="45.1670841" lon="8.5240743"><ele>105.0</ele><time>2026-03-29T13:42:11.678Z</time></trkpt><trkpt lat="45.1670708" lon="8.5239644"><ele>105.0</ele><time>2026-03-29T13:42:13.684Z</time></trkpt><trkpt lat="45.1670693" lon="8.5238229"><ele>105.0</ele><time>2026-03-29T13:42:15.676Z</time></trkpt><trkpt lat="45.1670624" lon="8.5236663"><ele>105.0</ele><time>2026-03-29T13:42:17.681Z</time></trkpt><trkpt lat="45.1670286" lon="8.5235427"><ele>105.0</ele><time>2026-03-29T13:42:19.684Z</time></trkpt><trkpt lat="45.1669539" lon="8.523494"><ele>105.0</ele><time>2026-03-29T13:42:21.681Z</time></trkpt><trkpt lat="45.1668607" lon="8.52349"><ele>105.0</ele><time>2026-03-29T13:42:23.685Z</time></trkpt><trkpt lat="45.1667438" lon="8.5234741"><ele>105.0</ele><time>2026-03-29T13:42:25.682Z</time></trkpt><trkpt lat="45.1666127" lon="8.5234619"><ele>105.0</ele><time>2026-03-29T13:42:27.687Z</time></trkpt><trkpt lat="45.1665424" lon="8.5234556"><ele>105.0</ele><time>2026-03-29T13:42:28.686Z</time></trkpt><trkpt lat="45.1664731" lon="8.523448"><ele>105.0</ele><time>2026-03-29T13:42:29.683Z</time></trkpt><trkpt lat="45.1664042" lon="8.5234455"><ele>105.0</ele><time>2026-03-29T13:42:30.678Z</time></trkpt><trkpt lat="45.1663293" lon="8.5234444"><ele>105.0</ele><time>2026-03-29T13:42:31.685Z</time></trkpt><trkpt lat="45.1662547" lon="8.5234421"><ele>105.0</ele><time>2026-03-29T13:42:32.682Z</time></trkpt><trkpt lat="45.1661751" lon="8.5234426"><ele>105.0</ele><time>2026-03-29T13:42:33.678Z</time></trkpt><trkpt lat="45.1660887" lon="8.5234444"><ele>105.0</ele><time>2026-03-29T13:42:34.681Z</time></trkpt><trkpt lat="45.1660052" lon="8.5234439"><ele>105.0</ele><time>2026-03-29T13:42:35.681Z</time></trkpt><trkpt lat="45.1659289" lon="8.5234429"><ele>105.0</ele><time>2026-03-29T13:42:36.683Z</time></trkpt><trkpt lat="45.1658557" lon="8.5234438"><ele>105.0</ele><time>2026-03-29T13:42:37.68Z</time></trkpt><trkpt lat="45.1657787" lon="8.5234396"><ele>105.0</ele><time>2026-03-29T13:42:38.711Z</time></trkpt><trkpt lat="45.1657096" lon="8.5234334"><ele>105.0</ele><time>2026-03-29T13:42:39.693Z</time></trkpt><trkpt lat="45.1656392" lon="8.5234306"><ele>105.2</ele><time>2026-03-29T13:42:40.688Z</time></trkpt><trkpt lat="45.1655724" lon="8.5234341"><ele>105.4</ele><time>2026-03-29T13:42:41.683Z</time></trkpt><trkpt lat="45.1655086" lon="8.5234386"><ele>105.6</ele><time>2026-03-29T13:42:42.686Z</time></trkpt><trkpt lat="45.1653984" lon="8.5234709"><ele>105.8</ele><time>2026-03-29T13:42:44.682Z</time></trkpt><trkpt lat="45.165309" lon="8.5235682"><ele>106.0</ele><time>2026-03-29T13:42:46.684Z</time></trkpt><trkpt lat="45.1652273" lon="8.5236903"><ele>106.0</ele><time>2026-03-29T13:42:48.688Z</time></trkpt><trkpt lat="45.1651301" lon="8.5237441"><ele>106.0</ele><time>2026-03-29T13:42:50.681Z</time></trkpt><trkpt lat="45.1650234" lon="8.523765"><ele>106.0</ele><time>2026-03-29T13:42:52.677Z</time></trkpt><trkpt lat="45.164939" lon="8.5237752"><ele>106.0</ele><time>2026-03-29T13:42:54.685Z</time></trkpt><trkpt lat="45.1648678" lon="8.5237359"><ele>106.0</ele><time>2026-03-29T13:42:56.702Z</time></trkpt><trkpt lat="45.1648281" lon="8.523628"><ele>106.19999999999999</ele><time>2026-03-29T13:42:58.678Z</time></trkpt><trkpt lat="45.1647682" lon="8.5235314"><ele>106.39999999999999</ele><time>2026-03-29T13:43:00.682Z</time></trkpt><trkpt lat="45.1646618" lon="8.5234846"><ele>106.6</ele><time>2026-03-29T13:43:02.675Z</time></trkpt><trkpt lat="45.1645617" lon="8.5234415"><ele>106.8</ele><time>2026-03-29T13:43:04.682Z</time></trkpt><trkpt lat="45.1644789" lon="8.5234143"><ele>107.0</ele><time>2026-03-29T13:43:06.682Z</time></trkpt><trkpt lat="45.1644038" lon="8.5234219"><ele>106.99999999999999</ele><time>2026-03-29T13:43:08.684Z</time></trkpt><trkpt lat="45.164325" lon="8.5234334"><ele>107.0</ele><time>2026-03-29T13:43:10.688Z</time></trkpt><trkpt lat="45.1642392" lon="8.5234354"><ele>107.0</ele><time>2026-03-29T13:43:12.675Z</time></trkpt><trkpt lat="45.1641558" lon="8.5234238"><ele>107.0</ele><time>2026-03-29T13:43:14.682Z</time></trkpt><trkpt lat="45.1641477" lon="8.5235141"><ele>106.99999999999999</ele><time>2026-03-29T13:43:54.69Z</time></trkpt><trkpt lat="45.1641145" lon="8.5236179"><ele>107.0</ele><time>2026-03-29T13:44:44.683Z</time></trkpt><trkpt lat="45.164048" lon="8.5236537"><ele>107.0</ele><time>2026-03-29T13:44:57.685Z</time></trkpt><trkpt lat="45.1640003" lon="8.5237427"><ele>106.99999999999999</ele><time>2026-03-29T13:45:00.682Z</time></trkpt><trkpt lat="45.1639661" lon="8.5239176"><ele>106.99999999999999</ele><time>2026-03-29T13:45:03.568Z</time></trkpt><trkpt lat="45.163986" lon="8.5240971"><ele>107.0</ele><time>2026-03-29T13:45:05.568Z</time></trkpt><trkpt lat="45.16403" lon="8.5242087"><ele>107.0</ele><time>2026-03-29T13:45:06.688Z</time></trkpt><trkpt lat="45.1640695" lon="8.5243163"><ele>106.99999999999999</ele><time>2026-03-29T13:45:07.668Z</time></trkpt><trkpt lat="45.1641076" lon="8.5244221"><ele>107.0</ele><time>2026-03-29T13:45:08.678Z</time></trkpt><trkpt lat="45.1641356" lon="8.5245209"><ele>107.0</ele><time>2026-03-29T13:45:09.671Z</time></trkpt><trkpt lat="45.1641429" lon="8.5246196"><ele>107.0</ele><time>2026-03-29T13:45:10.669Z</time></trkpt><trkpt lat="45.1641553" lon="8.5247298"><ele>106.99999999999999</ele><time>2026-03-29T13:45:11.672Z</time></trkpt><trkpt lat="45.1641666" lon="8.5248383"><ele>107.0</ele><time>2026-03-29T13:45:12.674Z</time></trkpt><trkpt lat="45.164179" lon="8.5249562"><ele>106.83333333333333</ele><time>2026-03-29T13:45:13.667Z</time></trkpt><trkpt lat="45.1641809" lon="8.5250748"><ele>106.66666666666666</ele><time>2026-03-29T13:45:14.666Z</time></trkpt><trkpt lat="45.1641885" lon="8.5251942"><ele>106.5</ele><time>2026-03-29T13:45:15.668Z</time></trkpt><trkpt lat="45.1641897" lon="8.5253077"><ele>106.33333333333334</ele><time>2026-03-29T13:45:16.687Z</time></trkpt><trkpt lat="45.1641964" lon="8.5254168"><ele>106.16666666666667</ele><time>2026-03-29T13:45:17.669Z</time></trkpt><trkpt lat="45.164207" lon="8.5255279"><ele>106.0</ele><time>2026-03-29T13:45:18.669Z</time></trkpt><trkpt lat="45.1642243" lon="8.5256333"><ele>105.83333333333334</ele><time>2026-03-29T13:45:19.671Z</time></trkpt><trkpt lat="45.1642289" lon="8.5257501"><ele>105.66666666666667</ele><time>2026-03-29T13:45:20.674Z</time></trkpt><trkpt lat="45.1642344" lon="8.5258646"><ele>105.5</ele><time>2026-03-29T13:45:21.672Z</time></trkpt><trkpt lat="45.1642379" lon="8.5259855"><ele>105.33333333333334</ele><time>2026-03-29T13:45:22.677Z</time></trkpt><trkpt lat="45.1642395" lon="8.5261081"><ele>105.16666666666667</ele><time>2026-03-29T13:45:23.672Z</time></trkpt><trkpt lat="45.1642389" lon="8.5262243"><ele>105.0</ele><time>2026-03-29T13:45:24.672Z</time></trkpt><trkpt lat="45.1642484" lon="8.5263478"><ele>105.16666666666667</ele><time>2026-03-29T13:45:25.675Z</time></trkpt><trkpt lat="45.1642582" lon="8.5264728"><ele>105.33333333333334</ele><time>2026-03-29T13:45:26.67Z</time></trkpt><trkpt lat="45.1642701" lon="8.5265975"><ele>105.5</ele><time>2026-03-29T13:45:27.682Z</time></trkpt><trkpt lat="45.1642825" lon="8.5267191"><ele>105.66666666666667</ele><time>2026-03-29T13:45:28.67Z</time></trkpt><trkpt lat="45.1642913" lon="8.526843"><ele>105.83333333333334</ele><time>2026-03-29T13:45:29.666Z</time></trkpt><trkpt lat="45.1642946" lon="8.5269666"><ele>106.0</ele><time>2026-03-29T13:45:30.674Z</time></trkpt><trkpt lat="45.1642921" lon="8.5270902"><ele>106.00000000000001</ele><time>2026-03-29T13:45:31.668Z</time></trkpt><trkpt lat="45.1642955" lon="8.5272153"><ele>106.0</ele><time>2026-03-29T13:45:32.667Z</time></trkpt><trkpt lat="45.1643028" lon="8.5273387"><ele>106.0</ele><time>2026-03-29T13:45:33.672Z</time></trkpt><trkpt lat="45.1643111" lon="8.5274587"><ele>106.0</ele><time>2026-03-29T13:45:34.666Z</time></trkpt><trkpt lat="45.1643165" lon="8.5275801"><ele>106.00000000000001</ele><time>2026-03-29T13:45:35.669Z</time></trkpt><trkpt lat="45.164323" lon="8.5277071"><ele>106.0</ele><time>2026-03-29T13:45:36.671Z</time></trkpt><trkpt lat="45.164331" lon="8.5278314"><ele>105.8</ele><time>2026-03-29T13:45:37.67Z</time></trkpt><trkpt lat="45.1643355" lon="8.5279585"><ele>105.6</ele><time>2026-03-29T13:45:38.67Z</time></trkpt><trkpt lat="45.1643458" lon="8.528086"><ele>105.4</ele><time>2026-03-29T13:45:39.673Z</time></trkpt><trkpt lat="45.1643554" lon="8.5282147"><ele>105.2</ele><time>2026-03-29T13:45:40.673Z</time></trkpt><trkpt lat="45.1643676" lon="8.5283457"><ele>105.0</ele><time>2026-03-29T13:45:41.67Z</time></trkpt><trkpt lat="45.1643787" lon="8.5284705"><ele>105.0</ele><time>2026-03-29T13:45:42.673Z</time></trkpt><trkpt lat="45.1643843" lon="8.5285986"><ele>105.0</ele><time>2026-03-29T13:45:43.675Z</time></trkpt><trkpt lat="45.1643961" lon="8.5287184"><ele>105.0</ele><time>2026-03-29T13:45:44.668Z</time></trkpt><trkpt lat="45.1644046" lon="8.5288385"><ele>105.0</ele><time>2026-03-29T13:45:45.672Z</time></trkpt><trkpt lat="45.1644165" lon="8.5289481"><ele>105.0</ele><time>2026-03-29T13:45:46.671Z</time></trkpt><trkpt lat="45.1644351" lon="8.5290623"><ele>105.0</ele><time>2026-03-29T13:45:47.675Z</time></trkpt><trkpt lat="45.1644613" lon="8.529175"><ele>104.8</ele><time>2026-03-29T13:45:48.674Z</time></trkpt><trkpt lat="45.1644943" lon="8.5292902"><ele>104.6</ele><time>2026-03-29T13:45:49.676Z</time></trkpt><trkpt lat="45.1645285" lon="8.5294015"><ele>104.4</ele><time>2026-03-29T13:45:50.67Z</time></trkpt><trkpt lat="45.1645648" lon="8.5295079"><ele>104.2</ele><time>2026-03-29T13:45:51.675Z</time></trkpt><trkpt lat="45.1646367" lon="8.5297183"><ele>104.0</ele><time>2026-03-29T13:45:53.678Z</time></trkpt><trkpt lat="45.1646688" lon="8.5298257"><ele>104.0</ele><time>2026-03-29T13:45:54.672Z</time></trkpt><trkpt lat="45.1647035" lon="8.5299382"><ele>104.0</ele><time>2026-03-29T13:45:55.681Z</time></trkpt><trkpt lat="45.1647428" lon="8.5300554"><ele>104.0</ele><time>2026-03-29T13:45:56.676Z</time></trkpt><trkpt lat="45.1647821" lon="8.5301761"><ele>104.0</ele><time>2026-03-29T13:45:57.673Z</time></trkpt><trkpt lat="45.1648237" lon="8.5303014"><ele>104.0</ele><time>2026-03-29T13:45:58.672Z</time></trkpt><trkpt lat="45.1648645" lon="8.5304318"><ele>104.4</ele><time>2026-03-29T13:45:59.671Z</time></trkpt><trkpt lat="45.1649042" lon="8.5305645"><ele>104.80000000000001</ele><time>2026-03-29T13:46:00.689Z</time></trkpt><trkpt lat="45.1649395" lon="8.530686"><ele>105.19999999999999</ele><time>2026-03-29T13:46:01.666Z</time></trkpt><trkpt lat="45.164972" lon="8.5308072"><ele>105.6</ele><time>2026-03-29T13:46:02.675Z</time></trkpt><trkpt lat="45.1650082" lon="8.5309253"><ele>106.0</ele><time>2026-03-29T13:46:03.676Z</time></trkpt><trkpt lat="45.1650404" lon="8.5310459"><ele>106.0</ele><time>2026-03-29T13:46:04.671Z</time></trkpt><trkpt lat="45.1650801" lon="8.5311637"><ele>106.0</ele><time>2026-03-29T13:46:05.672Z</time></trkpt><trkpt lat="45.1651154" lon="8.5312841"><ele>106.0</ele><time>2026-03-29T13:46:06.672Z</time></trkpt><trkpt lat="45.1651519" lon="8.5314006"><ele>106.0</ele><time>2026-03-29T13:46:07.67Z</time></trkpt><trkpt lat="45.1651888" lon="8.5315163"><ele>106.0</ele><time>2026-03-29T13:46:08.673Z</time></trkpt><trkpt lat="45.1652247" lon="8.5316308"><ele>105.66666666666667</ele><time>2026-03-29T13:46:09.675Z</time></trkpt><trkpt lat="45.1652597" lon="8.531749"><ele>105.33333333333334</ele><time>2026-03-29T13:46:10.677Z</time></trkpt><trkpt lat="45.1652956" lon="8.5318682"><ele>105.0</ele><time>2026-03-29T13:46:11.687Z</time></trkpt><trkpt lat="45.1653268" lon="8.5319812"><ele>104.66666666666666</ele><time>2026-03-29T13:46:12.669Z</time></trkpt><trkpt lat="45.1653611" lon="8.5320963"><ele>104.33333333333333</ele><time>2026-03-29T13:46:13.669Z</time></trkpt><trkpt lat="45.1653952" lon="8.5322087"><ele>104.0</ele><time>2026-03-29T13:46:14.678Z</time></trkpt><trkpt lat="45.165427" lon="8.5323173"><ele>103.6</ele><time>2026-03-29T13:46:15.669Z</time></trkpt><trkpt lat="45.1654591" lon="8.5324348"><ele>103.2</ele><time>2026-03-29T13:46:16.669Z</time></trkpt><trkpt lat="45.1654933" lon="8.5325535"><ele>102.8</ele><time>2026-03-29T13:46:17.67Z</time></trkpt><trkpt lat="45.1655308" lon="8.5326769"><ele>102.39999999999999</ele><time>2026-03-29T13:46:18.671Z</time></trkpt><trkpt lat="45.1655675" lon="8.5328"><ele>102.0</ele><time>2026-03-29T13:46:19.674Z</time></trkpt><trkpt lat="45.1656069" lon="8.5329269"><ele>101.8</ele><time>2026-03-29T13:46:20.68Z</time></trkpt><trkpt lat="45.1656428" lon="8.5330498"><ele>101.6</ele><time>2026-03-29T13:46:21.674Z</time></trkpt><trkpt lat="45.1656818" lon="8.5331764"><ele>101.39999999999999</ele><time>2026-03-29T13:46:22.664Z</time></trkpt><trkpt lat="45.165719" lon="8.5333057"><ele>101.19999999999999</ele><time>2026-03-29T13:46:23.666Z</time></trkpt><trkpt lat="45.1657577" lon="8.5334332"><ele>101.0</ele><time>2026-03-29T13:46:24.669Z</time></trkpt><trkpt lat="45.1657982" lon="8.5335611"><ele>101.19999999999999</ele><time>2026-03-29T13:46:25.678Z</time></trkpt><trkpt lat="45.1658382" lon="8.5336935"><ele>101.39999999999999</ele><time>2026-03-29T13:46:26.676Z</time></trkpt><trkpt lat="45.1658755" lon="8.5338201"><ele>101.6</ele><time>2026-03-29T13:46:27.668Z</time></trkpt><trkpt lat="45.1659134" lon="8.5339485"><ele>101.8</ele><time>2026-03-29T13:46:28.667Z</time></trkpt><trkpt lat="45.1659527" lon="8.53408"><ele>102.0</ele><time>2026-03-29T13:46:29.672Z</time></trkpt><trkpt lat="45.1659921" lon="8.5342104"><ele>102.0</ele><time>2026-03-29T13:46:30.684Z</time></trkpt><trkpt lat="45.1660313" lon="8.5343401"><ele>102.0</ele><time>2026-03-29T13:46:31.679Z</time></trkpt><trkpt lat="45.1660704" lon="8.534469"><ele>102.0</ele><time>2026-03-29T13:46:32.673Z</time></trkpt><trkpt lat="45.1661112" lon="8.5345984"><ele>102.0</ele><time>2026-03-29T13:46:33.675Z</time></trkpt><trkpt lat="45.1661496" lon="8.5347288"><ele>102.0</ele><time>2026-03-29T13:46:34.676Z</time></trkpt><trkpt lat="45.1661882" lon="8.5348567"><ele>101.8</ele><time>2026-03-29T13:46:35.67Z</time></trkpt><trkpt lat="45.1662249" lon="8.5349845"><ele>101.6</ele><time>2026-03-29T13:46:36.675Z</time></trkpt><trkpt lat="45.1662633" lon="8.5351077"><ele>101.39999999999999</ele><time>2026-03-29T13:46:37.67Z</time></trkpt><trkpt lat="45.1663015" lon="8.535232"><ele>101.19999999999999</ele><time>2026-03-29T13:46:38.672Z</time></trkpt><trkpt lat="45.1663407" lon="8.5353521"><ele>101.0</ele><time>2026-03-29T13:46:39.671Z</time></trkpt><trkpt lat="45.1663769" lon="8.5354763"><ele>101.0</ele><time>2026-03-29T13:46:40.676Z</time></trkpt><trkpt lat="45.1664145" lon="8.5355967"><ele>101.0</ele><time>2026-03-29T13:46:41.684Z</time></trkpt><trkpt lat="45.1664515" lon="8.5357167"><ele>101.0</ele><time>2026-03-29T13:46:42.68Z</time></trkpt><trkpt lat="45.1664882" lon="8.5358367"><ele>101.0</ele><time>2026-03-29T13:46:43.669Z</time></trkpt><trkpt lat="45.1665256" lon="8.5359613"><ele>101.0</ele><time>2026-03-29T13:46:44.678Z</time></trkpt><trkpt lat="45.1665603" lon="8.5360799"><ele>101.0</ele><time>2026-03-29T13:46:45.669Z</time></trkpt><trkpt lat="45.1665955" lon="8.5361994"><ele>101.0</ele><time>2026-03-29T13:46:46.675Z</time></trkpt><trkpt lat="45.1666329" lon="8.536319"><ele>101.0</ele><time>2026-03-29T13:46:47.674Z</time></trkpt><trkpt lat="45.1666693" lon="8.5364387"><ele>101.0</ele><time>2026-03-29T13:46:48.671Z</time></trkpt><trkpt lat="45.1667053" lon="8.5365584"><ele>101.0</ele><time>2026-03-29T13:46:49.674Z</time></trkpt><trkpt lat="45.1667408" lon="8.5366805"><ele>101.0</ele><time>2026-03-29T13:46:50.674Z</time></trkpt><trkpt lat="45.1667734" lon="8.5367978"><ele>101.0</ele><time>2026-03-29T13:46:51.668Z</time></trkpt><trkpt lat="45.1668096" lon="8.5369168"><ele>101.0</ele><time>2026-03-29T13:46:52.673Z</time></trkpt><trkpt lat="45.1668454" lon="8.5370355"><ele>101.0</ele><time>2026-03-29T13:46:53.668Z</time></trkpt><trkpt lat="45.1668799" lon="8.5371561"><ele>101.0</ele><time>2026-03-29T13:46:54.675Z</time></trkpt><trkpt lat="45.1669134" lon="8.5372747"><ele>101.19999999999999</ele><time>2026-03-29T13:46:55.666Z</time></trkpt><trkpt lat="45.1669466" lon="8.5373961"><ele>101.39999999999999</ele><time>2026-03-29T13:46:56.673Z</time></trkpt><trkpt lat="45.1669836" lon="8.5375168"><ele>101.6</ele><time>2026-03-29T13:46:57.674Z</time></trkpt><trkpt lat="45.1670184" lon="8.5376338"><ele>101.8</ele><time>2026-03-29T13:46:58.678Z</time></trkpt><trkpt lat="45.1670534" lon="8.5377503"><ele>102.0</ele><time>2026-03-29T13:46:59.675Z</time></trkpt><trkpt lat="45.1670856" lon="8.5378679"><ele>101.83333333333333</ele><time>2026-03-29T13:47:00.674Z</time></trkpt><trkpt lat="45.1671203" lon="8.5379834"><ele>101.66666666666666</ele><time>2026-03-29T13:47:01.675Z</time></trkpt><trkpt lat="45.1671569" lon="8.5380952"><ele>101.5</ele><time>2026-03-29T13:47:02.667Z</time></trkpt><trkpt lat="45.1671906" lon="8.5382126"><ele>101.33333333333333</ele><time>2026-03-29T13:47:03.67Z</time></trkpt><trkpt lat="45.167223" lon="8.5383278"><ele>101.16666666666666</ele><time>2026-03-29T13:47:04.675Z</time></trkpt><trkpt lat="45.1672547" lon="8.5384447"><ele>101.0</ele><time>2026-03-29T13:47:05.67Z</time></trkpt><trkpt lat="45.1672871" lon="8.5385624"><ele>100.99999999999999</ele><time>2026-03-29T13:47:06.682Z</time></trkpt><trkpt lat="45.1673174" lon="8.5386774"><ele>101.0</ele><time>2026-03-29T13:47:07.675Z</time></trkpt><trkpt lat="45.167349" lon="8.5387928"><ele>101.0</ele><time>2026-03-29T13:47:08.673Z</time></trkpt><trkpt lat="45.1673847" lon="8.5389081"><ele>101.0</ele><time>2026-03-29T13:47:09.672Z</time></trkpt><trkpt lat="45.1674218" lon="8.5390237"><ele>100.99999999999999</ele><time>2026-03-29T13:47:10.675Z</time></trkpt><trkpt lat="45.1674576" lon="8.5391396"><ele>101.0</ele><time>2026-03-29T13:47:11.668Z</time></trkpt><trkpt lat="45.1674949" lon="8.539259"><ele>100.99999999999999</ele><time>2026-03-29T13:47:12.681Z</time></trkpt><trkpt lat="45.167529" lon="8.539376"><ele>101.0</ele><time>2026-03-29T13:47:13.683Z</time></trkpt><trkpt lat="45.1675612" lon="8.5394917"><ele>101.0</ele><time>2026-03-29T13:47:14.681Z</time></trkpt><trkpt lat="45.1675933" lon="8.539604"><ele>101.0</ele><time>2026-03-29T13:47:15.671Z</time></trkpt><trkpt lat="45.1676233" lon="8.5397194"><ele>100.99999999999999</ele><time>2026-03-29T13:47:16.674Z</time></trkpt><trkpt lat="45.1676535" lon="8.539832"><ele>101.0</ele><time>2026-03-29T13:47:17.673Z</time></trkpt><trkpt lat="45.1676856" lon="8.539943"><ele>100.99999999999999</ele><time>2026-03-29T13:47:18.688Z</time></trkpt><trkpt lat="45.1677187" lon="8.5400532"><ele>101.0</ele><time>2026-03-29T13:47:19.675Z</time></trkpt><trkpt lat="45.1677542" lon="8.5401646"><ele>101.0</ele><time>2026-03-29T13:47:20.686Z</time></trkpt><trkpt lat="45.167787" lon="8.5402786"><ele>101.0</ele><time>2026-03-29T13:47:21.676Z</time></trkpt><trkpt lat="45.1678183" lon="8.540392"><ele>100.99999999999999</ele><time>2026-03-29T13:47:22.679Z</time></trkpt><trkpt lat="45.1678513" lon="8.5405068"><ele>101.0</ele><time>2026-03-29T13:47:23.673Z</time></trkpt><trkpt lat="45.1678842" lon="8.5406228"><ele>101.0</ele><time>2026-03-29T13:47:24.682Z</time></trkpt><trkpt lat="45.1679186" lon="8.5407408"><ele>101.0</ele><time>2026-03-29T13:47:25.676Z</time></trkpt><trkpt lat="45.1679538" lon="8.5408622"><ele>101.0</ele><time>2026-03-29T13:47:26.678Z</time></trkpt><trkpt lat="45.1679878" lon="8.5409824"><ele>101.0</ele><time>2026-03-29T13:47:27.672Z</time></trkpt><trkpt lat="45.1680229" lon="8.5411061"><ele>101.0</ele><time>2026-03-29T13:47:28.668Z</time></trkpt><trkpt lat="45.1680598" lon="8.5412322"><ele>100.99999999999999</ele><time>2026-03-29T13:47:29.67Z</time></trkpt><trkpt lat="45.1680969" lon="8.5413532"><ele>101.0</ele><time>2026-03-29T13:47:30.682Z</time></trkpt><trkpt lat="45.1681316" lon="8.5414687"><ele>101.0</ele><time>2026-03-29T13:47:31.673Z</time></trkpt><trkpt lat="45.1681649" lon="8.5415801"><ele>101.0</ele><time>2026-03-29T13:47:32.674Z</time></trkpt><trkpt lat="45.1681968" lon="8.5416842"><ele>100.99999999999999</ele><time>2026-03-29T13:47:33.671Z</time></trkpt><trkpt lat="45.1682246" lon="8.5417774"><ele>101.0</ele><time>2026-03-29T13:47:34.673Z</time></trkpt><trkpt lat="45.168269" lon="8.5419279"><ele>100.99999999999999</ele><time>2026-03-29T13:47:36.673Z</time></trkpt><trkpt lat="45.1682975" lon="8.5420397"><ele>101.0</ele><time>2026-03-29T13:47:38.681Z</time></trkpt><trkpt lat="45.1683377" lon="8.5421821"><ele>101.0</ele><time>2026-03-29T13:47:40.675Z</time></trkpt><trkpt lat="45.1683666" lon="8.5422714"><ele>101.0</ele><time>2026-03-29T13:47:41.678Z</time></trkpt><trkpt lat="45.1683983" lon="8.5423741"><ele>100.99999999999999</ele><time>2026-03-29T13:47:42.673Z</time></trkpt><trkpt lat="45.1684317" lon="8.5424827"><ele>101.0</ele><time>2026-03-29T13:47:43.68Z</time></trkpt><trkpt lat="45.1684629" lon="8.5425954"><ele>101.0</ele><time>2026-03-29T13:47:44.677Z</time></trkpt><trkpt lat="45.1684969" lon="8.5427116"><ele>101.0</ele><time>2026-03-29T13:47:45.675Z</time></trkpt><trkpt lat="45.1685335" lon="8.5428337"><ele>101.0</ele><time>2026-03-29T13:47:46.68Z</time></trkpt><trkpt lat="45.1685752" lon="8.5429564"><ele>101.0</ele><time>2026-03-29T13:47:47.678Z</time></trkpt><trkpt lat="45.168618" lon="8.5430814"><ele>101.0</ele><time>2026-03-29T13:47:48.679Z</time></trkpt><trkpt lat="45.1686602" lon="8.5432064"><ele>101.0</ele><time>2026-03-29T13:47:49.671Z</time></trkpt><trkpt lat="45.1687005" lon="8.5433356"><ele>101.0</ele><time>2026-03-29T13:47:50.68Z</time></trkpt><trkpt lat="45.1687402" lon="8.5434639"><ele>101.0</ele><time>2026-03-29T13:47:51.684Z</time></trkpt><trkpt lat="45.168784" lon="8.5435916"><ele>101.0</ele><time>2026-03-29T13:47:52.67Z</time></trkpt><trkpt lat="45.1688261" lon="8.5437241"><ele>101.0</ele><time>2026-03-29T13:47:53.673Z</time></trkpt><trkpt lat="45.1688666" lon="8.5438568"><ele>101.0</ele><time>2026-03-29T13:47:54.671Z</time></trkpt><trkpt lat="45.1689083" lon="8.5439922"><ele>101.0</ele><time>2026-03-29T13:47:55.672Z</time></trkpt><trkpt lat="45.1689486" lon="8.5441303"><ele>101.0</ele><time>2026-03-29T13:47:56.675Z</time></trkpt><trkpt lat="45.1689918" lon="8.5442646"><ele>101.0</ele><time>2026-03-29T13:47:57.674Z</time></trkpt><trkpt lat="45.1690341" lon="8.5444021"><ele>101.0</ele><time>2026-03-29T13:47:58.672Z</time></trkpt><trkpt lat="45.1690735" lon="8.5445413"><ele>100.8</ele><time>2026-03-29T13:47:59.68Z</time></trkpt><trkpt lat="45.1691169" lon="8.5446777"><ele>100.6</ele><time>2026-03-29T13:48:00.675Z</time></trkpt><trkpt lat="45.1691592" lon="8.5448124"><ele>100.4</ele><time>2026-03-29T13:48:01.678Z</time></trkpt><trkpt lat="45.1692035" lon="8.5449448"><ele>100.2</ele><time>2026-03-29T13:48:02.681Z</time></trkpt><trkpt lat="45.1692446" lon="8.5450778"><ele>100.0</ele><time>2026-03-29T13:48:03.671Z</time></trkpt><trkpt lat="45.1692856" lon="8.5452106"><ele>100.0</ele><time>2026-03-29T13:48:04.672Z</time></trkpt><trkpt lat="45.1693258" lon="8.5453397"><ele>100.0</ele><time>2026-03-29T13:48:05.674Z</time></trkpt><trkpt lat="45.1693659" lon="8.5454758"><ele>100.0</ele><time>2026-03-29T13:48:06.691Z</time></trkpt><trkpt lat="45.1694069" lon="8.5456077"><ele>100.0</ele><time>2026-03-29T13:48:07.679Z</time></trkpt><trkpt lat="45.1694455" lon="8.5457421"><ele>100.0</ele><time>2026-03-29T13:48:08.672Z</time></trkpt><trkpt lat="45.1694867" lon="8.545876"><ele>100.0</ele><time>2026-03-29T13:48:09.679Z</time></trkpt><trkpt lat="45.1695267" lon="8.5460109"><ele>100.0</ele><time>2026-03-29T13:48:10.679Z</time></trkpt><trkpt lat="45.1695673" lon="8.5461478"><ele>100.0</ele><time>2026-03-29T13:48:11.687Z</time></trkpt><trkpt lat="45.1696058" lon="8.5462822"><ele>100.0</ele><time>2026-03-29T13:48:12.681Z</time></trkpt><trkpt lat="45.1696467" lon="8.5464186"><ele>100.0</ele><time>2026-03-29T13:48:13.672Z</time></trkpt><trkpt lat="45.1696856" lon="8.5465535"><ele>100.0</ele><time>2026-03-29T13:48:14.676Z</time></trkpt><trkpt lat="45.1697251" lon="8.5466879"><ele>100.0</ele><time>2026-03-29T13:48:15.677Z</time></trkpt><trkpt lat="45.169766" lon="8.5468213"><ele>100.0</ele><time>2026-03-29T13:48:16.673Z</time></trkpt><trkpt lat="45.169806" lon="8.5469532"><ele>100.0</ele><time>2026-03-29T13:48:17.678Z</time></trkpt><trkpt lat="45.1698453" lon="8.5470862"><ele>100.0</ele><time>2026-03-29T13:48:18.678Z</time></trkpt><trkpt lat="45.1698846" lon="8.5472165"><ele>100.0</ele><time>2026-03-29T13:48:19.674Z</time></trkpt><trkpt lat="45.169924" lon="8.5473468"><ele>100.0</ele><time>2026-03-29T13:48:20.679Z</time></trkpt><trkpt lat="45.1699635" lon="8.5474748"><ele>100.0</ele><time>2026-03-29T13:48:21.678Z</time></trkpt><trkpt lat="45.1700041" lon="8.5476001"><ele>100.0</ele><time>2026-03-29T13:48:22.678Z</time></trkpt><trkpt lat="45.1700422" lon="8.5477248"><ele>100.0</ele><time>2026-03-29T13:48:23.676Z</time></trkpt><trkpt lat="45.1700805" lon="8.5478472"><ele>100.2</ele><time>2026-03-29T13:48:24.673Z</time></trkpt><trkpt lat="45.1701194" lon="8.5479739"><ele>100.4</ele><time>2026-03-29T13:48:25.681Z</time></trkpt><trkpt lat="45.1701546" lon="8.5480972"><ele>100.6</ele><time>2026-03-29T13:48:26.668Z</time></trkpt><trkpt lat="45.1701935" lon="8.5482256"><ele>100.8</ele><time>2026-03-29T13:48:27.682Z</time></trkpt><trkpt lat="45.1702328" lon="8.5483537"><ele>101.0</ele><time>2026-03-29T13:48:28.676Z</time></trkpt><trkpt lat="45.1702721" lon="8.5484871"><ele>101.0</ele><time>2026-03-29T13:48:29.677Z</time></trkpt><trkpt lat="45.1703111" lon="8.5486195"><ele>101.0</ele><time>2026-03-29T13:48:30.68Z</time></trkpt><trkpt lat="45.1703513" lon="8.5487503"><ele>101.0</ele><time>2026-03-29T13:48:31.673Z</time></trkpt><trkpt lat="45.1703924" lon="8.5488849"><ele>101.0</ele><time>2026-03-29T13:48:32.679Z</time></trkpt><trkpt lat="45.170431" lon="8.5490177"><ele>101.0</ele><time>2026-03-29T13:48:33.676Z</time></trkpt><trkpt lat="45.1704726" lon="8.5491486"><ele>101.0</ele><time>2026-03-29T13:48:34.68Z</time></trkpt><trkpt lat="45.1705147" lon="8.5492788"><ele>101.0</ele><time>2026-03-29T13:48:35.674Z</time></trkpt><trkpt lat="45.1705615" lon="8.5494024"><ele>101.0</ele><time>2026-03-29T13:48:36.673Z</time></trkpt><trkpt lat="45.1706158" lon="8.5495171"><ele>101.0</ele><time>2026-03-29T13:48:37.675Z</time></trkpt><trkpt lat="45.1706802" lon="8.5496208"><ele>101.0</ele><time>2026-03-29T13:48:38.677Z</time></trkpt><trkpt lat="45.170757" lon="8.5497123"><ele>100.8</ele><time>2026-03-29T13:48:39.686Z</time></trkpt><trkpt lat="45.1708385" lon="8.5497889"><ele>100.6</ele><time>2026-03-29T13:48:40.687Z</time></trkpt><trkpt lat="45.1709259" lon="8.5498522"><ele>100.4</ele><time>2026-03-29T13:48:41.679Z</time></trkpt><trkpt lat="45.1710201" lon="8.5498956"><ele>100.2</ele><time>2026-03-29T13:48:42.675Z</time></trkpt><trkpt lat="45.1711144" lon="8.5499219"><ele>100.0</ele><time>2026-03-29T13:48:43.679Z</time></trkpt><trkpt lat="45.1712156" lon="8.5499315"><ele>100.0</ele><time>2026-03-29T13:48:44.676Z</time></trkpt><trkpt lat="45.1713171" lon="8.5499241"><ele>100.0</ele><time>2026-03-29T13:48:45.68Z</time></trkpt><trkpt lat="45.1714192" lon="8.5499034"><ele>100.0</ele><time>2026-03-29T13:48:46.681Z</time></trkpt><trkpt lat="45.1715201" lon="8.549875"><ele>100.0</ele><time>2026-03-29T13:48:47.678Z</time></trkpt><trkpt lat="45.171616" lon="8.5498412"><ele>100.0</ele><time>2026-03-29T13:48:48.681Z</time></trkpt><trkpt lat="45.17171" lon="8.5498072"><ele>100.6</ele><time>2026-03-29T13:48:49.682Z</time></trkpt><trkpt lat="45.1717971" lon="8.5497747"><ele>101.2</ele><time>2026-03-29T13:48:50.673Z</time></trkpt><trkpt lat="45.171891" lon="8.5497405"><ele>101.80000000000001</ele><time>2026-03-29T13:48:51.682Z</time></trkpt><trkpt lat="45.1719815" lon="8.5497093"><ele>102.4</ele><time>2026-03-29T13:48:52.691Z</time></trkpt><trkpt lat="45.1720781" lon="8.5496757"><ele>103.0</ele><time>2026-03-29T13:48:53.676Z</time></trkpt><trkpt lat="45.1721743" lon="8.5496404"><ele>103.0</ele><time>2026-03-29T13:48:54.679Z</time></trkpt><trkpt lat="45.1722699" lon="8.5496078"><ele>103.0</ele><time>2026-03-29T13:48:55.679Z</time></trkpt><trkpt lat="45.1723618" lon="8.5495736"><ele>103.0</ele><time>2026-03-29T13:48:56.679Z</time></trkpt><trkpt lat="45.1724571" lon="8.549536"><ele>103.0</ele><time>2026-03-29T13:48:57.684Z</time></trkpt><trkpt lat="45.1725508" lon="8.5495014"><ele>103.0</ele><time>2026-03-29T13:48:58.68Z</time></trkpt><trkpt lat="45.1726495" lon="8.5494634"><ele>102.80000000000001</ele><time>2026-03-29T13:48:59.686Z</time></trkpt><trkpt lat="45.1727455" lon="8.5494263"><ele>102.6</ele><time>2026-03-29T13:49:00.68Z</time></trkpt><trkpt lat="45.1728421" lon="8.5493936"><ele>102.4</ele><time>2026-03-29T13:49:01.688Z</time></trkpt><trkpt lat="45.1729347" lon="8.5493592"><ele>102.19999999999999</ele><time>2026-03-29T13:49:02.68Z</time></trkpt><trkpt lat="45.1730306" lon="8.5493251"><ele>102.0</ele><time>2026-03-29T13:49:03.68Z</time></trkpt><trkpt lat="45.1731217" lon="8.5492908"><ele>102.19999999999999</ele><time>2026-03-29T13:49:04.676Z</time></trkpt><trkpt lat="45.1732137" lon="8.5492573"><ele>102.4</ele><time>2026-03-29T13:49:05.678Z</time></trkpt><trkpt lat="45.1733047" lon="8.5492261"><ele>102.6</ele><time>2026-03-29T13:49:06.686Z</time></trkpt><trkpt lat="45.1733972" lon="8.5491964"><ele>102.80000000000001</ele><time>2026-03-29T13:49:07.67Z</time></trkpt><trkpt lat="45.1734936" lon="8.5491718"><ele>103.0</ele><time>2026-03-29T13:49:08.681Z</time></trkpt><trkpt lat="45.1735865" lon="8.5491622"><ele>103.0</ele><time>2026-03-29T13:49:09.678Z</time></trkpt><trkpt lat="45.1736848" lon="8.5491687"><ele>103.0</ele><time>2026-03-29T13:49:10.677Z</time></trkpt><trkpt lat="45.1737848" lon="8.5491906"><ele>103.0</ele><time>2026-03-29T13:49:11.682Z</time></trkpt><trkpt lat="45.1738743" lon="8.5492298"><ele>103.0</ele><time>2026-03-29T13:49:12.674Z</time></trkpt><trkpt lat="45.173956" lon="8.5492828"><ele>103.0</ele><time>2026-03-29T13:49:13.682Z</time></trkpt><trkpt lat="45.1740313" lon="8.5493449"><ele>102.83333333333334</ele><time>2026-03-29T13:49:14.674Z</time></trkpt><trkpt lat="45.174103" lon="8.549422"><ele>102.66666666666667</ele><time>2026-03-29T13:49:15.679Z</time></trkpt><trkpt lat="45.1741677" lon="8.5495085"><ele>102.5</ele><time>2026-03-29T13:49:16.691Z</time></trkpt><trkpt lat="45.1742261" lon="8.5495922"><ele>102.33333333333334</ele><time>2026-03-29T13:49:17.679Z</time></trkpt><trkpt lat="45.1742781" lon="8.5496852"><ele>102.16666666666667</ele><time>2026-03-29T13:49:18.674Z</time></trkpt><trkpt lat="45.1743273" lon="8.5497786"><ele>102.0</ele><time>2026-03-29T13:49:19.68Z</time></trkpt><trkpt lat="45.1743755" lon="8.5498722"><ele>101.83333333333333</ele><time>2026-03-29T13:49:20.68Z</time></trkpt><trkpt lat="45.1744255" lon="8.5499683"><ele>101.66666666666666</ele><time>2026-03-29T13:49:21.674Z</time></trkpt><trkpt lat="45.1744776" lon="8.5500657"><ele>101.5</ele><time>2026-03-29T13:49:22.683Z</time></trkpt><trkpt lat="45.1745262" lon="8.5501599"><ele>101.33333333333333</ele><time>2026-03-29T13:49:23.674Z</time></trkpt><trkpt lat="45.1745765" lon="8.550258"><ele>101.16666666666666</ele><time>2026-03-29T13:49:24.681Z</time></trkpt><trkpt lat="45.1746294" lon="8.5503539"><ele>101.0</ele><time>2026-03-29T13:49:25.678Z</time></trkpt><trkpt lat="45.1746859" lon="8.5504504"><ele>100.49999999999999</ele><time>2026-03-29T13:49:26.676Z</time></trkpt><trkpt lat="45.174739" lon="8.5505493"><ele>100.0</ele><time>2026-03-29T13:49:27.679Z</time></trkpt><trkpt lat="45.1747928" lon="8.5506482"><ele>99.5</ele><time>2026-03-29T13:49:28.678Z</time></trkpt><trkpt lat="45.1748479" lon="8.5507483"><ele>99.0</ele><time>2026-03-29T13:49:29.687Z</time></trkpt><trkpt lat="45.1749028" lon="8.5508492"><ele>98.49999999999999</ele><time>2026-03-29T13:49:30.685Z</time></trkpt><trkpt lat="45.1749584" lon="8.55095"><ele>98.0</ele><time>2026-03-29T13:49:31.684Z</time></trkpt><trkpt lat="45.1750142" lon="8.5510538"><ele>97.60000000000001</ele><time>2026-03-29T13:49:32.677Z</time></trkpt><trkpt lat="45.1750697" lon="8.5511572"><ele>97.2</ele><time>2026-03-29T13:49:33.677Z</time></trkpt><trkpt lat="45.1751236" lon="8.5512621"><ele>96.8</ele><time>2026-03-29T13:49:34.678Z</time></trkpt><trkpt lat="45.1751817" lon="8.5513662"><ele>96.4</ele><time>2026-03-29T13:49:35.68Z</time></trkpt><trkpt lat="45.1752415" lon="8.5514708"><ele>96.0</ele><time>2026-03-29T13:49:36.672Z</time></trkpt><trkpt lat="45.1752983" lon="8.551575"><ele>95.8</ele><time>2026-03-29T13:49:37.676Z</time></trkpt><trkpt lat="45.1753551" lon="8.551681"><ele>95.6</ele><time>2026-03-29T13:49:38.68Z</time></trkpt><trkpt lat="45.1754139" lon="8.5517878"><ele>95.4</ele><time>2026-03-29T13:49:39.677Z</time></trkpt><trkpt lat="45.1754706" lon="8.5518944"><ele>95.2</ele><time>2026-03-29T13:49:40.684Z</time></trkpt><trkpt lat="45.1755277" lon="8.5519975"><ele>95.0</ele><time>2026-03-29T13:49:41.681Z</time></trkpt><trkpt lat="45.1755819" lon="8.5520997"><ele>95.6</ele><time>2026-03-29T13:49:42.674Z</time></trkpt><trkpt lat="45.1756395" lon="8.5522041"><ele>96.2</ele><time>2026-03-29T13:49:43.675Z</time></trkpt><trkpt lat="45.1756961" lon="8.5523071"><ele>96.80000000000001</ele><time>2026-03-29T13:49:44.682Z</time></trkpt><trkpt lat="45.1757516" lon="8.5524122"><ele>97.4</ele><time>2026-03-29T13:49:45.676Z</time></trkpt><trkpt lat="45.1758091" lon="8.552518"><ele>98.0</ele><time>2026-03-29T13:49:46.679Z</time></trkpt><trkpt lat="45.1758691" lon="8.5526247"><ele>99.2</ele><time>2026-03-29T13:49:47.677Z</time></trkpt><trkpt lat="45.1759296" lon="8.552733"><ele>100.4</ele><time>2026-03-29T13:49:48.677Z</time></trkpt><trkpt lat="45.1759921" lon="8.5528452"><ele>101.60000000000001</ele><time>2026-03-29T13:49:49.681Z</time></trkpt><trkpt lat="45.176053" lon="8.5529546"><ele>102.80000000000001</ele><time>2026-03-29T13:49:50.677Z</time></trkpt><trkpt lat="45.1761119" lon="8.5530656"><ele>104.0</ele><time>2026-03-29T13:49:51.675Z</time></trkpt><trkpt lat="45.1761706" lon="8.5531794"><ele>104.0</ele><time>2026-03-29T13:49:52.682Z</time></trkpt><trkpt lat="45.1762282" lon="8.5532965"><ele>104.0</ele><time>2026-03-29T13:49:53.68Z</time></trkpt><trkpt lat="45.176284" lon="8.5534135"><ele>104.0</ele><time>2026-03-29T13:49:54.675Z</time></trkpt><trkpt lat="45.1763397" lon="8.5535313"><ele>104.0</ele><time>2026-03-29T13:49:55.677Z</time></trkpt><trkpt lat="45.176395" lon="8.5536494"><ele>104.0</ele><time>2026-03-29T13:49:56.675Z</time></trkpt><trkpt lat="45.1764454" lon="8.553771"><ele>104.2</ele><time>2026-03-29T13:49:57.681Z</time></trkpt><trkpt lat="45.1764887" lon="8.5538978"><ele>104.4</ele><time>2026-03-29T13:49:58.68Z</time></trkpt><trkpt lat="45.1765321" lon="8.5540221"><ele>104.6</ele><time>2026-03-29T13:49:59.673Z</time></trkpt><trkpt lat="45.176571" lon="8.5541552"><ele>104.8</ele><time>2026-03-29T13:50:00.681Z</time></trkpt><trkpt lat="45.1766085" lon="8.5542864"><ele>105.0</ele><time>2026-03-29T13:50:01.675Z</time></trkpt><trkpt lat="45.1766413" lon="8.5544136"><ele>104.4</ele><time>2026-03-29T13:50:02.687Z</time></trkpt><trkpt lat="45.1766737" lon="8.5545388"><ele>103.8</ele><time>2026-03-29T13:50:03.679Z</time></trkpt><trkpt lat="45.1767028" lon="8.5546622"><ele>103.19999999999999</ele><time>2026-03-29T13:50:04.671Z</time></trkpt><trkpt lat="45.1767297" lon="8.554787"><ele>102.6</ele><time>2026-03-29T13:50:05.681Z</time></trkpt><trkpt lat="45.1767555" lon="8.5549155"><ele>102.0</ele><time>2026-03-29T13:50:06.683Z</time></trkpt><trkpt lat="45.1767768" lon="8.5550439"><ele>102.0</ele><time>2026-03-29T13:50:07.686Z</time></trkpt><trkpt lat="45.1767924" lon="8.555172"><ele>102.0</ele><time>2026-03-29T13:50:08.675Z</time></trkpt><trkpt lat="45.1768048" lon="8.5553011"><ele>102.0</ele><time>2026-03-29T13:50:09.681Z</time></trkpt><trkpt lat="45.1768132" lon="8.5554327"><ele>102.0</ele><time>2026-03-29T13:50:10.684Z</time></trkpt><trkpt lat="45.1768153" lon="8.5555599"><ele>102.0</ele><time>2026-03-29T13:50:11.677Z</time></trkpt><trkpt lat="45.1768115" lon="8.5556866"><ele>102.0</ele><time>2026-03-29T13:50:12.672Z</time></trkpt><trkpt lat="45.1768056" lon="8.5558157"><ele>102.0</ele><time>2026-03-29T13:50:13.675Z</time></trkpt><trkpt lat="45.1768006" lon="8.5559399"><ele>102.0</ele><time>2026-03-29T13:50:14.681Z</time></trkpt><trkpt lat="45.1767902" lon="8.556052"><ele>102.0</ele><time>2026-03-29T13:50:15.678Z</time></trkpt><trkpt lat="45.1767787" lon="8.5561545"><ele>102.0</ele><time>2026-03-29T13:50:16.686Z</time></trkpt><trkpt lat="45.1767656" lon="8.556249"><ele>102.0</ele><time>2026-03-29T13:50:17.682Z</time></trkpt><trkpt lat="45.1767721" lon="8.5563762"><ele>102.0</ele><time>2026-03-29T13:50:19.677Z</time></trkpt><trkpt lat="45.1768457" lon="8.5564921"><ele>102.0</ele><time>2026-03-29T13:50:21.676Z</time></trkpt><trkpt lat="45.1768949" lon="8.556556"><ele>102.0</ele><time>2026-03-29T13:50:22.686Z</time></trkpt><trkpt lat="45.1769496" lon="8.5566207"><ele>102.0</ele><time>2026-03-29T13:50:23.679Z</time></trkpt><trkpt lat="45.177011" lon="8.5566868"><ele>102.0</ele><time>2026-03-29T13:50:24.677Z</time></trkpt><trkpt lat="45.1770762" lon="8.5567633"><ele>102.0</ele><time>2026-03-29T13:50:25.679Z</time></trkpt><trkpt lat="45.1771355" lon="8.5568409"><ele>102.0</ele><time>2026-03-29T13:50:26.677Z</time></trkpt><trkpt lat="45.177192" lon="8.5569196"><ele>102.0</ele><time>2026-03-29T13:50:27.683Z</time></trkpt><trkpt lat="45.1772497" lon="8.5569912"><ele>102.0</ele><time>2026-03-29T13:50:28.678Z</time></trkpt><trkpt lat="45.1773096" lon="8.5570617"><ele>102.0</ele><time>2026-03-29T13:50:29.685Z</time></trkpt><trkpt lat="45.1773683" lon="8.5571323"><ele>102.0</ele><time>2026-03-29T13:50:30.682Z</time></trkpt><trkpt lat="45.1774287" lon="8.5572126"><ele>102.0</ele><time>2026-03-29T13:50:31.683Z</time></trkpt><trkpt lat="45.1774932" lon="8.5572939"><ele>102.0</ele><time>2026-03-29T13:50:32.68Z</time></trkpt><trkpt lat="45.1775589" lon="8.5573727"><ele>102.0</ele><time>2026-03-29T13:50:33.675Z</time></trkpt><trkpt lat="45.1776253" lon="8.5574525"><ele>102.0</ele><time>2026-03-29T13:50:34.684Z</time></trkpt><trkpt lat="45.1776933" lon="8.5575332"><ele>102.0</ele><time>2026-03-29T13:50:35.679Z</time></trkpt><trkpt lat="45.1777658" lon="8.5576167"><ele>102.0</ele><time>2026-03-29T13:50:36.676Z</time></trkpt><trkpt lat="45.1778375" lon="8.5576982"><ele>102.0</ele><time>2026-03-29T13:50:37.677Z</time></trkpt><trkpt lat="45.1779092" lon="8.5577826"><ele>102.0</ele><time>2026-03-29T13:50:38.683Z</time></trkpt><trkpt lat="45.1779834" lon="8.5578631"><ele>102.0</ele><time>2026-03-29T13:50:39.683Z</time></trkpt><trkpt lat="45.17806" lon="8.5579451"><ele>102.0</ele><time>2026-03-29T13:50:40.68Z</time></trkpt><trkpt lat="45.1781355" lon="8.5580279"><ele>102.0</ele><time>2026-03-29T13:50:41.677Z</time></trkpt><trkpt lat="45.1782082" lon="8.5581124"><ele>102.0</ele><time>2026-03-29T13:50:42.682Z</time></trkpt><trkpt lat="45.178282" lon="8.5582001"><ele>101.8</ele><time>2026-03-29T13:50:43.672Z</time></trkpt><trkpt lat="45.1783561" lon="8.5582871"><ele>101.6</ele><time>2026-03-29T13:50:44.679Z</time></trkpt><trkpt lat="45.1784303" lon="8.5583784"><ele>101.39999999999999</ele><time>2026-03-29T13:50:45.687Z</time></trkpt><trkpt lat="45.1784992" lon="8.5584778"><ele>101.19999999999999</ele><time>2026-03-29T13:50:46.679Z</time></trkpt><trkpt lat="45.1785627" lon="8.5585804"><ele>101.0</ele><time>2026-03-29T13:50:47.672Z</time></trkpt><trkpt lat="45.1786188" lon="8.5586922"><ele>101.16666666666666</ele><time>2026-03-29T13:50:48.68Z</time></trkpt><trkpt lat="45.1786694" lon="8.5588003"><ele>101.33333333333333</ele><time>2026-03-29T13:50:49.677Z</time></trkpt><trkpt lat="45.1787201" lon="8.5588995"><ele>101.5</ele><time>2026-03-29T13:50:50.681Z</time></trkpt><trkpt lat="45.178772" lon="8.5589902"><ele>101.66666666666666</ele><time>2026-03-29T13:50:51.684Z</time></trkpt><trkpt lat="45.1788225" lon="8.5590713"><ele>101.83333333333333</ele><time>2026-03-29T13:50:52.684Z</time></trkpt><trkpt lat="45.1788721" lon="8.5591314"><ele>102.0</ele><time>2026-03-29T13:50:53.681Z</time></trkpt><trkpt lat="45.1789575" lon="8.5591897"><ele>102.0</ele><time>2026-03-29T13:50:55.678Z</time></trkpt><trkpt lat="45.179045" lon="8.5592121"><ele>102.0</ele><time>2026-03-29T13:50:58.686Z</time></trkpt><trkpt lat="45.1791093" lon="8.5592619"><ele>102.0</ele><time>2026-03-29T13:51:00.681Z</time></trkpt><trkpt lat="45.1791641" lon="8.5594038"><ele>102.0</ele><time>2026-03-29T13:51:02.68Z</time></trkpt><trkpt lat="45.1791883" lon="8.5594894"><ele>102.0</ele><time>2026-03-29T13:51:03.68Z</time></trkpt><trkpt lat="45.1792136" lon="8.5595861"><ele>102.0</ele><time>2026-03-29T13:51:04.69Z</time></trkpt><trkpt lat="45.1792349" lon="8.5596862"><ele>102.0</ele><time>2026-03-29T13:51:05.691Z</time></trkpt><trkpt lat="45.1792556" lon="8.5597881"><ele>102.0</ele><time>2026-03-29T13:51:06.677Z</time></trkpt><trkpt lat="45.179276" lon="8.5598985"><ele>102.0</ele><time>2026-03-29T13:51:07.686Z</time></trkpt><trkpt lat="45.179294" lon="8.5600122"><ele>102.0</ele><time>2026-03-29T13:51:08.684Z</time></trkpt><trkpt lat="45.1793098" lon="8.5601284"><ele>102.0</ele><time>2026-03-29T13:51:09.682Z</time></trkpt><trkpt lat="45.1793273" lon="8.5602504"><ele>102.0</ele><time>2026-03-29T13:51:10.686Z</time></trkpt><trkpt lat="45.1793451" lon="8.5603709"><ele>102.0</ele><time>2026-03-29T13:51:11.675Z</time></trkpt><trkpt lat="45.1793683" lon="8.5604889"><ele>102.0</ele><time>2026-03-29T13:51:12.686Z</time></trkpt><trkpt lat="45.1794003" lon="8.5605974"><ele>102.0</ele><time>2026-03-29T13:51:13.678Z</time></trkpt><trkpt lat="45.1794454" lon="8.5606968"><ele>102.0</ele><time>2026-03-29T13:51:14.677Z</time></trkpt><trkpt lat="45.1795068" lon="8.5607719"><ele>102.0</ele><time>2026-03-29T13:51:15.679Z</time></trkpt><trkpt lat="45.1795767" lon="8.5608224"><ele>102.0</ele><time>2026-03-29T13:51:16.674Z</time></trkpt><trkpt lat="45.1796575" lon="8.5608572"><ele>102.0</ele><time>2026-03-29T13:51:17.682Z</time></trkpt><trkpt lat="45.1797393" lon="8.5608796"><ele>102.0</ele><time>2026-03-29T13:51:18.681Z</time></trkpt><trkpt lat="45.1798266" lon="8.5608871"><ele>102.0</ele><time>2026-03-29T13:51:19.679Z</time></trkpt><trkpt lat="45.1799136" lon="8.5608908"><ele>102.0</ele><time>2026-03-29T13:51:20.682Z</time></trkpt><trkpt lat="45.1800001" lon="8.5608932"><ele>102.0</ele><time>2026-03-29T13:51:21.682Z</time></trkpt><trkpt lat="45.1800889" lon="8.5608937"><ele>102.0</ele><time>2026-03-29T13:51:22.676Z</time></trkpt><trkpt lat="45.1801807" lon="8.5608874"><ele>101.8</ele><time>2026-03-29T13:51:23.683Z</time></trkpt><trkpt lat="45.1802755" lon="8.5608813"><ele>101.6</ele><time>2026-03-29T13:51:24.676Z</time></trkpt><trkpt lat="45.180369" lon="8.5608736"><ele>101.39999999999999</ele><time>2026-03-29T13:51:25.677Z</time></trkpt><trkpt lat="45.1804669" lon="8.5608644"><ele>101.19999999999999</ele><time>2026-03-29T13:51:26.68Z</time></trkpt><trkpt lat="45.1805641" lon="8.5608543"><ele>101.0</ele><time>2026-03-29T13:51:27.683Z</time></trkpt><trkpt lat="45.1806577" lon="8.560841"><ele>101.0</ele><time>2026-03-29T13:51:28.681Z</time></trkpt><trkpt lat="45.1807538" lon="8.5608255"><ele>101.0</ele><time>2026-03-29T13:51:29.683Z</time></trkpt><trkpt lat="45.1808504" lon="8.560808"><ele>101.0</ele><time>2026-03-29T13:51:30.682Z</time></trkpt><trkpt lat="45.1809461" lon="8.5607922"><ele>101.0</ele><time>2026-03-29T13:51:31.681Z</time></trkpt><trkpt lat="45.1810385" lon="8.5607682"><ele>101.0</ele><time>2026-03-29T13:51:32.678Z</time></trkpt><trkpt lat="45.1811321" lon="8.5607459"><ele>101.0</ele><time>2026-03-29T13:51:33.681Z</time></trkpt><trkpt lat="45.181228" lon="8.5607205"><ele>101.0</ele><time>2026-03-29T13:51:34.686Z</time></trkpt><trkpt lat="45.1813224" lon="8.5606973"><ele>101.0</ele><time>2026-03-29T13:51:35.687Z</time></trkpt><trkpt lat="45.1814159" lon="8.5606781"><ele>101.0</ele><time>2026-03-29T13:51:36.678Z</time></trkpt><trkpt lat="45.1815092" lon="8.5606606"><ele>101.0</ele><time>2026-03-29T13:51:37.68Z</time></trkpt><trkpt lat="45.1816043" lon="8.5606457"><ele>101.0</ele><time>2026-03-29T13:51:38.678Z</time></trkpt><trkpt lat="45.1817006" lon="8.5606352"><ele>101.0</ele><time>2026-03-29T13:51:39.686Z</time></trkpt><trkpt lat="45.1817966" lon="8.5606346"><ele>101.0</ele><time>2026-03-29T13:51:40.679Z</time></trkpt><trkpt lat="45.1818902" lon="8.5606549"><ele>101.0</ele><time>2026-03-29T13:51:41.678Z</time></trkpt><trkpt lat="45.1819842" lon="8.5606927"><ele>101.0</ele><time>2026-03-29T13:51:42.686Z</time></trkpt><trkpt lat="45.1820691" lon="8.5607483"><ele>100.99999999999999</ele><time>2026-03-29T13:51:43.703Z</time></trkpt><trkpt lat="45.1821462" lon="8.5608207"><ele>101.0</ele><time>2026-03-29T13:51:44.683Z</time></trkpt><trkpt lat="45.1822147" lon="8.5609077"><ele>101.0</ele><time>2026-03-29T13:51:45.687Z</time></trkpt><trkpt lat="45.1822699" lon="8.5610059"><ele>101.0</ele><time>2026-03-29T13:51:46.678Z</time></trkpt><trkpt lat="45.1823222" lon="8.5611055"><ele>100.99999999999999</ele><time>2026-03-29T13:51:47.678Z</time></trkpt><trkpt lat="45.1823737" lon="8.561205"><ele>101.0</ele><time>2026-03-29T13:51:48.684Z</time></trkpt><trkpt lat="45.1824306" lon="8.5612977"><ele>100.99999999999999</ele><time>2026-03-29T13:51:49.683Z</time></trkpt><trkpt lat="45.1824945" lon="8.5613845"><ele>101.0</ele><time>2026-03-29T13:51:50.681Z</time></trkpt><trkpt lat="45.1825618" lon="8.5614656"><ele>101.0</ele><time>2026-03-29T13:51:51.684Z</time></trkpt><trkpt lat="45.1826335" lon="8.561538"><ele>101.0</ele><time>2026-03-29T13:51:52.684Z</time></trkpt><trkpt lat="45.1827089" lon="8.5616048"><ele>100.99999999999999</ele><time>2026-03-29T13:51:53.683Z</time></trkpt><trkpt lat="45.1827852" lon="8.5616698"><ele>101.0</ele><time>2026-03-29T13:51:54.678Z</time></trkpt><trkpt lat="45.1828609" lon="8.5617324"><ele>100.99999999999999</ele><time>2026-03-29T13:51:55.676Z</time></trkpt><trkpt lat="45.1829392" lon="8.5617913"><ele>101.0</ele><time>2026-03-29T13:51:56.687Z</time></trkpt><trkpt lat="45.1830159" lon="8.5618515"><ele>101.0</ele><time>2026-03-29T13:51:57.679Z</time></trkpt><trkpt lat="45.183091" lon="8.5619213"><ele>101.0</ele><time>2026-03-29T13:51:58.683Z</time></trkpt><trkpt lat="45.1831663" lon="8.5619943"><ele>100.99999999999999</ele><time>2026-03-29T13:51:59.683Z</time></trkpt><trkpt lat="45.1832368" lon="8.5620711"><ele>101.0</ele><time>2026-03-29T13:52:00.681Z</time></trkpt><trkpt lat="45.1833066" lon="8.5621385"><ele>100.99999999999999</ele><time>2026-03-29T13:52:01.68Z</time></trkpt><trkpt lat="45.1833792" lon="8.562198"><ele>101.0</ele><time>2026-03-29T13:52:02.682Z</time></trkpt><trkpt lat="45.1834537" lon="8.5622458"><ele>101.0</ele><time>2026-03-29T13:52:03.679Z</time></trkpt><trkpt lat="45.1835351" lon="8.5622814"><ele>101.0</ele><time>2026-03-29T13:52:04.676Z</time></trkpt><trkpt lat="45.1836217" lon="8.5623044"><ele>100.99999999999999</ele><time>2026-03-29T13:52:05.682Z</time></trkpt><trkpt lat="45.1837135" lon="8.5623106"><ele>101.0</ele><time>2026-03-29T13:52:06.682Z</time></trkpt><trkpt lat="45.1838073" lon="8.5623058"><ele>101.0</ele><time>2026-03-29T13:52:07.677Z</time></trkpt><trkpt lat="45.1838994" lon="8.5622978"><ele>101.0</ele><time>2026-03-29T13:52:08.692Z</time></trkpt><trkpt lat="45.1839928" lon="8.5622854"><ele>101.0</ele><time>2026-03-29T13:52:09.683Z</time></trkpt><trkpt lat="45.1840849" lon="8.5622801"><ele>101.0</ele><time>2026-03-29T13:52:10.681Z</time></trkpt><trkpt lat="45.1841797" lon="8.5622702"><ele>101.0</ele><time>2026-03-29T13:52:11.689Z</time></trkpt><trkpt lat="45.1842722" lon="8.5622683"><ele>101.0</ele><time>2026-03-29T13:52:12.684Z</time></trkpt><trkpt lat="45.1843663" lon="8.5622696"><ele>101.0</ele><time>2026-03-29T13:52:13.697Z</time></trkpt><trkpt lat="45.1844597" lon="8.5622769"><ele>101.0</ele><time>2026-03-29T13:52:14.683Z</time></trkpt><trkpt lat="45.1845539" lon="8.56229"><ele>101.0</ele><time>2026-03-29T13:52:15.684Z</time></trkpt><trkpt lat="45.1846489" lon="8.562307"><ele>101.0</ele><time>2026-03-29T13:52:16.688Z</time></trkpt><trkpt lat="45.184742" lon="8.5623228"><ele>101.0</ele><time>2026-03-29T13:52:17.679Z</time></trkpt><trkpt lat="45.1848399" lon="8.5623338"><ele>101.0</ele><time>2026-03-29T13:52:18.684Z</time></trkpt><trkpt lat="45.1849358" lon="8.5623403"><ele>101.0</ele><time>2026-03-29T13:52:19.682Z</time></trkpt><trkpt lat="45.1850313" lon="8.5623434"><ele>101.0</ele><time>2026-03-29T13:52:20.682Z</time></trkpt><trkpt lat="45.1851252" lon="8.5623499"><ele>101.0</ele><time>2026-03-29T13:52:21.677Z</time></trkpt><trkpt lat="45.1852195" lon="8.5623553"><ele>101.0</ele><time>2026-03-29T13:52:22.684Z</time></trkpt><trkpt lat="45.1853142" lon="8.5623611"><ele>101.0</ele><time>2026-03-29T13:52:23.685Z</time></trkpt><trkpt lat="45.1854106" lon="8.5623645"><ele>101.0</ele><time>2026-03-29T13:52:24.695Z</time></trkpt><trkpt lat="45.1855026" lon="8.5623648"><ele>101.0</ele><time>2026-03-29T13:52:25.684Z</time></trkpt><trkpt lat="45.1855948" lon="8.5623671"><ele>101.0</ele><time>2026-03-29T13:52:26.678Z</time></trkpt><trkpt lat="45.1856898" lon="8.5623706"><ele>101.0</ele><time>2026-03-29T13:52:27.688Z</time></trkpt><trkpt lat="45.1857822" lon="8.5623826"><ele>101.0</ele><time>2026-03-29T13:52:28.687Z</time></trkpt><trkpt lat="45.1858786" lon="8.5624013"><ele>101.0</ele><time>2026-03-29T13:52:29.688Z</time></trkpt><trkpt lat="45.1859706" lon="8.5624305"><ele>101.0</ele><time>2026-03-29T13:52:30.692Z</time></trkpt><trkpt lat="45.1860595" lon="8.56246"><ele>101.0</ele><time>2026-03-29T13:52:31.675Z</time></trkpt><trkpt lat="45.1861518" lon="8.5624929"><ele>101.0</ele><time>2026-03-29T13:52:32.677Z</time></trkpt><trkpt lat="45.1862428" lon="8.5625252"><ele>101.0</ele><time>2026-03-29T13:52:33.685Z</time></trkpt><trkpt lat="45.1863335" lon="8.5625551"><ele>101.0</ele><time>2026-03-29T13:52:34.682Z</time></trkpt><trkpt lat="45.1864246" lon="8.5625804"><ele>101.0</ele><time>2026-03-29T13:52:35.693Z</time></trkpt><trkpt lat="45.186514" lon="8.5625923"><ele>101.0</ele><time>2026-03-29T13:52:36.685Z</time></trkpt><trkpt lat="45.186605" lon="8.5625921"><ele>100.8</ele><time>2026-03-29T13:52:37.684Z</time></trkpt><trkpt lat="45.1866979" lon="8.5625849"><ele>100.6</ele><time>2026-03-29T13:52:38.684Z</time></trkpt><trkpt lat="45.1867898" lon="8.5625714"><ele>100.4</ele><time>2026-03-29T13:52:39.676Z</time></trkpt><trkpt lat="45.1868826" lon="8.5625538"><ele>100.2</ele><time>2026-03-29T13:52:40.693Z</time></trkpt><trkpt lat="45.1869751" lon="8.5625383"><ele>100.0</ele><time>2026-03-29T13:52:41.687Z</time></trkpt><trkpt lat="45.1870653" lon="8.5625242"><ele>100.0</ele><time>2026-03-29T13:52:42.68Z</time></trkpt><trkpt lat="45.1871578" lon="8.5625155"><ele>100.0</ele><time>2026-03-29T13:52:43.681Z</time></trkpt><trkpt lat="45.1872512" lon="8.5625083"><ele>100.0</ele><time>2026-03-29T13:52:44.68Z</time></trkpt><trkpt lat="45.1873451" lon="8.5625101"><ele>100.0</ele><time>2026-03-29T13:52:45.681Z</time></trkpt><trkpt lat="45.1874397" lon="8.5625168"><ele>100.0</ele><time>2026-03-29T13:52:46.686Z</time></trkpt><trkpt lat="45.1875314" lon="8.5625204"><ele>100.4</ele><time>2026-03-29T13:52:47.678Z</time></trkpt><trkpt lat="45.1876252" lon="8.5625243"><ele>100.8</ele><time>2026-03-29T13:52:48.676Z</time></trkpt><trkpt lat="45.1877198" lon="8.5625239"><ele>101.19999999999999</ele><time>2026-03-29T13:52:49.683Z</time></trkpt><trkpt lat="45.1878121" lon="8.5625215"><ele>101.6</ele><time>2026-03-29T13:52:50.682Z</time></trkpt><trkpt lat="45.1879052" lon="8.5625219"><ele>102.0</ele><time>2026-03-29T13:52:51.687Z</time></trkpt><trkpt lat="45.1879966" lon="8.5625217"><ele>102.0</ele><time>2026-03-29T13:52:52.682Z</time></trkpt><trkpt lat="45.1880917" lon="8.5625235"><ele>102.0</ele><time>2026-03-29T13:52:53.686Z</time></trkpt><trkpt lat="45.1881871" lon="8.5625255"><ele>102.0</ele><time>2026-03-29T13:52:54.678Z</time></trkpt><trkpt lat="45.1882822" lon="8.5625302"><ele>102.0</ele><time>2026-03-29T13:52:55.684Z</time></trkpt><trkpt lat="45.188376" lon="8.5625332"><ele>102.0</ele><time>2026-03-29T13:52:56.683Z</time></trkpt><trkpt lat="45.1884691" lon="8.5625357"><ele>102.0</ele><time>2026-03-29T13:52:57.682Z</time></trkpt><trkpt lat="45.1885646" lon="8.5625351"><ele>102.0</ele><time>2026-03-29T13:52:58.693Z</time></trkpt><trkpt lat="45.1886552" lon="8.5625317"><ele>102.0</ele><time>2026-03-29T13:52:59.685Z</time></trkpt><trkpt lat="45.188752" lon="8.5625304"><ele>102.0</ele><time>2026-03-29T13:53:00.686Z</time></trkpt><trkpt lat="45.1888469" lon="8.5625334"><ele>102.0</ele><time>2026-03-29T13:53:01.685Z</time></trkpt><trkpt lat="45.1889384" lon="8.5625406"><ele>102.19999999999999</ele><time>2026-03-29T13:53:02.685Z</time></trkpt><trkpt lat="45.1890291" lon="8.5625454"><ele>102.4</ele><time>2026-03-29T13:53:03.685Z</time></trkpt><trkpt lat="45.189123" lon="8.562546"><ele>102.6</ele><time>2026-03-29T13:53:04.687Z</time></trkpt><trkpt lat="45.1892159" lon="8.5625498"><ele>102.80000000000001</ele><time>2026-03-29T13:53:05.681Z</time></trkpt><trkpt lat="45.1893107" lon="8.5625526"><ele>103.0</ele><time>2026-03-29T13:53:06.677Z</time></trkpt><trkpt lat="45.1893991" lon="8.5625437"><ele>103.00000000000001</ele><time>2026-03-29T13:53:07.683Z</time></trkpt><trkpt lat="45.1894858" lon="8.5625232"><ele>103.0</ele><time>2026-03-29T13:53:08.684Z</time></trkpt><trkpt lat="45.189569" lon="8.5624964"><ele>103.0</ele><time>2026-03-29T13:53:09.685Z</time></trkpt><trkpt lat="45.1896477" lon="8.562462"><ele>103.0</ele><time>2026-03-29T13:53:10.685Z</time></trkpt><trkpt lat="45.189724" lon="8.5624218"><ele>103.00000000000001</ele><time>2026-03-29T13:53:11.684Z</time></trkpt><trkpt lat="45.1897987" lon="8.5623806"><ele>103.0</ele><time>2026-03-29T13:53:12.685Z</time></trkpt><trkpt lat="45.189876" lon="8.5623337"><ele>103.00000000000001</ele><time>2026-03-29T13:53:13.679Z</time></trkpt><trkpt lat="45.189954" lon="8.5622855"><ele>103.0</ele><time>2026-03-29T13:53:14.685Z</time></trkpt><trkpt lat="45.1900316" lon="8.5622398"><ele>103.0</ele><time>2026-03-29T13:53:15.674Z</time></trkpt><trkpt lat="45.1901158" lon="8.5621908"><ele>103.0</ele><time>2026-03-29T13:53:16.708Z</time></trkpt><trkpt lat="45.1901949" lon="8.5621483"><ele>103.00000000000001</ele><time>2026-03-29T13:53:17.699Z</time></trkpt><trkpt lat="45.1902734" lon="8.5621199"><ele>103.0</ele><time>2026-03-29T13:53:18.69Z</time></trkpt><trkpt lat="45.1903483" lon="8.5620908"><ele>103.00000000000001</ele><time>2026-03-29T13:53:19.686Z</time></trkpt><trkpt lat="45.1904243" lon="8.5620732"><ele>103.0</ele><time>2026-03-29T13:53:20.684Z</time></trkpt><trkpt lat="45.1905044" lon="8.5620568"><ele>103.0</ele><time>2026-03-29T13:53:21.687Z</time></trkpt><trkpt lat="45.190582" lon="8.5620285"><ele>103.0</ele><time>2026-03-29T13:53:22.683Z</time></trkpt><trkpt lat="45.1906586" lon="8.561991"><ele>103.00000000000001</ele><time>2026-03-29T13:53:23.696Z</time></trkpt><trkpt lat="45.1907316" lon="8.5619423"><ele>103.0</ele><time>2026-03-29T13:53:24.69Z</time></trkpt><trkpt lat="45.1908073" lon="8.5618917"><ele>102.80000000000001</ele><time>2026-03-29T13:53:25.686Z</time></trkpt><trkpt lat="45.1908892" lon="8.5618321"><ele>102.6</ele><time>2026-03-29T13:53:26.677Z</time></trkpt><trkpt lat="45.1909723" lon="8.5617739"><ele>102.4</ele><time>2026-03-29T13:53:27.684Z</time></trkpt><trkpt lat="45.1910584" lon="8.5617128"><ele>102.19999999999999</ele><time>2026-03-29T13:53:28.686Z</time></trkpt><trkpt lat="45.1911422" lon="8.5616479"><ele>102.0</ele><time>2026-03-29T13:53:29.679Z</time></trkpt><trkpt lat="45.1912349" lon="8.5615888"><ele>102.0</ele><time>2026-03-29T13:53:30.73Z</time></trkpt><trkpt lat="45.1913227" lon="8.5615464"><ele>102.0</ele><time>2026-03-29T13:53:31.684Z</time></trkpt><trkpt lat="45.1914149" lon="8.5615138"><ele>102.0</ele><time>2026-03-29T13:53:32.683Z</time></trkpt><trkpt lat="45.1915082" lon="8.5614922"><ele>102.0</ele><time>2026-03-29T13:53:33.683Z</time></trkpt><trkpt lat="45.1916047" lon="8.5614711"><ele>102.0</ele><time>2026-03-29T13:53:34.686Z</time></trkpt><trkpt lat="45.1916978" lon="8.5614552"><ele>102.0</ele><time>2026-03-29T13:53:35.684Z</time></trkpt><trkpt lat="45.1917927" lon="8.5614409"><ele>102.0</ele><time>2026-03-29T13:53:36.686Z</time></trkpt><trkpt lat="45.191888" lon="8.5614297"><ele>102.0</ele><time>2026-03-29T13:53:37.688Z</time></trkpt><trkpt lat="45.1919808" lon="8.5614227"><ele>102.0</ele><time>2026-03-29T13:53:38.683Z</time></trkpt><trkpt lat="45.1920723" lon="8.5614173"><ele>102.0</ele><time>2026-03-29T13:53:39.68Z</time></trkpt><trkpt lat="45.1921665" lon="8.5614105"><ele>102.0</ele><time>2026-03-29T13:53:40.687Z</time></trkpt><trkpt lat="45.1922636" lon="8.5614084"><ele>102.0</ele><time>2026-03-29T13:53:41.686Z</time></trkpt><trkpt lat="45.1923581" lon="8.5614112"><ele>102.0</ele><time>2026-03-29T13:53:42.681Z</time></trkpt><trkpt lat="45.1924505" lon="8.5614084"><ele>102.0</ele><time>2026-03-29T13:53:43.686Z</time></trkpt><trkpt lat="45.1925408" lon="8.5613947"><ele>102.0</ele><time>2026-03-29T13:53:44.684Z</time></trkpt><trkpt lat="45.1926234" lon="8.5613607"><ele>102.0</ele><time>2026-03-29T13:53:45.682Z</time></trkpt><trkpt lat="45.1926981" lon="8.5613046"><ele>102.0</ele><time>2026-03-29T13:53:46.696Z</time></trkpt><trkpt lat="45.1927701" lon="8.5612276"><ele>102.0</ele><time>2026-03-29T13:53:47.686Z</time></trkpt><trkpt lat="45.1928358" lon="8.5611409"><ele>102.0</ele><time>2026-03-29T13:53:48.682Z</time></trkpt><trkpt lat="45.1928949" lon="8.5610424"><ele>102.0</ele><time>2026-03-29T13:53:49.682Z</time></trkpt><trkpt lat="45.1929481" lon="8.560932"><ele>102.0</ele><time>2026-03-29T13:53:50.684Z</time></trkpt><trkpt lat="45.1929826" lon="8.56081"><ele>102.0</ele><time>2026-03-29T13:53:51.682Z</time></trkpt><trkpt lat="45.193018" lon="8.5606804"><ele>102.0</ele><time>2026-03-29T13:53:52.685Z</time></trkpt><trkpt lat="45.1930502" lon="8.5605469"><ele>102.0</ele><time>2026-03-29T13:53:53.686Z</time></trkpt><trkpt lat="45.1930857" lon="8.5604094"><ele>102.0</ele><time>2026-03-29T13:53:54.685Z</time></trkpt><trkpt lat="45.1931205" lon="8.5602711"><ele>101.8</ele><time>2026-03-29T13:53:55.686Z</time></trkpt><trkpt lat="45.1931568" lon="8.5601389"><ele>101.6</ele><time>2026-03-29T13:53:56.681Z</time></trkpt><trkpt lat="45.1931933" lon="8.5600064"><ele>101.39999999999999</ele><time>2026-03-29T13:53:57.691Z</time></trkpt><trkpt lat="45.1932302" lon="8.5598725"><ele>101.19999999999999</ele><time>2026-03-29T13:53:58.686Z</time></trkpt><trkpt lat="45.1932673" lon="8.5597394"><ele>101.0</ele><time>2026-03-29T13:53:59.685Z</time></trkpt><trkpt lat="45.1933069" lon="8.559611"><ele>101.19999999999999</ele><time>2026-03-29T13:54:00.685Z</time></trkpt><trkpt lat="45.1933462" lon="8.5594893"><ele>101.39999999999999</ele><time>2026-03-29T13:54:01.681Z</time></trkpt><trkpt lat="45.1933877" lon="8.5593676"><ele>101.6</ele><time>2026-03-29T13:54:02.686Z</time></trkpt><trkpt lat="45.1934256" lon="8.5592468"><ele>101.8</ele><time>2026-03-29T13:54:03.688Z</time></trkpt><trkpt lat="45.1934703" lon="8.5591288"><ele>102.0</ele><time>2026-03-29T13:54:04.685Z</time></trkpt><trkpt lat="45.1935166" lon="8.5590099"><ele>102.0</ele><time>2026-03-29T13:54:05.689Z</time></trkpt><trkpt lat="45.1935646" lon="8.5588976"><ele>102.0</ele><time>2026-03-29T13:54:06.684Z</time></trkpt><trkpt lat="45.1936134" lon="8.5587831"><ele>102.0</ele><time>2026-03-29T13:54:07.686Z</time></trkpt><trkpt lat="45.193661" lon="8.5586685"><ele>102.0</ele><time>2026-03-29T13:54:08.689Z</time></trkpt><trkpt lat="45.1937087" lon="8.5585531"><ele>102.0</ele><time>2026-03-29T13:54:09.686Z</time></trkpt><trkpt lat="45.1937586" lon="8.5584363"><ele>102.0</ele><time>2026-03-29T13:54:10.689Z</time></trkpt><trkpt lat="45.1938099" lon="8.5583188"><ele>102.0</ele><time>2026-03-29T13:54:11.685Z</time></trkpt><trkpt lat="45.1938661" lon="8.558203"><ele>102.0</ele><time>2026-03-29T13:54:12.695Z</time></trkpt><trkpt lat="45.1939228" lon="8.5580944"><ele>102.0</ele><time>2026-03-29T13:54:13.688Z</time></trkpt><trkpt lat="45.1939829" lon="8.5579885"><ele>102.0</ele><time>2026-03-29T13:54:14.689Z</time></trkpt><trkpt lat="45.1940447" lon="8.5578868"><ele>102.0</ele><time>2026-03-29T13:54:15.685Z</time></trkpt><trkpt lat="45.1941106" lon="8.5577901"><ele>102.0</ele><time>2026-03-29T13:54:16.684Z</time></trkpt><trkpt lat="45.1941779" lon="8.5576958"><ele>102.0</ele><time>2026-03-29T13:54:17.684Z</time></trkpt><trkpt lat="45.1942451" lon="8.5576033"><ele>102.0</ele><time>2026-03-29T13:54:18.69Z</time></trkpt><trkpt lat="45.194313" lon="8.5575148"><ele>102.0</ele><time>2026-03-29T13:54:19.688Z</time></trkpt><trkpt lat="45.1943795" lon="8.557427"><ele>102.0</ele><time>2026-03-29T13:54:20.689Z</time></trkpt><trkpt lat="45.1944454" lon="8.5573364"><ele>102.0</ele><time>2026-03-29T13:54:21.686Z</time></trkpt><trkpt lat="45.1945095" lon="8.5572461"><ele>102.0</ele><time>2026-03-29T13:54:22.687Z</time></trkpt><trkpt lat="45.194574" lon="8.5571515"><ele>102.0</ele><time>2026-03-29T13:54:23.692Z</time></trkpt><trkpt lat="45.1946423" lon="8.5570697"><ele>102.0</ele><time>2026-03-29T13:54:24.684Z</time></trkpt><trkpt lat="45.1947186" lon="8.5569957"><ele>102.0</ele><time>2026-03-29T13:54:25.682Z</time></trkpt><trkpt lat="45.1948055" lon="8.5569426"><ele>102.0</ele><time>2026-03-29T13:54:26.688Z</time></trkpt><trkpt lat="45.1948971" lon="8.5569158"><ele>102.0</ele><time>2026-03-29T13:54:27.681Z</time></trkpt><trkpt lat="45.1949954" lon="8.5569056"><ele>102.0</ele><time>2026-03-29T13:54:28.696Z</time></trkpt><trkpt lat="45.1950899" lon="8.5569094"><ele>102.0</ele><time>2026-03-29T13:54:29.687Z</time></trkpt><trkpt lat="45.1951817" lon="8.5569285"><ele>102.0</ele><time>2026-03-29T13:54:30.689Z</time></trkpt><trkpt lat="45.1952702" lon="8.5569508"><ele>102.0</ele><time>2026-03-29T13:54:31.682Z</time></trkpt><trkpt lat="45.1953561" lon="8.5569697"><ele>102.0</ele><time>2026-03-29T13:54:32.686Z</time></trkpt><trkpt lat="45.1954459" lon="8.556989"><ele>102.0</ele><time>2026-03-29T13:54:33.686Z</time></trkpt><trkpt lat="45.1955347" lon="8.5570073"><ele>102.0</ele><time>2026-03-29T13:54:34.681Z</time></trkpt><trkpt lat="45.1956238" lon="8.5570287"><ele>102.0</ele><time>2026-03-29T13:54:35.687Z</time></trkpt><trkpt lat="45.1957133" lon="8.5570505"><ele>102.16666666666667</ele><time>2026-03-29T13:54:36.686Z</time></trkpt><trkpt lat="45.1958034" lon="8.5570709"><ele>102.33333333333334</ele><time>2026-03-29T13:54:37.687Z</time></trkpt><trkpt lat="45.1958966" lon="8.5570897"><ele>102.5</ele><time>2026-03-29T13:54:38.699Z</time></trkpt><trkpt lat="45.1959866" lon="8.5571106"><ele>102.66666666666667</ele><time>2026-03-29T13:54:39.685Z</time></trkpt><trkpt lat="45.1960693" lon="8.5571212"><ele>102.83333333333334</ele><time>2026-03-29T13:54:40.683Z</time></trkpt><trkpt lat="45.1961469" lon="8.5571218"><ele>103.0</ele><time>2026-03-29T13:54:41.691Z</time></trkpt><trkpt lat="45.1962167" lon="8.5570993"><ele>102.99999999999999</ele><time>2026-03-29T13:54:42.692Z</time></trkpt><trkpt lat="45.1962814" lon="8.5570599"><ele>103.0</ele><time>2026-03-29T13:54:43.699Z</time></trkpt><trkpt lat="45.1963445" lon="8.5570048"><ele>103.0</ele><time>2026-03-29T13:54:44.685Z</time></trkpt><trkpt lat="45.1964023" lon="8.5569441"><ele>103.0</ele><time>2026-03-29T13:54:45.681Z</time></trkpt><trkpt lat="45.1964561" lon="8.5568707"><ele>103.0</ele><time>2026-03-29T13:54:46.686Z</time></trkpt><trkpt lat="45.1965071" lon="8.5567896"><ele>102.99999999999999</ele><time>2026-03-29T13:54:47.683Z</time></trkpt><trkpt lat="45.1965592" lon="8.5567031"><ele>103.0</ele><time>2026-03-29T13:54:48.686Z</time></trkpt><trkpt lat="45.1966104" lon="8.5566154"><ele>103.33333333333334</ele><time>2026-03-29T13:54:49.685Z</time></trkpt><trkpt lat="45.1966634" lon="8.5565225"><ele>103.66666666666667</ele><time>2026-03-29T13:54:50.686Z</time></trkpt><trkpt lat="45.1967194" lon="8.5564343"><ele>104.0</ele><time>2026-03-29T13:54:51.681Z</time></trkpt><trkpt lat="45.1967744" lon="8.5563444"><ele>104.33333333333334</ele><time>2026-03-29T13:54:52.688Z</time></trkpt><trkpt lat="45.1968221" lon="8.5562535"><ele>104.66666666666667</ele><time>2026-03-29T13:54:53.687Z</time></trkpt><trkpt lat="45.1968612" lon="8.5561656"><ele>105.0</ele><time>2026-03-29T13:54:54.686Z</time></trkpt><trkpt lat="45.1969066" lon="8.5560872"><ele>105.0</ele><time>2026-03-29T13:54:55.684Z</time></trkpt><trkpt lat="45.1969535" lon="8.5560148"><ele>105.0</ele><time>2026-03-29T13:54:56.686Z</time></trkpt><trkpt lat="45.197009" lon="8.5559395"><ele>105.0</ele><time>2026-03-29T13:54:57.683Z</time></trkpt><trkpt lat="45.1970573" lon="8.5558566"><ele>105.0</ele><time>2026-03-29T13:54:58.691Z</time></trkpt><trkpt lat="45.19711" lon="8.55578"><ele>105.0</ele><time>2026-03-29T13:54:59.69Z</time></trkpt><trkpt lat="45.1971678" lon="8.5557101"><ele>105.0</ele><time>2026-03-29T13:55:00.688Z</time></trkpt><trkpt lat="45.1972315" lon="8.55564"><ele>105.0</ele><time>2026-03-29T13:55:01.69Z</time></trkpt><trkpt lat="45.1972856" lon="8.5555719"><ele>105.0</ele><time>2026-03-29T13:55:02.69Z</time></trkpt><trkpt lat="45.1973371" lon="8.5554999"><ele>105.0</ele><time>2026-03-29T13:55:03.685Z</time></trkpt><trkpt lat="45.1973777" lon="8.5554108"><ele>105.0</ele><time>2026-03-29T13:55:04.712Z</time></trkpt><trkpt lat="45.1974114" lon="8.555311"><ele>105.0</ele><time>2026-03-29T13:55:05.687Z</time></trkpt><trkpt lat="45.1974374" lon="8.5552098"><ele>105.0</ele><time>2026-03-29T13:55:06.687Z</time></trkpt><trkpt lat="45.1974652" lon="8.5551109"><ele>105.0</ele><time>2026-03-29T13:55:07.686Z</time></trkpt><trkpt lat="45.1974972" lon="8.5550039"><ele>105.0</ele><time>2026-03-29T13:55:08.683Z</time></trkpt><trkpt lat="45.1975427" lon="8.5549104"><ele>105.0</ele><time>2026-03-29T13:55:09.699Z</time></trkpt><trkpt lat="45.1975981" lon="8.5548348"><ele>105.0</ele><time>2026-03-29T13:55:10.677Z</time></trkpt><trkpt lat="45.1976669" lon="8.5547606"><ele>105.0</ele><time>2026-03-29T13:55:11.686Z</time></trkpt><trkpt lat="45.1977499" lon="8.5547044"><ele>105.0</ele><time>2026-03-29T13:55:12.68Z</time></trkpt><trkpt lat="45.1978361" lon="8.5546824"><ele>105.0</ele><time>2026-03-29T13:55:13.688Z</time></trkpt><trkpt lat="45.1979174" lon="8.5546869"><ele>105.0</ele><time>2026-03-29T13:55:14.685Z</time></trkpt><trkpt lat="45.1979787" lon="8.5547301"><ele>105.0</ele><time>2026-03-29T13:55:15.683Z</time></trkpt><trkpt lat="45.1980244" lon="8.5547984"><ele>105.0</ele><time>2026-03-29T13:55:16.688Z</time></trkpt><trkpt lat="45.1980822" lon="8.5548755"><ele>105.0</ele><time>2026-03-29T13:55:17.689Z</time></trkpt><trkpt lat="45.1981353" lon="8.554952"><ele>105.0</ele><time>2026-03-29T13:55:18.687Z</time></trkpt><trkpt lat="45.1981962" lon="8.555023"><ele>105.0</ele><time>2026-03-29T13:55:19.688Z</time></trkpt><trkpt lat="45.1982565" lon="8.5550907"><ele>105.0</ele><time>2026-03-29T13:55:20.688Z</time></trkpt><trkpt lat="45.1983177" lon="8.5551579"><ele>105.0</ele><time>2026-03-29T13:55:21.683Z</time></trkpt><trkpt lat="45.1983805" lon="8.5552289"><ele>105.0</ele><time>2026-03-29T13:55:22.682Z</time></trkpt><trkpt lat="45.1984462" lon="8.5553012"><ele>105.0</ele><time>2026-03-29T13:55:23.684Z</time></trkpt><trkpt lat="45.1985067" lon="8.5553879"><ele>105.0</ele><time>2026-03-29T13:55:24.689Z</time></trkpt><trkpt lat="45.1985653" lon="8.555475"><ele>105.0</ele><time>2026-03-29T13:55:25.687Z</time></trkpt><trkpt lat="45.1986307" lon="8.5555425"><ele>105.0</ele><time>2026-03-29T13:55:26.702Z</time></trkpt><trkpt lat="45.1986997" lon="8.5555999"><ele>104.83333333333333</ele><time>2026-03-29T13:55:27.684Z</time></trkpt><trkpt lat="45.1987797" lon="8.5556443"><ele>104.66666666666666</ele><time>2026-03-29T13:55:28.688Z</time></trkpt><trkpt lat="45.1988659" lon="8.5556714"><ele>104.5</ele><time>2026-03-29T13:55:29.683Z</time></trkpt><trkpt lat="45.1989503" lon="8.5556872"><ele>104.33333333333333</ele><time>2026-03-29T13:55:30.691Z</time></trkpt><trkpt lat="45.1990343" lon="8.5556936"><ele>104.16666666666666</ele><time>2026-03-29T13:55:31.687Z</time></trkpt><trkpt lat="45.1991232" lon="8.5556956"><ele>104.0</ele><time>2026-03-29T13:55:32.689Z</time></trkpt><trkpt lat="45.1992084" lon="8.5557015"><ele>103.66666666666666</ele><time>2026-03-29T13:55:33.685Z</time></trkpt><trkpt lat="45.1992976" lon="8.5557072"><ele>103.33333333333333</ele><time>2026-03-29T13:55:34.692Z</time></trkpt><trkpt lat="45.1993879" lon="8.5557136"><ele>103.0</ele><time>2026-03-29T13:55:35.689Z</time></trkpt><trkpt lat="45.1994774" lon="8.5557181"><ele>102.66666666666666</ele><time>2026-03-29T13:55:36.693Z</time></trkpt><trkpt lat="45.1995668" lon="8.5557236"><ele>102.33333333333333</ele><time>2026-03-29T13:55:37.69Z</time></trkpt><trkpt lat="45.199656" lon="8.5557288"><ele>102.0</ele><time>2026-03-29T13:55:38.689Z</time></trkpt><trkpt lat="45.1997466" lon="8.5557331"><ele>102.19999999999999</ele><time>2026-03-29T13:55:39.687Z</time></trkpt><trkpt lat="45.1998388" lon="8.5557395"><ele>102.4</ele><time>2026-03-29T13:55:40.685Z</time></trkpt><trkpt lat="45.1999322" lon="8.5557493"><ele>102.6</ele><time>2026-03-29T13:55:41.681Z</time></trkpt><trkpt lat="45.2000235" lon="8.5557546"><ele>102.80000000000001</ele><time>2026-03-29T13:55:42.685Z</time></trkpt><trkpt lat="45.2001214" lon="8.5557596"><ele>103.0</ele><time>2026-03-29T13:55:43.687Z</time></trkpt><trkpt lat="45.2002157" lon="8.5557631"><ele>103.0</ele><time>2026-03-29T13:55:44.681Z</time></trkpt><trkpt lat="45.2003155" lon="8.5557687"><ele>103.0</ele><time>2026-03-29T13:55:45.693Z</time></trkpt><trkpt lat="45.2004054" lon="8.5557768"><ele>103.0</ele><time>2026-03-29T13:55:46.681Z</time></trkpt><trkpt lat="45.2005037" lon="8.5557872"><ele>103.0</ele><time>2026-03-29T13:55:47.691Z</time></trkpt><trkpt lat="45.2005996" lon="8.5557968"><ele>103.0</ele><time>2026-03-29T13:55:48.686Z</time></trkpt><trkpt lat="45.2006994" lon="8.5558156"><ele>103.2</ele><time>2026-03-29T13:55:49.689Z</time></trkpt><trkpt lat="45.2007949" lon="8.5558386"><ele>103.4</ele><time>2026-03-29T13:55:50.684Z</time></trkpt><trkpt lat="45.2008886" lon="8.5558686"><ele>103.60000000000001</ele><time>2026-03-29T13:55:51.689Z</time></trkpt><trkpt lat="45.2009837" lon="8.5558981"><ele>103.80000000000001</ele><time>2026-03-29T13:55:52.688Z</time></trkpt><trkpt lat="45.2010793" lon="8.5559275"><ele>104.0</ele><time>2026-03-29T13:55:53.69Z</time></trkpt><trkpt lat="45.201176" lon="8.555957"><ele>104.0</ele><time>2026-03-29T13:55:54.692Z</time></trkpt><trkpt lat="45.2012701" lon="8.5559841"><ele>104.0</ele><time>2026-03-29T13:55:55.694Z</time></trkpt><trkpt lat="45.2013632" lon="8.5560096"><ele>104.0</ele><time>2026-03-29T13:55:56.686Z</time></trkpt><trkpt lat="45.2014571" lon="8.5560311"><ele>104.0</ele><time>2026-03-29T13:55:57.687Z</time></trkpt><trkpt lat="45.2015498" lon="8.5560545"><ele>104.0</ele><time>2026-03-29T13:55:58.684Z</time></trkpt><trkpt lat="45.2016415" lon="8.5560791"><ele>104.4</ele><time>2026-03-29T13:55:59.696Z</time></trkpt><trkpt lat="45.2017302" lon="8.5560973"><ele>104.80000000000001</ele><time>2026-03-29T13:56:00.692Z</time></trkpt><trkpt lat="45.2018169" lon="8.5561074"><ele>105.19999999999999</ele><time>2026-03-29T13:56:01.683Z</time></trkpt><trkpt lat="45.2019127" lon="8.5561083"><ele>105.6</ele><time>2026-03-29T13:56:02.691Z</time></trkpt><trkpt lat="45.2019999" lon="8.5561044"><ele>106.0</ele><time>2026-03-29T13:56:03.691Z</time></trkpt><trkpt lat="45.2020942" lon="8.5560911"><ele>106.0</ele><time>2026-03-29T13:56:04.685Z</time></trkpt><trkpt lat="45.2021883" lon="8.5560839"><ele>106.0</ele><time>2026-03-29T13:56:05.688Z</time></trkpt><trkpt lat="45.2022905" lon="8.5560732"><ele>106.0</ele><time>2026-03-29T13:56:06.693Z</time></trkpt><trkpt lat="45.2023908" lon="8.556067"><ele>106.0</ele><time>2026-03-29T13:56:07.683Z</time></trkpt><trkpt lat="45.2024928" lon="8.5560605"><ele>106.0</ele><time>2026-03-29T13:56:08.681Z</time></trkpt><trkpt lat="45.2026015" lon="8.5560549"><ele>105.6</ele><time>2026-03-29T13:56:09.686Z</time></trkpt><trkpt lat="45.2027039" lon="8.556046"><ele>105.19999999999999</ele><time>2026-03-29T13:56:10.686Z</time></trkpt><trkpt lat="45.202801" lon="8.5560383"><ele>104.80000000000001</ele><time>2026-03-29T13:56:11.685Z</time></trkpt><trkpt lat="45.2028977" lon="8.5560293"><ele>104.4</ele><time>2026-03-29T13:56:12.696Z</time></trkpt><trkpt lat="45.2029935" lon="8.5560233"><ele>104.0</ele><time>2026-03-29T13:56:13.681Z</time></trkpt><trkpt lat="45.2030914" lon="8.5560166"><ele>104.0</ele><time>2026-03-29T13:56:14.686Z</time></trkpt><trkpt lat="45.2031885" lon="8.5560076"><ele>104.0</ele><time>2026-03-29T13:56:15.689Z</time></trkpt><trkpt lat="45.2032868" lon="8.5560001"><ele>104.0</ele><time>2026-03-29T13:56:16.692Z</time></trkpt><trkpt lat="45.2033792" lon="8.5559961"><ele>104.0</ele><time>2026-03-29T13:56:17.688Z</time></trkpt><trkpt lat="45.2034703" lon="8.555991"><ele>104.0</ele><time>2026-03-29T13:56:18.688Z</time></trkpt><trkpt lat="45.2035595" lon="8.5559866"><ele>104.0</ele><time>2026-03-29T13:56:19.687Z</time></trkpt><trkpt lat="45.2036538" lon="8.5559786"><ele>104.0</ele><time>2026-03-29T13:56:20.712Z</time></trkpt><trkpt lat="45.2037469" lon="8.5559729"><ele>104.0</ele><time>2026-03-29T13:56:21.689Z</time></trkpt><trkpt lat="45.2038419" lon="8.5559678"><ele>104.0</ele><time>2026-03-29T13:56:22.688Z</time></trkpt><trkpt lat="45.2039352" lon="8.5559626"><ele>104.0</ele><time>2026-03-29T13:56:23.684Z</time></trkpt><trkpt lat="45.2040262" lon="8.5559598"><ele>103.99999999999999</ele><time>2026-03-29T13:56:24.69Z</time></trkpt><trkpt lat="45.2041209" lon="8.5559568"><ele>104.0</ele><time>2026-03-29T13:56:25.698Z</time></trkpt><trkpt lat="45.2042082" lon="8.5559525"><ele>104.0</ele><time>2026-03-29T13:56:26.691Z</time></trkpt><trkpt lat="45.2042945" lon="8.5559485"><ele>104.0</ele><time>2026-03-29T13:56:27.684Z</time></trkpt><trkpt lat="45.2043789" lon="8.5559468"><ele>103.99999999999999</ele><time>2026-03-29T13:56:28.689Z</time></trkpt><trkpt lat="45.2044617" lon="8.555947"><ele>104.0</ele><time>2026-03-29T13:56:29.685Z</time></trkpt><trkpt lat="45.2045476" lon="8.5559532"><ele>103.99999999999999</ele><time>2026-03-29T13:56:30.688Z</time></trkpt><trkpt lat="45.2046346" lon="8.555952"><ele>104.0</ele><time>2026-03-29T13:56:31.685Z</time></trkpt><trkpt lat="45.2047186" lon="8.5559413"><ele>104.0</ele><time>2026-03-29T13:56:32.697Z</time></trkpt><trkpt lat="45.2047998" lon="8.5559111"><ele>104.0</ele><time>2026-03-29T13:56:33.686Z</time></trkpt><trkpt lat="45.2048816" lon="8.5558667"><ele>103.99999999999999</ele><time>2026-03-29T13:56:34.692Z</time></trkpt><trkpt lat="45.2049631" lon="8.5558101"><ele>104.0</ele><time>2026-03-29T13:56:35.693Z</time></trkpt><trkpt lat="45.2050444" lon="8.5557455"><ele>104.0</ele><time>2026-03-29T13:56:36.693Z</time></trkpt><trkpt lat="45.2051269" lon="8.5556776"><ele>104.0</ele><time>2026-03-29T13:56:37.685Z</time></trkpt><trkpt lat="45.2052074" lon="8.555607"><ele>104.0</ele><time>2026-03-29T13:56:38.687Z</time></trkpt><trkpt lat="45.2052851" lon="8.5555336"><ele>104.0</ele><time>2026-03-29T13:56:39.692Z</time></trkpt><trkpt lat="45.2053589" lon="8.5554553"><ele>104.0</ele><time>2026-03-29T13:56:40.692Z</time></trkpt><trkpt lat="45.2054298" lon="8.5553694"><ele>104.2</ele><time>2026-03-29T13:56:41.687Z</time></trkpt><trkpt lat="45.2055002" lon="8.5552795"><ele>104.4</ele><time>2026-03-29T13:56:42.688Z</time></trkpt><trkpt lat="45.2055707" lon="8.5551902"><ele>104.6</ele><time>2026-03-29T13:56:43.682Z</time></trkpt><trkpt lat="45.2056412" lon="8.5550946"><ele>104.8</ele><time>2026-03-29T13:56:44.687Z</time></trkpt><trkpt lat="45.2057153" lon="8.5550006"><ele>105.0</ele><time>2026-03-29T13:56:45.691Z</time></trkpt><trkpt lat="45.2057975" lon="8.5549211"><ele>105.0</ele><time>2026-03-29T13:56:46.707Z</time></trkpt><trkpt lat="45.205879" lon="8.5548645"><ele>105.0</ele><time>2026-03-29T13:56:47.69Z</time></trkpt><trkpt lat="45.2059651" lon="8.5548252"><ele>105.0</ele><time>2026-03-29T13:56:48.688Z</time></trkpt><trkpt lat="45.2060552" lon="8.5548002"><ele>105.0</ele><time>2026-03-29T13:56:49.685Z</time></trkpt><trkpt lat="45.2061444" lon="8.5547947"><ele>105.0</ele><time>2026-03-29T13:56:50.689Z</time></trkpt><trkpt lat="45.2062251" lon="8.5548196"><ele>105.0</ele><time>2026-03-29T13:56:51.689Z</time></trkpt><trkpt lat="45.2063019" lon="8.5548699"><ele>105.0</ele><time>2026-03-29T13:56:52.688Z</time></trkpt><trkpt lat="45.2063714" lon="8.5549422"><ele>105.0</ele><time>2026-03-29T13:56:53.692Z</time></trkpt><trkpt lat="45.2064306" lon="8.5550201"><ele>105.0</ele><time>2026-03-29T13:56:54.692Z</time></trkpt><trkpt lat="45.2064937" lon="8.5551041"><ele>105.0</ele><time>2026-03-29T13:56:55.691Z</time></trkpt><trkpt lat="45.20656" lon="8.5551914"><ele>105.0</ele><time>2026-03-29T13:56:56.691Z</time></trkpt><trkpt lat="45.2066248" lon="8.5552753"><ele>105.0</ele><time>2026-03-29T13:56:57.683Z</time></trkpt><trkpt lat="45.2066952" lon="8.5553567"><ele>104.83333333333333</ele><time>2026-03-29T13:56:58.691Z</time></trkpt><trkpt lat="45.2067646" lon="8.5554336"><ele>104.66666666666666</ele><time>2026-03-29T13:56:59.689Z</time></trkpt><trkpt lat="45.2068361" lon="8.5555127"><ele>104.5</ele><time>2026-03-29T13:57:00.695Z</time></trkpt><trkpt lat="45.2068993" lon="8.5555914"><ele>104.33333333333333</ele><time>2026-03-29T13:57:01.689Z</time></trkpt><trkpt lat="45.2069546" lon="8.5556831"><ele>104.16666666666666</ele><time>2026-03-29T13:57:02.7Z</time></trkpt><trkpt lat="45.2070033" lon="8.5557873"><ele>104.0</ele><time>2026-03-29T13:57:03.691Z</time></trkpt><trkpt lat="45.2070403" lon="8.5559031"><ele>103.99999999999999</ele><time>2026-03-29T13:57:04.686Z</time></trkpt><trkpt lat="45.2070645" lon="8.5560269"><ele>104.0</ele><time>2026-03-29T13:57:05.69Z</time></trkpt><trkpt lat="45.2070823" lon="8.5561492"><ele>104.0</ele><time>2026-03-29T13:57:06.685Z</time></trkpt><trkpt lat="45.2070965" lon="8.5562706"><ele>104.0</ele><time>2026-03-29T13:57:07.689Z</time></trkpt><trkpt lat="45.2071098" lon="8.5563911"><ele>103.99999999999999</ele><time>2026-03-29T13:57:08.694Z</time></trkpt><trkpt lat="45.2071237" lon="8.5565166"><ele>104.0</ele><time>2026-03-29T13:57:09.693Z</time></trkpt><trkpt lat="45.2071447" lon="8.5566381"><ele>104.2</ele><time>2026-03-29T13:57:10.689Z</time></trkpt><trkpt lat="45.2071712" lon="8.5567618"><ele>104.4</ele><time>2026-03-29T13:57:11.697Z</time></trkpt><trkpt lat="45.2072051" lon="8.556882"><ele>104.6</ele><time>2026-03-29T13:57:12.688Z</time></trkpt><trkpt lat="45.2072395" lon="8.557002"><ele>104.8</ele><time>2026-03-29T13:57:13.686Z</time></trkpt><trkpt lat="45.2072771" lon="8.5571268"><ele>105.0</ele><time>2026-03-29T13:57:14.69Z</time></trkpt><trkpt lat="45.2073154" lon="8.5572479"><ele>105.0</ele><time>2026-03-29T13:57:15.69Z</time></trkpt><trkpt lat="45.207355" lon="8.5573721"><ele>105.0</ele><time>2026-03-29T13:57:16.695Z</time></trkpt><trkpt lat="45.2073913" lon="8.5574985"><ele>105.0</ele><time>2026-03-29T13:57:17.687Z</time></trkpt><trkpt lat="45.2074258" lon="8.557627"><ele>105.0</ele><time>2026-03-29T13:57:18.685Z</time></trkpt><trkpt lat="45.2074548" lon="8.5577631"><ele>105.0</ele><time>2026-03-29T13:57:19.686Z</time></trkpt><trkpt lat="45.2074804" lon="8.5578972"><ele>104.8</ele><time>2026-03-29T13:57:20.686Z</time></trkpt><trkpt lat="45.207502" lon="8.5580352"><ele>104.6</ele><time>2026-03-29T13:57:21.697Z</time></trkpt><trkpt lat="45.2075236" lon="8.5581736"><ele>104.4</ele><time>2026-03-29T13:57:22.691Z</time></trkpt><trkpt lat="45.2075461" lon="8.5583132"><ele>104.2</ele><time>2026-03-29T13:57:23.69Z</time></trkpt><trkpt lat="45.2075689" lon="8.5584476"><ele>104.0</ele><time>2026-03-29T13:57:24.69Z</time></trkpt><trkpt lat="45.2075904" lon="8.5585878"><ele>103.80000000000001</ele><time>2026-03-29T13:57:25.695Z</time></trkpt><trkpt lat="45.2076118" lon="8.5587253"><ele>103.60000000000001</ele><time>2026-03-29T13:57:26.688Z</time></trkpt><trkpt lat="45.2076311" lon="8.5588657"><ele>103.4</ele><time>2026-03-29T13:57:27.687Z</time></trkpt><trkpt lat="45.2076459" lon="8.5590064"><ele>103.2</ele><time>2026-03-29T13:57:28.687Z</time></trkpt><trkpt lat="45.20766" lon="8.559149"><ele>103.0</ele><time>2026-03-29T13:57:29.69Z</time></trkpt><trkpt lat="45.2076723" lon="8.5592948"><ele>103.0</ele><time>2026-03-29T13:57:30.7Z</time></trkpt><trkpt lat="45.207688" lon="8.5594342"><ele>103.0</ele><time>2026-03-29T13:57:31.692Z</time></trkpt><trkpt lat="45.2077021" lon="8.5595738"><ele>103.0</ele><time>2026-03-29T13:57:32.689Z</time></trkpt><trkpt lat="45.2077169" lon="8.559712"><ele>103.0</ele><time>2026-03-29T13:57:33.693Z</time></trkpt><trkpt lat="45.207731" lon="8.5598357"><ele>103.0</ele><time>2026-03-29T13:57:34.693Z</time></trkpt><trkpt lat="45.2077464" lon="8.5599475"><ele>103.00000000000001</ele><time>2026-03-29T13:57:35.687Z</time></trkpt><trkpt lat="45.2077704" lon="8.5600521"><ele>103.0</ele><time>2026-03-29T13:57:36.689Z</time></trkpt><trkpt lat="45.2078074" lon="8.560145"><ele>103.0</ele><time>2026-03-29T13:57:37.69Z</time></trkpt><trkpt lat="45.2078601" lon="8.5602267"><ele>103.0</ele><time>2026-03-29T13:57:38.688Z</time></trkpt><trkpt lat="45.2079243" lon="8.5602956"><ele>103.00000000000001</ele><time>2026-03-29T13:57:39.681Z</time></trkpt><trkpt lat="45.2079988" lon="8.5603507"><ele>103.0</ele><time>2026-03-29T13:57:40.701Z</time></trkpt><trkpt lat="45.2080761" lon="8.5603915"><ele>103.4</ele><time>2026-03-29T13:57:41.687Z</time></trkpt><trkpt lat="45.2081607" lon="8.5604307"><ele>103.80000000000001</ele><time>2026-03-29T13:57:42.687Z</time></trkpt><trkpt lat="45.2082458" lon="8.5604689"><ele>104.2</ele><time>2026-03-29T13:57:43.69Z</time></trkpt><trkpt lat="45.2083332" lon="8.5605049"><ele>104.6</ele><time>2026-03-29T13:57:44.687Z</time></trkpt><trkpt lat="45.2084221" lon="8.5605352"><ele>105.0</ele><time>2026-03-29T13:57:45.689Z</time></trkpt><trkpt lat="45.2085114" lon="8.5605683"><ele>105.0</ele><time>2026-03-29T13:57:46.687Z</time></trkpt><trkpt lat="45.2086064" lon="8.5605984"><ele>105.0</ele><time>2026-03-29T13:57:47.687Z</time></trkpt><trkpt lat="45.2087029" lon="8.560628"><ele>105.0</ele><time>2026-03-29T13:57:48.708Z</time></trkpt><trkpt lat="45.2087956" lon="8.5606534"><ele>105.0</ele><time>2026-03-29T13:57:49.684Z</time></trkpt><trkpt lat="45.2088903" lon="8.5606704"><ele>105.0</ele><time>2026-03-29T13:57:50.688Z</time></trkpt><trkpt lat="45.208985" lon="8.5606797"><ele>105.0</ele><time>2026-03-29T13:57:51.686Z</time></trkpt><trkpt lat="45.2090806" lon="8.5606881"><ele>105.0</ele><time>2026-03-29T13:57:52.689Z</time></trkpt><trkpt lat="45.2091765" lon="8.5606928"><ele>105.0</ele><time>2026-03-29T13:57:53.689Z</time></trkpt><trkpt lat="45.2092735" lon="8.560697"><ele>105.0</ele><time>2026-03-29T13:57:54.697Z</time></trkpt><trkpt lat="45.2093729" lon="8.5606987"><ele>105.0</ele><time>2026-03-29T13:57:55.692Z</time></trkpt><trkpt lat="45.2094744" lon="8.5606933"><ele>105.0</ele><time>2026-03-29T13:57:56.69Z</time></trkpt><trkpt lat="45.2095771" lon="8.5606847"><ele>105.0</ele><time>2026-03-29T13:57:57.691Z</time></trkpt><trkpt lat="45.2096764" lon="8.5606712"><ele>105.0</ele><time>2026-03-29T13:57:58.691Z</time></trkpt><trkpt lat="45.2097768" lon="8.5606546"><ele>105.0</ele><time>2026-03-29T13:57:59.682Z</time></trkpt><trkpt lat="45.2098774" lon="8.5606367"><ele>105.0</ele><time>2026-03-29T13:58:00.705Z</time></trkpt><trkpt lat="45.2099777" lon="8.5606117"><ele>104.8</ele><time>2026-03-29T13:58:01.705Z</time></trkpt><trkpt lat="45.2100756" lon="8.5605831"><ele>104.6</ele><time>2026-03-29T13:58:02.704Z</time></trkpt><trkpt lat="45.2101693" lon="8.5605498"><ele>104.4</ele><time>2026-03-29T13:58:03.7Z</time></trkpt><trkpt lat="45.2102652" lon="8.5605078"><ele>104.2</ele><time>2026-03-29T13:58:04.701Z</time></trkpt><trkpt lat="45.2103577" lon="8.5604597"><ele>104.0</ele><time>2026-03-29T13:58:05.698Z</time></trkpt><trkpt lat="45.2104555" lon="8.5604032"><ele>104.4</ele><time>2026-03-29T13:58:06.739Z</time></trkpt><trkpt lat="45.2105439" lon="8.560346"><ele>104.80000000000001</ele><time>2026-03-29T13:58:07.701Z</time></trkpt><trkpt lat="45.2106376" lon="8.5602892"><ele>105.19999999999999</ele><time>2026-03-29T13:58:08.705Z</time></trkpt><trkpt lat="45.2107318" lon="8.5602346"><ele>105.6</ele><time>2026-03-29T13:58:09.705Z</time></trkpt><trkpt lat="45.2108265" lon="8.5601867"><ele>106.0</ele><time>2026-03-29T13:58:10.697Z</time></trkpt><trkpt lat="45.2109214" lon="8.5601441"><ele>106.0</ele><time>2026-03-29T13:58:11.697Z</time></trkpt><trkpt lat="45.2110196" lon="8.5601131"><ele>106.0</ele><time>2026-03-29T13:58:12.709Z</time></trkpt><trkpt lat="45.2111156" lon="8.5600938"><ele>106.0</ele><time>2026-03-29T13:58:13.709Z</time></trkpt><trkpt lat="45.2112106" lon="8.5600779"><ele>106.0</ele><time>2026-03-29T13:58:14.705Z</time></trkpt><trkpt lat="45.2113039" lon="8.5600629"><ele>106.0</ele><time>2026-03-29T13:58:15.708Z</time></trkpt><trkpt lat="45.2113969" lon="8.5600411"><ele>106.00000000000001</ele><time>2026-03-29T13:58:16.704Z</time></trkpt><trkpt lat="45.2114878" lon="8.5600173"><ele>106.0</ele><time>2026-03-29T13:58:17.708Z</time></trkpt><trkpt lat="45.2115746" lon="8.5599981"><ele>106.0</ele><time>2026-03-29T13:58:18.698Z</time></trkpt><trkpt lat="45.2116606" lon="8.5599805"><ele>106.0</ele><time>2026-03-29T13:58:19.702Z</time></trkpt><trkpt lat="45.2117397" lon="8.5599667"><ele>106.00000000000001</ele><time>2026-03-29T13:58:20.707Z</time></trkpt><trkpt lat="45.2118097" lon="8.5599556"><ele>106.0</ele><time>2026-03-29T13:58:21.702Z</time></trkpt><trkpt lat="45.211927" lon="8.5599411"><ele>106.19999999999999</ele><time>2026-03-29T13:58:23.702Z</time></trkpt><trkpt lat="45.2120423" lon="8.5599456"><ele>106.39999999999999</ele><time>2026-03-29T13:58:25.704Z</time></trkpt><trkpt lat="45.2121226" lon="8.5599557"><ele>106.6</ele><time>2026-03-29T13:58:27.703Z</time></trkpt><trkpt lat="45.2121979" lon="8.5599522"><ele>106.8</ele><time>2026-03-29T13:58:44.708Z</time></trkpt><trkpt lat="45.2122328" lon="8.5598581"><ele>107.0</ele><time>2026-03-29T13:58:46.709Z</time></trkpt><trkpt lat="45.2122503" lon="8.5596836"><ele>106.99999999999999</ele><time>2026-03-29T13:58:48.702Z</time></trkpt><trkpt lat="45.2122567" lon="8.5595844"><ele>107.0</ele><time>2026-03-29T13:58:49.702Z</time></trkpt><trkpt lat="45.212267" lon="8.5594768"><ele>107.0</ele><time>2026-03-29T13:58:50.699Z</time></trkpt><trkpt lat="45.2122801" lon="8.5593639"><ele>107.0</ele><time>2026-03-29T13:58:51.709Z</time></trkpt><trkpt lat="45.2122938" lon="8.5592483"><ele>106.99999999999999</ele><time>2026-03-29T13:58:52.703Z</time></trkpt><trkpt lat="45.2123104" lon="8.5591309"><ele>107.0</ele><time>2026-03-29T13:58:53.702Z</time></trkpt><trkpt lat="45.2123207" lon="8.5590094"><ele>107.0</ele><time>2026-03-29T13:58:54.696Z</time></trkpt><trkpt lat="45.2123296" lon="8.5588798"><ele>106.99999999999999</ele><time>2026-03-29T13:58:55.704Z</time></trkpt><trkpt lat="45.2123347" lon="8.5587475"><ele>106.99999999999999</ele><time>2026-03-29T13:58:56.708Z</time></trkpt><trkpt lat="45.2123413" lon="8.5586152"><ele>107.0</ele><time>2026-03-29T13:58:57.707Z</time></trkpt><trkpt lat="45.2123464" lon="8.5584808"><ele>107.0</ele><time>2026-03-29T13:58:58.701Z</time></trkpt><trkpt lat="45.2123513" lon="8.5583421"><ele>107.0</ele><time>2026-03-29T13:58:59.702Z</time></trkpt><trkpt lat="45.2123525" lon="8.558203"><ele>106.99999999999999</ele><time>2026-03-29T13:59:00.706Z</time></trkpt><trkpt lat="45.2123548" lon="8.5580661"><ele>106.99999999999999</ele><time>2026-03-29T13:59:01.706Z</time></trkpt><trkpt lat="45.2123512" lon="8.5579279"><ele>107.0</ele><time>2026-03-29T13:59:02.706Z</time></trkpt><trkpt lat="45.2123476" lon="8.5577878"><ele>107.0</ele><time>2026-03-29T13:59:03.7Z</time></trkpt><trkpt lat="45.2123409" lon="8.5576492"><ele>107.0</ele><time>2026-03-29T13:59:04.7Z</time></trkpt><trkpt lat="45.2123359" lon="8.5575081"><ele>106.99999999999999</ele><time>2026-03-29T13:59:05.703Z</time></trkpt><trkpt lat="45.2123268" lon="8.5573657"><ele>106.99999999999999</ele><time>2026-03-29T13:59:06.703Z</time></trkpt><trkpt lat="45.212314" lon="8.5572245"><ele>107.0</ele><time>2026-03-29T13:59:07.703Z</time></trkpt><trkpt lat="45.2123016" lon="8.5570833"><ele>107.0</ele><time>2026-03-29T13:59:08.709Z</time></trkpt><trkpt lat="45.2122898" lon="8.5569422"><ele>106.39999999999999</ele><time>2026-03-29T13:59:09.703Z</time></trkpt><trkpt lat="45.2122765" lon="8.5567993"><ele>105.79999999999998</ele><time>2026-03-29T13:59:10.71Z</time></trkpt><trkpt lat="45.2122625" lon="8.5566623"><ele>105.2</ele><time>2026-03-29T13:59:11.703Z</time></trkpt><trkpt lat="45.212246" lon="8.556526"><ele>104.6</ele><time>2026-03-29T13:59:12.702Z</time></trkpt><trkpt lat="45.2122283" lon="8.5563912"><ele>104.0</ele><time>2026-03-29T13:59:13.701Z</time></trkpt><trkpt lat="45.2122068" lon="8.5562565"><ele>104.4</ele><time>2026-03-29T13:59:14.696Z</time></trkpt><trkpt lat="45.2121838" lon="8.55612"><ele>104.80000000000001</ele><time>2026-03-29T13:59:15.702Z</time></trkpt><trkpt lat="45.2121609" lon="8.5559871"><ele>105.19999999999999</ele><time>2026-03-29T13:59:16.696Z</time></trkpt><trkpt lat="45.2121367" lon="8.5558516"><ele>105.6</ele><time>2026-03-29T13:59:17.7Z</time></trkpt><trkpt lat="45.2121109" lon="8.5557131"><ele>106.0</ele><time>2026-03-29T13:59:18.706Z</time></trkpt><trkpt lat="45.2120825" lon="8.5555806"><ele>106.0</ele><time>2026-03-29T13:59:19.7Z</time></trkpt><trkpt lat="45.2120508" lon="8.555443"><ele>106.0</ele><time>2026-03-29T13:59:20.704Z</time></trkpt><trkpt lat="45.2120165" lon="8.5553027"><ele>106.0</ele><time>2026-03-29T13:59:21.704Z</time></trkpt><trkpt lat="45.2119808" lon="8.5551659"><ele>106.0</ele><time>2026-03-29T13:59:22.706Z</time></trkpt><trkpt lat="45.2119418" lon="8.5550244"><ele>106.0</ele><time>2026-03-29T13:59:23.7Z</time></trkpt><trkpt lat="45.2119004" lon="8.5548811"><ele>105.8</ele><time>2026-03-29T13:59:24.697Z</time></trkpt><trkpt lat="45.2118579" lon="8.5547391"><ele>105.6</ele><time>2026-03-29T13:59:25.698Z</time></trkpt><trkpt lat="45.2118138" lon="8.5545956"><ele>105.4</ele><time>2026-03-29T13:59:26.706Z</time></trkpt><trkpt lat="45.2117681" lon="8.5544515"><ele>105.2</ele><time>2026-03-29T13:59:27.707Z</time></trkpt><trkpt lat="45.2117241" lon="8.5543114"><ele>105.0</ele><time>2026-03-29T13:59:28.706Z</time></trkpt><trkpt lat="45.2116766" lon="8.5541685"><ele>105.0</ele><time>2026-03-29T13:59:29.708Z</time></trkpt><trkpt lat="45.2116287" lon="8.5540274"><ele>105.0</ele><time>2026-03-29T13:59:30.708Z</time></trkpt><trkpt lat="45.211576" lon="8.5538883"><ele>105.0</ele><time>2026-03-29T13:59:31.705Z</time></trkpt><trkpt lat="45.21152" lon="8.5537463"><ele>105.0</ele><time>2026-03-29T13:59:32.708Z</time></trkpt><trkpt lat="45.2114642" lon="8.5536053"><ele>104.75</ele><time>2026-03-29T13:59:33.703Z</time></trkpt><trkpt lat="45.2114063" lon="8.5534632"><ele>104.5</ele><time>2026-03-29T13:59:34.715Z</time></trkpt><trkpt lat="45.2113492" lon="8.5533259"><ele>104.25</ele><time>2026-03-29T13:59:35.702Z</time></trkpt><trkpt lat="45.2112865" lon="8.5531889"><ele>104.0</ele><time>2026-03-29T13:59:36.709Z</time></trkpt><trkpt lat="45.2112214" lon="8.5530542"><ele>104.0</ele><time>2026-03-29T13:59:37.705Z</time></trkpt><trkpt lat="45.2111541" lon="8.5529215"><ele>104.0</ele><time>2026-03-29T13:59:38.696Z</time></trkpt><trkpt lat="45.2110849" lon="8.5527838"><ele>104.0</ele><time>2026-03-29T13:59:39.704Z</time></trkpt><trkpt lat="45.2110199" lon="8.5526477"><ele>104.0</ele><time>2026-03-29T13:59:40.708Z</time></trkpt><trkpt lat="45.2109515" lon="8.5525141"><ele>104.0</ele><time>2026-03-29T13:59:41.705Z</time></trkpt><trkpt lat="45.2108829" lon="8.5523787"><ele>104.0</ele><time>2026-03-29T13:59:42.712Z</time></trkpt><trkpt lat="45.2108137" lon="8.5522432"><ele>104.0</ele><time>2026-03-29T13:59:43.705Z</time></trkpt><trkpt lat="45.2107414" lon="8.5521055"><ele>104.0</ele><time>2026-03-29T13:59:44.711Z</time></trkpt><trkpt lat="45.2106722" lon="8.5519733"><ele>104.25</ele><time>2026-03-29T13:59:45.702Z</time></trkpt><trkpt lat="45.2106017" lon="8.5518402"><ele>104.5</ele><time>2026-03-29T13:59:46.702Z</time></trkpt><trkpt lat="45.2105332" lon="8.5517021"><ele>104.75</ele><time>2026-03-29T13:59:47.703Z</time></trkpt><trkpt lat="45.2104627" lon="8.5515688"><ele>105.0</ele><time>2026-03-29T13:59:48.701Z</time></trkpt><trkpt lat="45.2103925" lon="8.5514309"><ele>105.0</ele><time>2026-03-29T13:59:49.707Z</time></trkpt><trkpt lat="45.2103247" lon="8.5512943"><ele>105.0</ele><time>2026-03-29T13:59:50.701Z</time></trkpt><trkpt lat="45.2102563" lon="8.551154"><ele>105.0</ele><time>2026-03-29T13:59:51.71Z</time></trkpt><trkpt lat="45.2101876" lon="8.5510183"><ele>105.0</ele><time>2026-03-29T13:59:52.701Z</time></trkpt><trkpt lat="45.2101189" lon="8.5508833"><ele>105.0</ele><time>2026-03-29T13:59:53.702Z</time></trkpt><trkpt lat="45.2100485" lon="8.55075"><ele>105.0</ele><time>2026-03-29T13:59:54.702Z</time></trkpt><trkpt lat="45.2099761" lon="8.5506142"><ele>105.0</ele><time>2026-03-29T13:59:55.711Z</time></trkpt><trkpt lat="45.2099056" lon="8.5504772"><ele>105.0</ele><time>2026-03-29T13:59:56.706Z</time></trkpt><trkpt lat="45.2098359" lon="8.5503431"><ele>105.0</ele><time>2026-03-29T13:59:57.704Z</time></trkpt><trkpt lat="45.2097663" lon="8.550205"><ele>105.0</ele><time>2026-03-29T13:59:58.712Z</time></trkpt><trkpt lat="45.2096973" lon="8.5500723"><ele>105.0</ele><time>2026-03-29T13:59:59.699Z</time></trkpt><trkpt lat="45.2096273" lon="8.5499386"><ele>105.0</ele><time>2026-03-29T14:00:00.711Z</time></trkpt><trkpt lat="45.2095606" lon="8.5498087"><ele>105.0</ele><time>2026-03-29T14:00:01.701Z</time></trkpt><trkpt lat="45.2094952" lon="8.5496762"><ele>105.0</ele><time>2026-03-29T14:00:02.706Z</time></trkpt><trkpt lat="45.2094285" lon="8.5495444"><ele>105.0</ele><time>2026-03-29T14:00:03.707Z</time></trkpt><trkpt lat="45.2093593" lon="8.549413"><ele>105.0</ele><time>2026-03-29T14:00:04.709Z</time></trkpt><trkpt lat="45.2092895" lon="8.5492792"><ele>105.0</ele><time>2026-03-29T14:00:05.711Z</time></trkpt><trkpt lat="45.2092192" lon="8.5491482"><ele>105.0</ele><time>2026-03-29T14:00:06.709Z</time></trkpt><trkpt lat="45.2091509" lon="8.5490181"><ele>105.0</ele><time>2026-03-29T14:00:07.702Z</time></trkpt><trkpt lat="45.2090861" lon="8.5488909"><ele>105.0</ele><time>2026-03-29T14:00:08.708Z</time></trkpt><trkpt lat="45.2090267" lon="8.5487716"><ele>105.0</ele><time>2026-03-29T14:00:09.703Z</time></trkpt><trkpt lat="45.2089663" lon="8.5486556"><ele>105.0</ele><time>2026-03-29T14:00:10.709Z</time></trkpt><trkpt lat="45.2089069" lon="8.5485457"><ele>105.0</ele><time>2026-03-29T14:00:11.705Z</time></trkpt><trkpt lat="45.2088454" lon="8.5484318"><ele>105.0</ele><time>2026-03-29T14:00:12.705Z</time></trkpt><trkpt lat="45.2087858" lon="8.5483134"><ele>105.0</ele><time>2026-03-29T14:00:13.7Z</time></trkpt><trkpt lat="45.2087244" lon="8.5481933"><ele>105.0</ele><time>2026-03-29T14:00:14.705Z</time></trkpt><trkpt lat="45.2086637" lon="8.5480789"><ele>105.0</ele><time>2026-03-29T14:00:15.704Z</time></trkpt><trkpt lat="45.2085997" lon="8.5479593"><ele>105.0</ele><time>2026-03-29T14:00:16.727Z</time></trkpt><trkpt lat="45.2085379" lon="8.5478437"><ele>105.0</ele><time>2026-03-29T14:00:17.701Z</time></trkpt><trkpt lat="45.2084727" lon="8.5477211"><ele>105.0</ele><time>2026-03-29T14:00:18.707Z</time></trkpt><trkpt lat="45.2084103" lon="8.5475957"><ele>105.0</ele><time>2026-03-29T14:00:19.704Z</time></trkpt><trkpt lat="45.2083463" lon="8.5474737"><ele>105.0</ele><time>2026-03-29T14:00:20.704Z</time></trkpt><trkpt lat="45.2082824" lon="8.5473541"><ele>105.0</ele><time>2026-03-29T14:00:21.702Z</time></trkpt><trkpt lat="45.2082192" lon="8.5472365"><ele>105.0</ele><time>2026-03-29T14:00:22.702Z</time></trkpt><trkpt lat="45.2081559" lon="8.547118"><ele>105.0</ele><time>2026-03-29T14:00:23.704Z</time></trkpt><trkpt lat="45.2080937" lon="8.5470007"><ele>105.0</ele><time>2026-03-29T14:00:24.7Z</time></trkpt><trkpt lat="45.2080318" lon="8.5468831"><ele>104.4</ele><time>2026-03-29T14:00:25.706Z</time></trkpt><trkpt lat="45.2079709" lon="8.5467683"><ele>103.8</ele><time>2026-03-29T14:00:26.705Z</time></trkpt><trkpt lat="45.2079126" lon="8.5466546"><ele>103.19999999999999</ele><time>2026-03-29T14:00:27.708Z</time></trkpt><trkpt lat="45.2078548" lon="8.5465347"><ele>102.6</ele><time>2026-03-29T14:00:28.699Z</time></trkpt><trkpt lat="45.2077938" lon="8.5464167"><ele>102.0</ele><time>2026-03-29T14:00:29.71Z</time></trkpt><trkpt lat="45.2077319" lon="8.5463022"><ele>101.6</ele><time>2026-03-29T14:00:30.704Z</time></trkpt><trkpt lat="45.2076715" lon="8.5461886"><ele>101.19999999999999</ele><time>2026-03-29T14:00:31.704Z</time></trkpt><trkpt lat="45.2076124" lon="8.5460732"><ele>100.8</ele><time>2026-03-29T14:00:32.696Z</time></trkpt><trkpt lat="45.2075519" lon="8.5459551"><ele>100.4</ele><time>2026-03-29T14:00:33.702Z</time></trkpt><trkpt lat="45.2074904" lon="8.5458318"><ele>100.0</ele><time>2026-03-29T14:00:34.711Z</time></trkpt><trkpt lat="45.2074303" lon="8.5457078"><ele>100.0</ele><time>2026-03-29T14:00:35.71Z</time></trkpt><trkpt lat="45.2073689" lon="8.5455906"><ele>100.0</ele><time>2026-03-29T14:00:36.71Z</time></trkpt><trkpt lat="45.2073095" lon="8.5454723"><ele>100.0</ele><time>2026-03-29T14:00:37.707Z</time></trkpt><trkpt lat="45.2072475" lon="8.545358"><ele>100.0</ele><time>2026-03-29T14:00:38.708Z</time></trkpt><trkpt lat="45.2071859" lon="8.5452447"><ele>100.0</ele><time>2026-03-29T14:00:39.707Z</time></trkpt><trkpt lat="45.2071253" lon="8.5451303"><ele>101.0</ele><time>2026-03-29T14:00:40.702Z</time></trkpt><trkpt lat="45.2070624" lon="8.5450103"><ele>102.0</ele><time>2026-03-29T14:00:41.707Z</time></trkpt><trkpt lat="45.2070004" lon="8.5448885"><ele>103.0</ele><time>2026-03-29T14:00:42.705Z</time></trkpt><trkpt lat="45.2069389" lon="8.5447659"><ele>104.0</ele><time>2026-03-29T14:00:43.704Z</time></trkpt><trkpt lat="45.2068744" lon="8.5446472"><ele>105.0</ele><time>2026-03-29T14:00:44.716Z</time></trkpt><trkpt lat="45.2068117" lon="8.5445278"><ele>105.0</ele><time>2026-03-29T14:00:45.703Z</time></trkpt><trkpt lat="45.2067473" lon="8.5444047"><ele>105.0</ele><time>2026-03-29T14:00:46.702Z</time></trkpt><trkpt lat="45.2066839" lon="8.5442821"><ele>105.0</ele><time>2026-03-29T14:00:47.706Z</time></trkpt><trkpt lat="45.2066213" lon="8.5441597"><ele>105.0</ele><time>2026-03-29T14:00:48.712Z</time></trkpt><trkpt lat="45.2065589" lon="8.5440406"><ele>105.0</ele><time>2026-03-29T14:00:49.708Z</time></trkpt><trkpt lat="45.2064973" lon="8.5439195"><ele>105.0</ele><time>2026-03-29T14:00:50.709Z</time></trkpt><trkpt lat="45.2064379" lon="8.5437936"><ele>105.0</ele><time>2026-03-29T14:00:51.711Z</time></trkpt><trkpt lat="45.2063786" lon="8.5436749"><ele>105.0</ele><time>2026-03-29T14:00:52.71Z</time></trkpt><trkpt lat="45.2063172" lon="8.5435535"><ele>105.0</ele><time>2026-03-29T14:00:53.71Z</time></trkpt><trkpt lat="45.2062555" lon="8.5434338"><ele>105.0</ele><time>2026-03-29T14:00:54.71Z</time></trkpt><trkpt lat="45.206194" lon="8.5433113"><ele>104.6</ele><time>2026-03-29T14:00:55.72Z</time></trkpt><trkpt lat="45.2061317" lon="8.5431952"><ele>104.2</ele><time>2026-03-29T14:00:56.706Z</time></trkpt><trkpt lat="45.2060727" lon="8.5430756"><ele>103.80000000000001</ele><time>2026-03-29T14:00:57.706Z</time></trkpt><trkpt lat="45.2060107" lon="8.5429566"><ele>103.4</ele><time>2026-03-29T14:00:58.711Z</time></trkpt><trkpt lat="45.2059502" lon="8.5428365"><ele>103.0</ele><time>2026-03-29T14:00:59.708Z</time></trkpt><trkpt lat="45.2058896" lon="8.5427164"><ele>103.0</ele><time>2026-03-29T14:01:00.718Z</time></trkpt><trkpt lat="45.2058269" lon="8.5425996"><ele>103.0</ele><time>2026-03-29T14:01:01.707Z</time></trkpt><trkpt lat="45.2057681" lon="8.542481"><ele>103.0</ele><time>2026-03-29T14:01:02.703Z</time></trkpt><trkpt lat="45.2057065" lon="8.5423619"><ele>103.0</ele><time>2026-03-29T14:01:03.707Z</time></trkpt><trkpt lat="45.2056445" lon="8.5422427"><ele>103.0</ele><time>2026-03-29T14:01:04.708Z</time></trkpt><trkpt lat="45.205588" lon="8.5421192"><ele>103.2</ele><time>2026-03-29T14:01:05.708Z</time></trkpt><trkpt lat="45.2055351" lon="8.541991"><ele>103.4</ele><time>2026-03-29T14:01:06.707Z</time></trkpt><trkpt lat="45.2054892" lon="8.5418615"><ele>103.60000000000001</ele><time>2026-03-29T14:01:07.707Z</time></trkpt><trkpt lat="45.2054419" lon="8.541732"><ele>103.80000000000001</ele><time>2026-03-29T14:01:08.712Z</time></trkpt><trkpt lat="45.2053983" lon="8.541602"><ele>104.0</ele><time>2026-03-29T14:01:09.709Z</time></trkpt><trkpt lat="45.2053582" lon="8.5414718"><ele>104.0</ele><time>2026-03-29T14:01:10.71Z</time></trkpt><trkpt lat="45.2053215" lon="8.5413413"><ele>104.0</ele><time>2026-03-29T14:01:11.707Z</time></trkpt><trkpt lat="45.2052856" lon="8.5412117"><ele>104.0</ele><time>2026-03-29T14:01:12.703Z</time></trkpt><trkpt lat="45.2052547" lon="8.5410771"><ele>104.0</ele><time>2026-03-29T14:01:13.708Z</time></trkpt><trkpt lat="45.2052265" lon="8.5409431"><ele>104.0</ele><time>2026-03-29T14:01:14.705Z</time></trkpt><trkpt lat="45.2051993" lon="8.5408048"><ele>104.2</ele><time>2026-03-29T14:01:15.705Z</time></trkpt><trkpt lat="45.2051755" lon="8.5406672"><ele>104.4</ele><time>2026-03-29T14:01:16.705Z</time></trkpt><trkpt lat="45.2051525" lon="8.5405253"><ele>104.6</ele><time>2026-03-29T14:01:17.711Z</time></trkpt><trkpt lat="45.2051332" lon="8.5403859"><ele>104.8</ele><time>2026-03-29T14:01:18.708Z</time></trkpt><trkpt lat="45.2051165" lon="8.5402469"><ele>105.0</ele><time>2026-03-29T14:01:19.709Z</time></trkpt><trkpt lat="45.2051031" lon="8.5401065"><ele>105.2</ele><time>2026-03-29T14:01:20.707Z</time></trkpt><trkpt lat="45.2050909" lon="8.5399663"><ele>105.4</ele><time>2026-03-29T14:01:21.707Z</time></trkpt><trkpt lat="45.2050859" lon="8.539817"><ele>105.6</ele><time>2026-03-29T14:01:22.706Z</time></trkpt><trkpt lat="45.2050858" lon="8.539675"><ele>105.8</ele><time>2026-03-29T14:01:23.714Z</time></trkpt><trkpt lat="45.2050865" lon="8.53953"><ele>106.0</ele><time>2026-03-29T14:01:24.709Z</time></trkpt><trkpt lat="45.2050908" lon="8.5393876"><ele>106.0</ele><time>2026-03-29T14:01:25.707Z</time></trkpt><trkpt lat="45.2050983" lon="8.5392477"><ele>106.0</ele><time>2026-03-29T14:01:26.705Z</time></trkpt><trkpt lat="45.2051086" lon="8.5391073"><ele>106.0</ele><time>2026-03-29T14:01:27.707Z</time></trkpt><trkpt lat="45.2051172" lon="8.5389675"><ele>106.0</ele><time>2026-03-29T14:01:28.715Z</time></trkpt><trkpt lat="45.2051295" lon="8.5388263"><ele>106.0</ele><time>2026-03-29T14:01:29.707Z</time></trkpt><trkpt lat="45.2051453" lon="8.5386787"><ele>105.4</ele><time>2026-03-29T14:01:30.726Z</time></trkpt><trkpt lat="45.205163" lon="8.5385397"><ele>104.8</ele><time>2026-03-29T14:01:31.697Z</time></trkpt><trkpt lat="45.2051894" lon="8.5383942"><ele>104.2</ele><time>2026-03-29T14:01:32.707Z</time></trkpt><trkpt lat="45.2052158" lon="8.5382537"><ele>103.60000000000001</ele><time>2026-03-29T14:01:33.704Z</time></trkpt><trkpt lat="45.2052466" lon="8.538114"><ele>103.0</ele><time>2026-03-29T14:01:34.711Z</time></trkpt><trkpt lat="45.2052833" lon="8.5379715"><ele>103.0</ele><time>2026-03-29T14:01:35.706Z</time></trkpt><trkpt lat="45.2053212" lon="8.5378311"><ele>103.0</ele><time>2026-03-29T14:01:36.711Z</time></trkpt><trkpt lat="45.205361" lon="8.5376937"><ele>103.0</ele><time>2026-03-29T14:01:37.705Z</time></trkpt><trkpt lat="45.2054022" lon="8.5375575"><ele>103.0</ele><time>2026-03-29T14:01:38.703Z</time></trkpt><trkpt lat="45.2054434" lon="8.5374231"><ele>103.0</ele><time>2026-03-29T14:01:39.701Z</time></trkpt><trkpt lat="45.2054865" lon="8.5372885"><ele>103.0</ele><time>2026-03-29T14:01:40.716Z</time></trkpt><trkpt lat="45.2055293" lon="8.5371536"><ele>103.0</ele><time>2026-03-29T14:01:41.714Z</time></trkpt><trkpt lat="45.2055712" lon="8.5370165"><ele>103.0</ele><time>2026-03-29T14:01:42.745Z</time></trkpt><trkpt lat="45.2056135" lon="8.5368905"><ele>103.0</ele><time>2026-03-29T14:01:43.709Z</time></trkpt><trkpt lat="45.2056574" lon="8.5367587"><ele>103.0</ele><time>2026-03-29T14:01:44.707Z</time></trkpt><trkpt lat="45.2057012" lon="8.5366236"><ele>103.4</ele><time>2026-03-29T14:01:45.709Z</time></trkpt><trkpt lat="45.2057463" lon="8.5364891"><ele>103.80000000000001</ele><time>2026-03-29T14:01:46.708Z</time></trkpt><trkpt lat="45.2057914" lon="8.536349"><ele>104.2</ele><time>2026-03-29T14:01:47.714Z</time></trkpt><trkpt lat="45.2058357" lon="8.5362132"><ele>104.6</ele><time>2026-03-29T14:01:48.707Z</time></trkpt><trkpt lat="45.2058821" lon="8.5360812"><ele>105.0</ele><time>2026-03-29T14:01:49.7Z</time></trkpt><trkpt lat="45.2059268" lon="8.5359459"><ele>105.0</ele><time>2026-03-29T14:01:50.706Z</time></trkpt><trkpt lat="45.20597" lon="8.5358118"><ele>105.0</ele><time>2026-03-29T14:01:51.707Z</time></trkpt><trkpt lat="45.2060142" lon="8.5356757"><ele>105.0</ele><time>2026-03-29T14:01:52.71Z</time></trkpt><trkpt lat="45.2060579" lon="8.5355427"><ele>105.0</ele><time>2026-03-29T14:01:53.7Z</time></trkpt><trkpt lat="45.2061021" lon="8.5354063"><ele>105.0</ele><time>2026-03-29T14:01:54.719Z</time></trkpt><trkpt lat="45.2061471" lon="8.5352715"><ele>104.8</ele><time>2026-03-29T14:01:55.711Z</time></trkpt><trkpt lat="45.2061935" lon="8.5351358"><ele>104.6</ele><time>2026-03-29T14:01:56.702Z</time></trkpt><trkpt lat="45.2062415" lon="8.5349978"><ele>104.4</ele><time>2026-03-29T14:01:57.716Z</time></trkpt><trkpt lat="45.2062828" lon="8.5348632"><ele>104.2</ele><time>2026-03-29T14:01:58.715Z</time></trkpt><trkpt lat="45.2063251" lon="8.5347291"><ele>104.0</ele><time>2026-03-29T14:01:59.707Z</time></trkpt><trkpt lat="45.2063685" lon="8.5345933"><ele>104.0</ele><time>2026-03-29T14:02:00.711Z</time></trkpt><trkpt lat="45.2064129" lon="8.5344634"><ele>104.0</ele><time>2026-03-29T14:02:01.705Z</time></trkpt><trkpt lat="45.2064579" lon="8.5343333"><ele>104.0</ele><time>2026-03-29T14:02:02.71Z</time></trkpt><trkpt lat="45.2065025" lon="8.5342022"><ele>104.0</ele><time>2026-03-29T14:02:03.71Z</time></trkpt><trkpt lat="45.2065459" lon="8.5340715"><ele>104.0</ele><time>2026-03-29T14:02:04.701Z</time></trkpt><trkpt lat="45.2065899" lon="8.5339403"><ele>104.0</ele><time>2026-03-29T14:02:05.71Z</time></trkpt><trkpt lat="45.206635" lon="8.533809"><ele>104.0</ele><time>2026-03-29T14:02:06.711Z</time></trkpt><trkpt lat="45.2066783" lon="8.5336761"><ele>104.0</ele><time>2026-03-29T14:02:07.718Z</time></trkpt><trkpt lat="45.2067209" lon="8.5335432"><ele>104.0</ele><time>2026-03-29T14:02:08.712Z</time></trkpt><trkpt lat="45.206764" lon="8.5334096"><ele>104.0</ele><time>2026-03-29T14:02:09.708Z</time></trkpt><trkpt lat="45.2068087" lon="8.5332766"><ele>104.0</ele><time>2026-03-29T14:02:10.709Z</time></trkpt><trkpt lat="45.2068522" lon="8.5331445"><ele>104.0</ele><time>2026-03-29T14:02:11.707Z</time></trkpt><trkpt lat="45.2068969" lon="8.5330094"><ele>104.0</ele><time>2026-03-29T14:02:12.717Z</time></trkpt><trkpt lat="45.2069389" lon="8.5328777"><ele>104.0</ele><time>2026-03-29T14:02:13.704Z</time></trkpt><trkpt lat="45.2069826" lon="8.5327445"><ele>104.0</ele><time>2026-03-29T14:02:14.708Z</time></trkpt><trkpt lat="45.2070257" lon="8.5326152"><ele>104.0</ele><time>2026-03-29T14:02:15.709Z</time></trkpt><trkpt lat="45.2070678" lon="8.5324816"><ele>104.0</ele><time>2026-03-29T14:02:16.699Z</time></trkpt><trkpt lat="45.2071108" lon="8.5323448"><ele>104.0</ele><time>2026-03-29T14:02:17.71Z</time></trkpt><trkpt lat="45.207197" lon="8.5320807"><ele>104.0</ele><time>2026-03-29T14:02:19.702Z</time></trkpt><trkpt lat="45.2072386" lon="8.5319472"><ele>104.0</ele><time>2026-03-29T14:02:20.705Z</time></trkpt><trkpt lat="45.2072805" lon="8.5318161"><ele>104.0</ele><time>2026-03-29T14:02:21.71Z</time></trkpt><trkpt lat="45.2073235" lon="8.531683"><ele>104.0</ele><time>2026-03-29T14:02:22.708Z</time></trkpt><trkpt lat="45.2073672" lon="8.5315514"><ele>104.0</ele><time>2026-03-29T14:02:23.709Z</time></trkpt><trkpt lat="45.2074091" lon="8.5314186"><ele>104.0</ele><time>2026-03-29T14:02:24.709Z</time></trkpt><trkpt lat="45.2074516" lon="8.5312869"><ele>103.80000000000001</ele><time>2026-03-29T14:02:25.71Z</time></trkpt><trkpt lat="45.2074954" lon="8.5311541"><ele>103.60000000000001</ele><time>2026-03-29T14:02:26.718Z</time></trkpt><trkpt lat="45.2075374" lon="8.5310208"><ele>103.4</ele><time>2026-03-29T14:02:27.709Z</time></trkpt><trkpt lat="45.2075833" lon="8.5308927"><ele>103.2</ele><time>2026-03-29T14:02:28.703Z</time></trkpt><trkpt lat="45.2076274" lon="8.5307633"><ele>103.0</ele><time>2026-03-29T14:02:29.709Z</time></trkpt><trkpt lat="45.207671" lon="8.5306349"><ele>103.0</ele><time>2026-03-29T14:02:30.713Z</time></trkpt><trkpt lat="45.2077109" lon="8.5305028"><ele>103.0</ele><time>2026-03-29T14:02:31.701Z</time></trkpt><trkpt lat="45.2077529" lon="8.5303731"><ele>103.0</ele><time>2026-03-29T14:02:32.717Z</time></trkpt><trkpt lat="45.2077935" lon="8.5302413"><ele>103.0</ele><time>2026-03-29T14:02:33.704Z</time></trkpt><trkpt lat="45.2078369" lon="8.5301108"><ele>103.0</ele><time>2026-03-29T14:02:34.702Z</time></trkpt><trkpt lat="45.2078822" lon="8.5299823"><ele>103.0</ele><time>2026-03-29T14:02:35.709Z</time></trkpt><trkpt lat="45.2079264" lon="8.5298556"><ele>103.0</ele><time>2026-03-29T14:02:36.708Z</time></trkpt><trkpt lat="45.2079667" lon="8.5297282"><ele>103.0</ele><time>2026-03-29T14:02:37.704Z</time></trkpt><trkpt lat="45.208008" lon="8.5295947"><ele>103.0</ele><time>2026-03-29T14:02:38.708Z</time></trkpt><trkpt lat="45.2080505" lon="8.5294607"><ele>103.0</ele><time>2026-03-29T14:02:39.707Z</time></trkpt><trkpt lat="45.2080939" lon="8.5293244"><ele>103.0</ele><time>2026-03-29T14:02:40.718Z</time></trkpt><trkpt lat="45.2081399" lon="8.529192"><ele>103.0</ele><time>2026-03-29T14:02:41.709Z</time></trkpt><trkpt lat="45.2081859" lon="8.5290605"><ele>103.0</ele><time>2026-03-29T14:02:42.703Z</time></trkpt><trkpt lat="45.2082327" lon="8.5289259"><ele>103.0</ele><time>2026-03-29T14:02:43.707Z</time></trkpt><trkpt lat="45.2082782" lon="8.5287933"><ele>103.0</ele><time>2026-03-29T14:02:44.699Z</time></trkpt><trkpt lat="45.2083233" lon="8.5286571"><ele>103.2</ele><time>2026-03-29T14:02:45.71Z</time></trkpt><trkpt lat="45.2083679" lon="8.5285233"><ele>103.4</ele><time>2026-03-29T14:02:46.709Z</time></trkpt><trkpt lat="45.2084111" lon="8.5283916"><ele>103.60000000000001</ele><time>2026-03-29T14:02:47.704Z</time></trkpt><trkpt lat="45.2084535" lon="8.5282577"><ele>103.80000000000001</ele><time>2026-03-29T14:02:48.706Z</time></trkpt><trkpt lat="45.2084989" lon="8.5281249"><ele>104.0</ele><time>2026-03-29T14:02:49.703Z</time></trkpt><trkpt lat="45.2085421" lon="8.5279933"><ele>104.0</ele><time>2026-03-29T14:02:50.705Z</time></trkpt><trkpt lat="45.2085859" lon="8.5278607"><ele>104.0</ele><time>2026-03-29T14:02:51.711Z</time></trkpt><trkpt lat="45.2086279" lon="8.5277296"><ele>104.0</ele><time>2026-03-29T14:02:52.701Z</time></trkpt><trkpt lat="45.2086718" lon="8.5275972"><ele>104.0</ele><time>2026-03-29T14:02:53.703Z</time></trkpt><trkpt lat="45.2087149" lon="8.5274672"><ele>104.0</ele><time>2026-03-29T14:02:54.706Z</time></trkpt><trkpt lat="45.2087599" lon="8.5273352"><ele>104.0</ele><time>2026-03-29T14:02:55.708Z</time></trkpt><trkpt lat="45.2088032" lon="8.527204"><ele>104.0</ele><time>2026-03-29T14:02:56.72Z</time></trkpt><trkpt lat="45.2088466" lon="8.5270712"><ele>104.0</ele><time>2026-03-29T14:02:57.71Z</time></trkpt><trkpt lat="45.2088903" lon="8.5269395"><ele>104.0</ele><time>2026-03-29T14:02:58.713Z</time></trkpt><trkpt lat="45.2089303" lon="8.5268075"><ele>104.0</ele><time>2026-03-29T14:02:59.705Z</time></trkpt><trkpt lat="45.2089734" lon="8.5266719"><ele>104.2</ele><time>2026-03-29T14:03:00.704Z</time></trkpt><trkpt lat="45.2090179" lon="8.5265367"><ele>104.4</ele><time>2026-03-29T14:03:01.712Z</time></trkpt><trkpt lat="45.2090621" lon="8.5264037"><ele>104.6</ele><time>2026-03-29T14:03:02.71Z</time></trkpt><trkpt lat="45.2091051" lon="8.526272"><ele>104.8</ele><time>2026-03-29T14:03:03.706Z</time></trkpt><trkpt lat="45.2091509" lon="8.5261403"><ele>105.0</ele><time>2026-03-29T14:03:04.713Z</time></trkpt><trkpt lat="45.2091962" lon="8.5260086"><ele>105.0</ele><time>2026-03-29T14:03:05.707Z</time></trkpt><trkpt lat="45.2092438" lon="8.5258709"><ele>105.0</ele><time>2026-03-29T14:03:06.715Z</time></trkpt><trkpt lat="45.2092869" lon="8.5257391"><ele>105.0</ele><time>2026-03-29T14:03:07.702Z</time></trkpt><trkpt lat="45.2093298" lon="8.5256029"><ele>105.0</ele><time>2026-03-29T14:03:08.715Z</time></trkpt><trkpt lat="45.2093742" lon="8.5254688"><ele>105.0</ele><time>2026-03-29T14:03:09.709Z</time></trkpt><trkpt lat="45.2094188" lon="8.5253363"><ele>104.8</ele><time>2026-03-29T14:03:10.708Z</time></trkpt><trkpt lat="45.2094632" lon="8.5252044"><ele>104.6</ele><time>2026-03-29T14:03:11.701Z</time></trkpt><trkpt lat="45.2095099" lon="8.5250681"><ele>104.4</ele><time>2026-03-29T14:03:12.705Z</time></trkpt><trkpt lat="45.2095561" lon="8.524933"><ele>104.2</ele><time>2026-03-29T14:03:13.707Z</time></trkpt><trkpt lat="45.2096005" lon="8.5247996"><ele>104.0</ele><time>2026-03-29T14:03:14.703Z</time></trkpt><trkpt lat="45.2096465" lon="8.5246647"><ele>104.0</ele><time>2026-03-29T14:03:15.712Z</time></trkpt><trkpt lat="45.2096909" lon="8.5245319"><ele>104.0</ele><time>2026-03-29T14:03:16.706Z</time></trkpt><trkpt lat="45.2097372" lon="8.5243975"><ele>104.0</ele><time>2026-03-29T14:03:17.71Z</time></trkpt><trkpt lat="45.2097819" lon="8.5242644"><ele>104.0</ele><time>2026-03-29T14:03:18.704Z</time></trkpt><trkpt lat="45.2098263" lon="8.5241294"><ele>104.0</ele><time>2026-03-29T14:03:19.712Z</time></trkpt><trkpt lat="45.2098715" lon="8.5239941"><ele>103.80000000000001</ele><time>2026-03-29T14:03:20.705Z</time></trkpt><trkpt lat="45.2099153" lon="8.5238565"><ele>103.60000000000001</ele><time>2026-03-29T14:03:21.711Z</time></trkpt><trkpt lat="45.2099605" lon="8.5237194"><ele>103.4</ele><time>2026-03-29T14:03:22.712Z</time></trkpt><trkpt lat="45.2100041" lon="8.5235843"><ele>103.2</ele><time>2026-03-29T14:03:23.704Z</time></trkpt><trkpt lat="45.2100467" lon="8.5234481"><ele>103.0</ele><time>2026-03-29T14:03:24.711Z</time></trkpt><trkpt lat="45.2100915" lon="8.5233119"><ele>103.0</ele><time>2026-03-29T14:03:25.707Z</time></trkpt><trkpt lat="45.2101333" lon="8.5231756"><ele>103.0</ele><time>2026-03-29T14:03:26.705Z</time></trkpt><trkpt lat="45.2101767" lon="8.5230389"><ele>103.0</ele><time>2026-03-29T14:03:27.712Z</time></trkpt><trkpt lat="45.2102178" lon="8.5229059"><ele>103.0</ele><time>2026-03-29T14:03:28.707Z</time></trkpt><trkpt lat="45.2102637" lon="8.522771"><ele>103.0</ele><time>2026-03-29T14:03:29.714Z</time></trkpt><trkpt lat="45.2103077" lon="8.5226337"><ele>103.2</ele><time>2026-03-29T14:03:30.712Z</time></trkpt><trkpt lat="45.2103543" lon="8.522496"><ele>103.4</ele><time>2026-03-29T14:03:31.707Z</time></trkpt><trkpt lat="45.2104046" lon="8.5223561"><ele>103.60000000000001</ele><time>2026-03-29T14:03:32.712Z</time></trkpt><trkpt lat="45.2104524" lon="8.5222172"><ele>103.80000000000001</ele><time>2026-03-29T14:03:33.71Z</time></trkpt><trkpt lat="45.2105016" lon="8.5220766"><ele>104.0</ele><time>2026-03-29T14:03:34.705Z</time></trkpt><trkpt lat="45.2105493" lon="8.5219288"><ele>104.0</ele><time>2026-03-29T14:03:35.704Z</time></trkpt><trkpt lat="45.2105957" lon="8.5217855"><ele>104.0</ele><time>2026-03-29T14:03:36.708Z</time></trkpt><trkpt lat="45.2106448" lon="8.5216416"><ele>104.0</ele><time>2026-03-29T14:03:37.717Z</time></trkpt><trkpt lat="45.2106943" lon="8.5214984"><ele>104.0</ele><time>2026-03-29T14:03:38.705Z</time></trkpt><trkpt lat="45.2107419" lon="8.5213512"><ele>103.75</ele><time>2026-03-29T14:03:39.716Z</time></trkpt><trkpt lat="45.2107864" lon="8.5212026"><ele>103.5</ele><time>2026-03-29T14:03:40.713Z</time></trkpt><trkpt lat="45.2108314" lon="8.5210546"><ele>103.25</ele><time>2026-03-29T14:03:41.722Z</time></trkpt><trkpt lat="45.2108756" lon="8.5209083"><ele>103.0</ele><time>2026-03-29T14:03:42.719Z</time></trkpt><trkpt lat="45.2109238" lon="8.5207616"><ele>103.0</ele><time>2026-03-29T14:03:43.713Z</time></trkpt><trkpt lat="45.210972" lon="8.5206154"><ele>103.0</ele><time>2026-03-29T14:03:44.715Z</time></trkpt><trkpt lat="45.2110178" lon="8.5204694"><ele>103.0</ele><time>2026-03-29T14:03:45.707Z</time></trkpt><trkpt lat="45.2110641" lon="8.5203179"><ele>103.0</ele><time>2026-03-29T14:03:46.713Z</time></trkpt><trkpt lat="45.2111091" lon="8.5201682"><ele>103.25</ele><time>2026-03-29T14:03:47.712Z</time></trkpt><trkpt lat="45.211156" lon="8.5200212"><ele>103.5</ele><time>2026-03-29T14:03:48.707Z</time></trkpt><trkpt lat="45.2112033" lon="8.5198725"><ele>103.75</ele><time>2026-03-29T14:03:49.703Z</time></trkpt><trkpt lat="45.2112503" lon="8.519721"><ele>104.0</ele><time>2026-03-29T14:03:50.707Z</time></trkpt><trkpt lat="45.2112979" lon="8.5195714"><ele>104.25</ele><time>2026-03-29T14:03:51.713Z</time></trkpt><trkpt lat="45.2113447" lon="8.5194203"><ele>104.5</ele><time>2026-03-29T14:03:52.713Z</time></trkpt><trkpt lat="45.2113941" lon="8.5192693"><ele>104.75</ele><time>2026-03-29T14:03:53.714Z</time></trkpt><trkpt lat="45.2114423" lon="8.5191203"><ele>105.0</ele><time>2026-03-29T14:03:54.709Z</time></trkpt><trkpt lat="45.211493" lon="8.518972"><ele>105.0</ele><time>2026-03-29T14:03:55.715Z</time></trkpt><trkpt lat="45.2115432" lon="8.5188232"><ele>105.0</ele><time>2026-03-29T14:03:56.713Z</time></trkpt><trkpt lat="45.2115935" lon="8.5186731"><ele>105.0</ele><time>2026-03-29T14:03:57.707Z</time></trkpt><trkpt lat="45.2116452" lon="8.5185172"><ele>105.0</ele><time>2026-03-29T14:03:58.732Z</time></trkpt><trkpt lat="45.2116957" lon="8.518371"><ele>105.0</ele><time>2026-03-29T14:03:59.711Z</time></trkpt><trkpt lat="45.2117458" lon="8.5182191"><ele>105.0</ele><time>2026-03-29T14:04:00.71Z</time></trkpt><trkpt lat="45.2117949" lon="8.518068"><ele>105.0</ele><time>2026-03-29T14:04:01.709Z</time></trkpt><trkpt lat="45.211845" lon="8.5179183"><ele>105.0</ele><time>2026-03-29T14:04:02.715Z</time></trkpt><trkpt lat="45.2118936" lon="8.5177681"><ele>105.0</ele><time>2026-03-29T14:04:03.714Z</time></trkpt><trkpt lat="45.2119405" lon="8.5176185"><ele>105.0</ele><time>2026-03-29T14:04:04.71Z</time></trkpt><trkpt lat="45.2119902" lon="8.5174695"><ele>105.0</ele><time>2026-03-29T14:04:05.712Z</time></trkpt><trkpt lat="45.212039" lon="8.5173211"><ele>105.0</ele><time>2026-03-29T14:04:06.711Z</time></trkpt><trkpt lat="45.2120871" lon="8.5171743"><ele>105.25</ele><time>2026-03-29T14:04:07.71Z</time></trkpt><trkpt lat="45.2121368" lon="8.517027"><ele>105.5</ele><time>2026-03-29T14:04:08.707Z</time></trkpt><trkpt lat="45.2121873" lon="8.5168807"><ele>105.75</ele><time>2026-03-29T14:04:09.713Z</time></trkpt><trkpt lat="45.212237" lon="8.516736"><ele>106.0</ele><time>2026-03-29T14:04:10.706Z</time></trkpt><trkpt lat="45.2122864" lon="8.5165857"><ele>106.25</ele><time>2026-03-29T14:04:11.709Z</time></trkpt><trkpt lat="45.2123347" lon="8.5164381"><ele>106.5</ele><time>2026-03-29T14:04:12.709Z</time></trkpt><trkpt lat="45.2123839" lon="8.5162896"><ele>106.75</ele><time>2026-03-29T14:04:13.704Z</time></trkpt><trkpt lat="45.2124326" lon="8.5161396"><ele>107.0</ele><time>2026-03-29T14:04:14.713Z</time></trkpt><trkpt lat="45.2124789" lon="8.5159941"><ele>107.0</ele><time>2026-03-29T14:04:15.704Z</time></trkpt><trkpt lat="45.2125266" lon="8.5158484"><ele>107.0</ele><time>2026-03-29T14:04:16.706Z</time></trkpt><trkpt lat="45.2125719" lon="8.5157024"><ele>107.0</ele><time>2026-03-29T14:04:17.706Z</time></trkpt><trkpt lat="45.2126171" lon="8.5155544"><ele>107.0</ele><time>2026-03-29T14:04:18.702Z</time></trkpt><trkpt lat="45.2126629" lon="8.5154073"><ele>107.0</ele><time>2026-03-29T14:04:19.706Z</time></trkpt><trkpt lat="45.212709" lon="8.5152582"><ele>107.0</ele><time>2026-03-29T14:04:20.708Z</time></trkpt><trkpt lat="45.2127597" lon="8.5151134"><ele>107.0</ele><time>2026-03-29T14:04:21.71Z</time></trkpt><trkpt lat="45.2128098" lon="8.5149695"><ele>107.0</ele><time>2026-03-29T14:04:22.706Z</time></trkpt><trkpt lat="45.2128608" lon="8.5148249"><ele>107.0</ele><time>2026-03-29T14:04:23.714Z</time></trkpt><trkpt lat="45.2129093" lon="8.5146808"><ele>107.0</ele><time>2026-03-29T14:04:24.705Z</time></trkpt><trkpt lat="45.2129555" lon="8.5145301"><ele>107.0</ele><time>2026-03-29T14:04:25.721Z</time></trkpt><trkpt lat="45.2130015" lon="8.514384"><ele>107.0</ele><time>2026-03-29T14:04:26.706Z</time></trkpt><trkpt lat="45.2130496" lon="8.5142341"><ele>107.0</ele><time>2026-03-29T14:04:27.711Z</time></trkpt><trkpt lat="45.2130976" lon="8.5140819"><ele>107.0</ele><time>2026-03-29T14:04:28.706Z</time></trkpt><trkpt lat="45.2131488" lon="8.5139313"><ele>107.0</ele><time>2026-03-29T14:04:29.71Z</time></trkpt><trkpt lat="45.2131991" lon="8.5137766"><ele>107.0</ele><time>2026-03-29T14:04:30.714Z</time></trkpt><trkpt lat="45.2132527" lon="8.5136206"><ele>106.75</ele><time>2026-03-29T14:04:31.717Z</time></trkpt><trkpt lat="45.2133029" lon="8.5134673"><ele>106.5</ele><time>2026-03-29T14:04:32.71Z</time></trkpt><trkpt lat="45.2133524" lon="8.5133141"><ele>106.25</ele><time>2026-03-29T14:04:33.71Z</time></trkpt><trkpt lat="45.213401" lon="8.513164"><ele>106.0</ele><time>2026-03-29T14:04:34.71Z</time></trkpt><trkpt lat="45.2134493" lon="8.5130131"><ele>106.5</ele><time>2026-03-29T14:04:35.716Z</time></trkpt><trkpt lat="45.2135004" lon="8.5128614"><ele>107.0</ele><time>2026-03-29T14:04:36.707Z</time></trkpt><trkpt lat="45.2135515" lon="8.5127102"><ele>107.5</ele><time>2026-03-29T14:04:37.715Z</time></trkpt><trkpt lat="45.2135986" lon="8.5125613"><ele>108.0</ele><time>2026-03-29T14:04:38.71Z</time></trkpt><trkpt lat="45.2136475" lon="8.5124116"><ele>108.0</ele><time>2026-03-29T14:04:39.71Z</time></trkpt><trkpt lat="45.2136996" lon="8.5122589"><ele>108.0</ele><time>2026-03-29T14:04:40.709Z</time></trkpt><trkpt lat="45.2137498" lon="8.5121068"><ele>108.0</ele><time>2026-03-29T14:04:41.711Z</time></trkpt><trkpt lat="45.2137994" lon="8.5119565"><ele>108.0</ele><time>2026-03-29T14:04:42.705Z</time></trkpt><trkpt lat="45.2138482" lon="8.5118051"><ele>107.75</ele><time>2026-03-29T14:04:43.706Z</time></trkpt><trkpt lat="45.2138976" lon="8.5116538"><ele>107.5</ele><time>2026-03-29T14:04:44.709Z</time></trkpt><trkpt lat="45.2139483" lon="8.5115047"><ele>107.25</ele><time>2026-03-29T14:04:45.709Z</time></trkpt><trkpt lat="45.213997" lon="8.5113545"><ele>107.0</ele><time>2026-03-29T14:04:46.713Z</time></trkpt><trkpt lat="45.2140439" lon="8.5112054"><ele>106.75</ele><time>2026-03-29T14:04:47.704Z</time></trkpt><trkpt lat="45.2140974" lon="8.5110555"><ele>106.5</ele><time>2026-03-29T14:04:48.719Z</time></trkpt><trkpt lat="45.2141472" lon="8.510907"><ele>106.25</ele><time>2026-03-29T14:04:49.712Z</time></trkpt><trkpt lat="45.2141977" lon="8.5107598"><ele>106.0</ele><time>2026-03-29T14:04:50.711Z</time></trkpt><trkpt lat="45.2142468" lon="8.5106083"><ele>106.0</ele><time>2026-03-29T14:04:51.708Z</time></trkpt><trkpt lat="45.2142957" lon="8.5104599"><ele>106.0</ele><time>2026-03-29T14:04:52.71Z</time></trkpt><trkpt lat="45.2143457" lon="8.5103115"><ele>106.0</ele><time>2026-03-29T14:04:53.71Z</time></trkpt><trkpt lat="45.2143977" lon="8.5101626"><ele>106.0</ele><time>2026-03-29T14:04:54.706Z</time></trkpt><trkpt lat="45.214448" lon="8.5100096"><ele>106.0</ele><time>2026-03-29T14:04:55.712Z</time></trkpt><trkpt lat="45.2144977" lon="8.5098591"><ele>106.0</ele><time>2026-03-29T14:04:56.709Z</time></trkpt><trkpt lat="45.2145461" lon="8.5097073"><ele>106.0</ele><time>2026-03-29T14:04:57.715Z</time></trkpt><trkpt lat="45.2145966" lon="8.5095585"><ele>106.0</ele><time>2026-03-29T14:04:58.703Z</time></trkpt><trkpt lat="45.2146456" lon="8.5094105"><ele>105.75</ele><time>2026-03-29T14:04:59.711Z</time></trkpt><trkpt lat="45.2146934" lon="8.509262"><ele>105.5</ele><time>2026-03-29T14:05:00.707Z</time></trkpt><trkpt lat="45.2147433" lon="8.5091118"><ele>105.25</ele><time>2026-03-29T14:05:01.708Z</time></trkpt><trkpt lat="45.2147919" lon="8.5089582"><ele>105.0</ele><time>2026-03-29T14:05:02.722Z</time></trkpt><trkpt lat="45.2148435" lon="8.5088123"><ele>105.25</ele><time>2026-03-29T14:05:03.708Z</time></trkpt><trkpt lat="45.2148943" lon="8.5086634"><ele>105.5</ele><time>2026-03-29T14:05:04.712Z</time></trkpt><trkpt lat="45.2149414" lon="8.5085148"><ele>105.75</ele><time>2026-03-29T14:05:05.703Z</time></trkpt><trkpt lat="45.2149912" lon="8.5083643"><ele>106.0</ele><time>2026-03-29T14:05:06.712Z</time></trkpt><trkpt lat="45.2150425" lon="8.5082184"><ele>106.0</ele><time>2026-03-29T14:05:07.704Z</time></trkpt><trkpt lat="45.2150904" lon="8.5080684"><ele>106.0</ele><time>2026-03-29T14:05:08.715Z</time></trkpt><trkpt lat="45.2151366" lon="8.507922"><ele>106.0</ele><time>2026-03-29T14:05:09.717Z</time></trkpt><trkpt lat="45.2151841" lon="8.5077786"><ele>106.0</ele><time>2026-03-29T14:05:10.712Z</time></trkpt><trkpt lat="45.2152325" lon="8.5076374"><ele>106.19999999999999</ele><time>2026-03-29T14:05:11.712Z</time></trkpt><trkpt lat="45.2152794" lon="8.5074917"><ele>106.39999999999999</ele><time>2026-03-29T14:05:12.709Z</time></trkpt><trkpt lat="45.2153251" lon="8.5073447"><ele>106.6</ele><time>2026-03-29T14:05:13.709Z</time></trkpt><trkpt lat="45.2153709" lon="8.5072044"><ele>106.8</ele><time>2026-03-29T14:05:14.704Z</time></trkpt><trkpt lat="45.2154164" lon="8.5070671"><ele>107.0</ele><time>2026-03-29T14:05:15.711Z</time></trkpt><trkpt lat="45.2154623" lon="8.5069386"><ele>107.33333333333333</ele><time>2026-03-29T14:05:16.713Z</time></trkpt><trkpt lat="45.2155038" lon="8.5068199"><ele>107.66666666666666</ele><time>2026-03-29T14:05:17.711Z</time></trkpt><trkpt lat="45.2155414" lon="8.5067099"><ele>108.0</ele><time>2026-03-29T14:05:18.71Z</time></trkpt><trkpt lat="45.2155783" lon="8.5066136"><ele>108.33333333333334</ele><time>2026-03-29T14:05:19.713Z</time></trkpt><trkpt lat="45.2156182" lon="8.5065257"><ele>108.66666666666667</ele><time>2026-03-29T14:05:20.71Z</time></trkpt><trkpt lat="45.215662" lon="8.5064452"><ele>109.0</ele><time>2026-03-29T14:05:21.712Z</time></trkpt><trkpt lat="45.2157095" lon="8.5063691"><ele>109.16666666666667</ele><time>2026-03-29T14:05:22.707Z</time></trkpt><trkpt lat="45.2157654" lon="8.5063014"><ele>109.33333333333334</ele><time>2026-03-29T14:05:23.716Z</time></trkpt><trkpt lat="45.2158285" lon="8.5062464"><ele>109.5</ele><time>2026-03-29T14:05:24.708Z</time></trkpt><trkpt lat="45.215893" lon="8.5062048"><ele>109.66666666666666</ele><time>2026-03-29T14:05:25.71Z</time></trkpt><trkpt lat="45.2159797" lon="8.5061777"><ele>109.83333333333333</ele><time>2026-03-29T14:05:26.706Z</time></trkpt><trkpt lat="45.2160657" lon="8.5061728"><ele>110.0</ele><time>2026-03-29T14:05:27.716Z</time></trkpt><trkpt lat="45.2161721" lon="8.5062126"><ele>109.99999999999999</ele><time>2026-03-29T14:05:29.706Z</time></trkpt><trkpt lat="45.2162343" lon="8.5062301"><ele>110.0</ele><time>2026-03-29T14:05:30.707Z</time></trkpt><trkpt lat="45.2163578" lon="8.5062553"><ele>110.0</ele><time>2026-03-29T14:05:32.71Z</time></trkpt><trkpt lat="45.2164241" lon="8.5062587"><ele>110.0</ele><time>2026-03-29T14:05:33.709Z</time></trkpt><trkpt lat="45.2164924" lon="8.506263"><ele>109.99999999999999</ele><time>2026-03-29T14:05:34.711Z</time></trkpt><trkpt lat="45.2165599" lon="8.506273"><ele>110.0</ele><time>2026-03-29T14:05:35.712Z</time></trkpt><trkpt lat="45.2166286" lon="8.5062828"><ele>110.16666666666666</ele><time>2026-03-29T14:05:36.71Z</time></trkpt><trkpt lat="45.2166983" lon="8.5062953"><ele>110.33333333333333</ele><time>2026-03-29T14:05:37.719Z</time></trkpt><trkpt lat="45.2167735" lon="8.5063028"><ele>110.5</ele><time>2026-03-29T14:05:38.712Z</time></trkpt><trkpt lat="45.2168494" lon="8.5063069"><ele>110.66666666666666</ele><time>2026-03-29T14:05:39.709Z</time></trkpt><trkpt lat="45.2169271" lon="8.5063083"><ele>110.83333333333333</ele><time>2026-03-29T14:05:40.714Z</time></trkpt><trkpt lat="45.2170048" lon="8.506308"><ele>111.0</ele><time>2026-03-29T14:05:41.71Z</time></trkpt><trkpt lat="45.2170834" lon="8.506312"><ele>111.0</ele><time>2026-03-29T14:05:42.71Z</time></trkpt><trkpt lat="45.2171617" lon="8.5063163"><ele>111.0</ele><time>2026-03-29T14:05:43.713Z</time></trkpt><trkpt lat="45.2172389" lon="8.5063144"><ele>111.0</ele><time>2026-03-29T14:05:44.712Z</time></trkpt><trkpt lat="45.2173151" lon="8.5063129"><ele>111.0</ele><time>2026-03-29T14:05:45.71Z</time></trkpt><trkpt lat="45.2173957" lon="8.5063142"><ele>111.0</ele><time>2026-03-29T14:05:46.71Z</time></trkpt><trkpt lat="45.2174764" lon="8.5063149"><ele>111.0</ele><time>2026-03-29T14:05:47.704Z</time></trkpt><trkpt lat="45.2175617" lon="8.5063186"><ele>111.0</ele><time>2026-03-29T14:05:48.72Z</time></trkpt><trkpt lat="45.2176458" lon="8.5063207"><ele>111.0</ele><time>2026-03-29T14:05:49.72Z</time></trkpt><trkpt lat="45.2177305" lon="8.5063287"><ele>111.0</ele><time>2026-03-29T14:05:50.71Z</time></trkpt><trkpt lat="45.2178117" lon="8.5063363"><ele>111.0</ele><time>2026-03-29T14:05:51.717Z</time></trkpt><trkpt lat="45.2178932" lon="8.5063349"><ele>111.0</ele><time>2026-03-29T14:05:52.714Z</time></trkpt><trkpt lat="45.2179724" lon="8.506341"><ele>111.0</ele><time>2026-03-29T14:05:53.714Z</time></trkpt><trkpt lat="45.2180557" lon="8.5063454"><ele>111.0</ele><time>2026-03-29T14:05:54.715Z</time></trkpt><trkpt lat="45.2181383" lon="8.50635"><ele>111.0</ele><time>2026-03-29T14:05:55.711Z</time></trkpt><trkpt lat="45.2182163" lon="8.5063546"><ele>111.0</ele><time>2026-03-29T14:05:56.714Z</time></trkpt><trkpt lat="45.2182923" lon="8.506358"><ele>111.0</ele><time>2026-03-29T14:05:57.71Z</time></trkpt><trkpt lat="45.2183687" lon="8.5063608"><ele>111.0</ele><time>2026-03-29T14:05:58.716Z</time></trkpt><trkpt lat="45.2184382" lon="8.5063602"><ele>111.0</ele><time>2026-03-29T14:05:59.709Z</time></trkpt><trkpt lat="45.2185112" lon="8.5063679"><ele>111.0</ele><time>2026-03-29T14:06:00.711Z</time></trkpt><trkpt lat="45.21858" lon="8.5063733"><ele>111.0</ele><time>2026-03-29T14:06:01.707Z</time></trkpt><trkpt lat="45.2186445" lon="8.5063734"><ele>111.0</ele><time>2026-03-29T14:06:02.705Z</time></trkpt><trkpt lat="45.2187085" lon="8.5063745"><ele>111.0</ele><time>2026-03-29T14:06:03.711Z</time></trkpt><trkpt lat="45.2188159" lon="8.5063749"><ele>111.0</ele><time>2026-03-29T14:06:05.709Z</time></trkpt><trkpt lat="45.2189165" lon="8.506381"><ele>111.0</ele><time>2026-03-29T14:06:07.714Z</time></trkpt><trkpt lat="45.2190393" lon="8.5063861"><ele>111.0</ele><time>2026-03-29T14:06:09.709Z</time></trkpt><trkpt lat="45.2191089" lon="8.506388"><ele>111.0</ele><time>2026-03-29T14:06:10.715Z</time></trkpt><trkpt lat="45.2191799" lon="8.5063887"><ele>111.0</ele><time>2026-03-29T14:06:11.711Z</time></trkpt><trkpt lat="45.219254" lon="8.5063898"><ele>111.0</ele><time>2026-03-29T14:06:12.71Z</time></trkpt><trkpt lat="45.2193331" lon="8.5063869"><ele>111.0</ele><time>2026-03-29T14:06:13.716Z</time></trkpt><trkpt lat="45.2194143" lon="8.506386"><ele>111.0</ele><time>2026-03-29T14:06:14.714Z</time></trkpt><trkpt lat="45.2194932" lon="8.506387"><ele>111.0</ele><time>2026-03-29T14:06:15.711Z</time></trkpt><trkpt lat="45.2195711" lon="8.5063875"><ele>111.0</ele><time>2026-03-29T14:06:16.711Z</time></trkpt><trkpt lat="45.2196496" lon="8.5063883"><ele>111.0</ele><time>2026-03-29T14:06:17.709Z</time></trkpt><trkpt lat="45.219724" lon="8.5063881"><ele>111.0</ele><time>2026-03-29T14:06:18.719Z</time></trkpt><trkpt lat="45.2197952" lon="8.5063877"><ele>111.0</ele><time>2026-03-29T14:06:19.708Z</time></trkpt><trkpt lat="45.2198993" lon="8.5063804"><ele>111.0</ele><time>2026-03-29T14:06:21.725Z</time></trkpt><trkpt lat="45.2199875" lon="8.5063954"><ele>111.0</ele><time>2026-03-29T14:06:23.715Z</time></trkpt><trkpt lat="45.2200075" lon="8.5064884"><ele>111.0</ele><time>2026-03-29T14:06:25.708Z</time></trkpt><trkpt lat="45.2199877" lon="8.5066415"><ele>111.0</ele><time>2026-03-29T14:06:27.711Z</time></trkpt><trkpt lat="45.2199843" lon="8.5068093"><ele>111.0</ele><time>2026-03-29T14:06:29.707Z</time></trkpt><trkpt lat="45.2199684" lon="8.5069938"><ele>111.0</ele><time>2026-03-29T14:06:31.712Z</time></trkpt><trkpt lat="45.2199525" lon="8.5070947"><ele>110.83333333333333</ele><time>2026-03-29T14:06:32.71Z</time></trkpt><trkpt lat="45.2199442" lon="8.5071855"><ele>110.66666666666666</ele><time>2026-03-29T14:06:33.711Z</time></trkpt><trkpt lat="45.2199429" lon="8.5073242"><ele>110.5</ele><time>2026-03-29T14:06:35.713Z</time></trkpt><trkpt lat="45.2199744" lon="8.5074036"><ele>110.33333333333333</ele><time>2026-03-29T14:06:37.713Z</time></trkpt><trkpt lat="45.2200556" lon="8.5074024"><ele>110.16666666666666</ele><time>2026-03-29T14:06:39.71Z</time></trkpt><trkpt lat="45.2201741" lon="8.5073967"><ele>110.0</ele><time>2026-03-29T14:06:41.708Z</time></trkpt><trkpt lat="45.2202861" lon="8.5073806"><ele>109.99999999999999</ele><time>2026-03-29T14:06:43.711Z</time></trkpt><trkpt lat="45.2204018" lon="8.5073602"><ele>110.0</ele><time>2026-03-29T14:06:45.714Z</time></trkpt><trkpt lat="45.2205083" lon="8.5073636"><ele>110.0</ele><time>2026-03-29T14:06:47.717Z</time></trkpt><trkpt lat="45.2205924" lon="8.5073708"><ele>110.0</ele><time>2026-03-29T14:06:49.714Z</time></trkpt><trkpt lat="45.2206481" lon="8.5074219"><ele>109.99999999999999</ele><time>2026-03-29T14:06:51.711Z</time></trkpt><trkpt lat="45.2206932" lon="8.5074856"><ele>110.0</ele><time>2026-03-29T14:06:54.708Z</time></trkpt><trkpt lat="45.2207194" lon="8.5075769"><ele>112.0</ele><time>2026-03-29T14:07:14.712Z</time></trkpt><trkpt lat="45.2207269" lon="8.5076963"><ele>112.0</ele><time>2026-03-29T14:07:16.718Z</time></trkpt><trkpt lat="45.2207325" lon="8.5078015"><ele>112.0</ele><time>2026-03-29T14:07:19.709Z</time></trkpt><trkpt lat="45.2207611" lon="8.5077211"><ele>112.0</ele><time>2026-03-29T14:08:26.759Z</time></trkpt><trkpt lat="45.2206982" lon="8.5076723"><ele>112.0</ele><time>2026-03-29T14:08:55.68Z</time></trkpt></trkseg></trk></gpx>